<?xml version="1.0" encoding="UTF-8" standalone="no" ?>
<gpx xmlns="http://www.topografix.com/GPX/1/1" xmlns:xsi="http://www.w3.org/2001/XMLSchema-instance" xsi:schemaLocation="http://www.topografix.com/GPX/1/1 http://www.topografix.com/GPX/1/1/gpx.xsd" version="1.1" creator="VisuGPX - https://www.visugpx.com">
  <metadata>
    <name>gr70 E3 : 21 JUIL 2021 08:48</name>
  </metadata>
  <trk>
    <name><![CDATA[Tracé actuel: 21 JUIL 2021 08:48]]></name>
    <trkseg>
      <trkpt lat="44.59274" lon="3.90554">
        <ele>1084.99</ele>
        <time>2021-07-21T06:48:57Z</time>
      </trkpt>
      <trkpt lat="44.59278" lon="3.90562">
        <ele>1080.66</ele>
        <time>2021-07-21T06:49:03Z</time>
      </trkpt>
      <trkpt lat="44.59259" lon="3.90568">
        <ele>1062.39</ele>
        <time>2021-07-21T06:49:15Z</time>
      </trkpt>
      <trkpt lat="44.59249" lon="3.90579">
        <ele>1058.55</ele>
        <time>2021-07-21T06:49:26Z</time>
      </trkpt>
      <trkpt lat="44.59245" lon="3.90581">
        <ele>1061.43</ele>
        <time>2021-07-21T06:49:43Z</time>
      </trkpt>
      <trkpt lat="44.59221" lon="3.90588">
        <ele>1058.07</ele>
        <time>2021-07-21T06:49:54Z</time>
      </trkpt>
      <trkpt lat="44.5919" lon="3.90581">
        <ele>1056.15</ele>
        <time>2021-07-21T06:50:07Z</time>
      </trkpt>
      <trkpt lat="44.5918" lon="3.9056">
        <ele>1051.82</ele>
        <time>2021-07-21T06:50:18Z</time>
      </trkpt>
      <trkpt lat="44.59182" lon="3.90553">
        <ele>1046.53</ele>
        <time>2021-07-21T06:50:31Z</time>
      </trkpt>
      <trkpt lat="44.59181" lon="3.90546">
        <ele>1042.69</ele>
        <time>2021-07-21T06:50:44Z</time>
      </trkpt>
      <trkpt lat="44.59184" lon="3.90541">
        <ele>1042.21</ele>
        <time>2021-07-21T06:50:55Z</time>
      </trkpt>
      <trkpt lat="44.59183" lon="3.90541">
        <ele>1042.21</ele>
        <time>2021-07-21T06:51:01Z</time>
      </trkpt>
      <trkpt lat="44.59184" lon="3.90539">
        <ele>1041.25</ele>
        <time>2021-07-21T06:51:12Z</time>
      </trkpt>
      <trkpt lat="44.59184" lon="3.90538">
        <ele>1031.63</ele>
        <time>2021-07-21T06:51:26Z</time>
      </trkpt>
      <trkpt lat="44.59187" lon="3.90522">
        <ele>1026.83</ele>
        <time>2021-07-21T06:51:45Z</time>
      </trkpt>
      <trkpt lat="44.59194" lon="3.90492">
        <ele>1027.79</ele>
        <time>2021-07-21T06:51:58Z</time>
      </trkpt>
      <trkpt lat="44.59204" lon="3.90456">
        <ele>1025.86</ele>
        <time>2021-07-21T06:52:15Z</time>
      </trkpt>
      <trkpt lat="44.59206" lon="3.90453">
        <ele>1025.86</ele>
        <time>2021-07-21T06:52:17Z</time>
      </trkpt>
      <trkpt lat="44.59215" lon="3.90448">
        <ele>1025.38</ele>
        <time>2021-07-21T06:52:24Z</time>
      </trkpt>
      <trkpt lat="44.5924" lon="3.90446">
        <ele>1027.31</ele>
        <time>2021-07-21T06:52:41Z</time>
      </trkpt>
      <trkpt lat="44.59262" lon="3.9045">
        <ele>1028.75</ele>
        <time>2021-07-21T06:52:56Z</time>
      </trkpt>
      <trkpt lat="44.59285" lon="3.90456">
        <ele>1028.75</ele>
        <time>2021-07-21T06:53:10Z</time>
      </trkpt>
      <trkpt lat="44.59317" lon="3.90464">
        <ele>1031.15</ele>
        <time>2021-07-21T06:53:28Z</time>
      </trkpt>
      <trkpt lat="44.59346" lon="3.9046">
        <ele>1033.55</ele>
        <time>2021-07-21T06:53:45Z</time>
      </trkpt>
      <trkpt lat="44.59372" lon="3.90441">
        <ele>1037.4</ele>
        <time>2021-07-21T06:54:02Z</time>
      </trkpt>
      <trkpt lat="44.59402" lon="3.90428">
        <ele>1034.52</ele>
        <time>2021-07-21T06:54:20Z</time>
      </trkpt>
      <trkpt lat="44.59434" lon="3.90428">
        <ele>1032.59</ele>
        <time>2021-07-21T06:54:32Z</time>
      </trkpt>
      <trkpt lat="44.59439" lon="3.90426">
        <ele>1033.07</ele>
        <time>2021-07-21T06:54:34Z</time>
      </trkpt>
      <trkpt lat="44.5944" lon="3.904">
        <ele>1032.11</ele>
        <time>2021-07-21T06:54:43Z</time>
      </trkpt>
      <trkpt lat="44.5943" lon="3.90386">
        <ele>1031.63</ele>
        <time>2021-07-21T06:54:51Z</time>
      </trkpt>
      <trkpt lat="44.59399" lon="3.90376">
        <ele>1035.48</ele>
        <time>2021-07-21T06:55:09Z</time>
      </trkpt>
      <trkpt lat="44.59395" lon="3.90368">
        <ele>1036.44</ele>
        <time>2021-07-21T06:55:14Z</time>
      </trkpt>
      <trkpt lat="44.59394" lon="3.90365">
        <ele>1037.4</ele>
        <time>2021-07-21T06:55:16Z</time>
      </trkpt>
      <trkpt lat="44.59395" lon="3.90344">
        <ele>1041.73</ele>
        <time>2021-07-21T06:55:27Z</time>
      </trkpt>
      <trkpt lat="44.59395" lon="3.90314">
        <ele>1041.73</ele>
        <time>2021-07-21T06:55:43Z</time>
      </trkpt>
      <trkpt lat="44.59395" lon="3.90291">
        <ele>1042.21</ele>
        <time>2021-07-21T06:55:57Z</time>
      </trkpt>
      <trkpt lat="44.59395" lon="3.90274">
        <ele>1042.69</ele>
        <time>2021-07-21T06:56:13Z</time>
      </trkpt>
      <trkpt lat="44.59395" lon="3.90274">
        <ele>1042.69</ele>
        <time>2021-07-21T06:56:25Z</time>
      </trkpt>
      <trkpt lat="44.59396" lon="3.90274">
        <ele>1042.69</ele>
        <time>2021-07-21T06:56:50Z</time>
      </trkpt>
      <trkpt lat="44.59395" lon="3.90274">
        <ele>1041.25</ele>
        <time>2021-07-21T06:57:15Z</time>
      </trkpt>
      <trkpt lat="44.59396" lon="3.90276">
        <ele>1042.21</ele>
        <time>2021-07-21T06:57:42Z</time>
      </trkpt>
      <trkpt lat="44.59397" lon="3.90277">
        <ele>1042.21</ele>
        <time>2021-07-21T06:58:08Z</time>
      </trkpt>
      <trkpt lat="44.59396" lon="3.90275">
        <ele>1042.21</ele>
        <time>2021-07-21T06:58:41Z</time>
      </trkpt>
      <trkpt lat="44.59395" lon="3.90276">
        <ele>1043.65</ele>
        <time>2021-07-21T06:59:11Z</time>
      </trkpt>
      <trkpt lat="44.59395" lon="3.90276">
        <ele>1043.65</ele>
        <time>2021-07-21T06:59:39Z</time>
      </trkpt>
      <trkpt lat="44.59396" lon="3.90276">
        <ele>1043.17</ele>
        <time>2021-07-21T07:00:02Z</time>
      </trkpt>
      <trkpt lat="44.59396" lon="3.90275">
        <ele>1043.17</ele>
        <time>2021-07-21T07:00:30Z</time>
      </trkpt>
      <trkpt lat="44.59397" lon="3.90275">
        <ele>1045.09</ele>
        <time>2021-07-21T07:01:00Z</time>
      </trkpt>
      <trkpt lat="44.59399" lon="3.90271">
        <ele>1046.53</ele>
        <time>2021-07-21T07:01:04Z</time>
      </trkpt>
      <trkpt lat="44.59406" lon="3.9025">
        <ele>1047.97</ele>
        <time>2021-07-21T07:01:19Z</time>
      </trkpt>
      <trkpt lat="44.59403" lon="3.90241">
        <ele>1047.97</ele>
        <time>2021-07-21T07:01:27Z</time>
      </trkpt>
      <trkpt lat="44.59394" lon="3.90241">
        <ele>1049.42</ele>
        <time>2021-07-21T07:01:43Z</time>
      </trkpt>
      <trkpt lat="44.59394" lon="3.90241">
        <ele>1049.42</ele>
        <time>2021-07-21T07:01:46Z</time>
      </trkpt>
      <trkpt lat="44.59392" lon="3.90245">
        <ele>1049.42</ele>
        <time>2021-07-21T07:01:50Z</time>
      </trkpt>
      <trkpt lat="44.59381" lon="3.90256">
        <ele>1050.38</ele>
        <time>2021-07-21T07:02:01Z</time>
      </trkpt>
      <trkpt lat="44.59357" lon="3.90277">
        <ele>1052.78</ele>
        <time>2021-07-21T07:02:18Z</time>
      </trkpt>
      <trkpt lat="44.59337" lon="3.90276">
        <ele>1054.22</ele>
        <time>2021-07-21T07:02:33Z</time>
      </trkpt>
      <trkpt lat="44.59318" lon="3.90269">
        <ele>1056.63</ele>
        <time>2021-07-21T07:02:47Z</time>
      </trkpt>
      <trkpt lat="44.59297" lon="3.90254">
        <ele>1056.63</ele>
        <time>2021-07-21T07:03:02Z</time>
      </trkpt>
      <trkpt lat="44.59278" lon="3.90232">
        <ele>1053.74</ele>
        <time>2021-07-21T07:03:18Z</time>
      </trkpt>
      <trkpt lat="44.5926" lon="3.90218">
        <ele>1053.26</ele>
        <time>2021-07-21T07:03:33Z</time>
      </trkpt>
      <trkpt lat="44.59245" lon="3.90207">
        <ele>1054.7</ele>
        <time>2021-07-21T07:03:47Z</time>
      </trkpt>
      <trkpt lat="44.5924" lon="3.90203">
        <ele>1053.74</ele>
        <time>2021-07-21T07:03:52Z</time>
      </trkpt>
      <trkpt lat="44.59234" lon="3.90198">
        <ele>1053.74</ele>
        <time>2021-07-21T07:03:57Z</time>
      </trkpt>
      <trkpt lat="44.59216" lon="3.90186">
        <ele>1051.82</ele>
        <time>2021-07-21T07:04:14Z</time>
      </trkpt>
      <trkpt lat="44.59203" lon="3.90176">
        <ele>1051.82</ele>
        <time>2021-07-21T07:04:26Z</time>
      </trkpt>
      <trkpt lat="44.59179" lon="3.90165">
        <ele>1053.74</ele>
        <time>2021-07-21T07:04:41Z</time>
      </trkpt>
      <trkpt lat="44.59167" lon="3.90156">
        <ele>1056.63</ele>
        <time>2021-07-21T07:04:52Z</time>
      </trkpt>
      <trkpt lat="44.59148" lon="3.90146">
        <ele>1059.99</ele>
        <time>2021-07-21T07:05:07Z</time>
      </trkpt>
      <trkpt lat="44.59136" lon="3.90136">
        <ele>1063.84</ele>
        <time>2021-07-21T07:05:20Z</time>
      </trkpt>
      <trkpt lat="44.59122" lon="3.90126">
        <ele>1066.72</ele>
        <time>2021-07-21T07:05:34Z</time>
      </trkpt>
      <trkpt lat="44.59116" lon="3.90124">
        <ele>1069.6</ele>
        <time>2021-07-21T07:05:47Z</time>
      </trkpt>
      <trkpt lat="44.59109" lon="3.90119">
        <ele>1070.08</ele>
        <time>2021-07-21T07:06:00Z</time>
      </trkpt>
      <trkpt lat="44.5909" lon="3.90108">
        <ele>1074.89</ele>
        <time>2021-07-21T07:06:14Z</time>
      </trkpt>
      <trkpt lat="44.59068" lon="3.90094">
        <ele>1076.81</ele>
        <time>2021-07-21T07:06:30Z</time>
      </trkpt>
      <trkpt lat="44.59065" lon="3.90092">
        <ele>1076.81</ele>
        <time>2021-07-21T07:06:32Z</time>
      </trkpt>
      <trkpt lat="44.59049" lon="3.90081">
        <ele>1076.81</ele>
        <time>2021-07-21T07:06:44Z</time>
      </trkpt>
      <trkpt lat="44.59045" lon="3.90076">
        <ele>1076.81</ele>
        <time>2021-07-21T07:06:48Z</time>
      </trkpt>
      <trkpt lat="44.59025" lon="3.90064">
        <ele>1080.18</ele>
        <time>2021-07-21T07:07:04Z</time>
      </trkpt>
      <trkpt lat="44.59021" lon="3.90061">
        <ele>1081.14</ele>
        <time>2021-07-21T07:07:08Z</time>
      </trkpt>
      <trkpt lat="44.58999" lon="3.90044">
        <ele>1082.58</ele>
        <time>2021-07-21T07:07:27Z</time>
      </trkpt>
      <trkpt lat="44.58992" lon="3.90037">
        <ele>1083.54</ele>
        <time>2021-07-21T07:07:35Z</time>
      </trkpt>
      <trkpt lat="44.58973" lon="3.90021">
        <ele>1084.5</ele>
        <time>2021-07-21T07:07:51Z</time>
      </trkpt>
      <trkpt lat="44.58961" lon="3.90009">
        <ele>1085.95</ele>
        <time>2021-07-21T07:08:01Z</time>
      </trkpt>
      <trkpt lat="44.5895" lon="3.89984">
        <ele>1088.83</ele>
        <time>2021-07-21T07:08:19Z</time>
      </trkpt>
      <trkpt lat="44.5895" lon="3.8998">
        <ele>1089.31</ele>
        <time>2021-07-21T07:08:21Z</time>
      </trkpt>
      <trkpt lat="44.5895" lon="3.89972">
        <ele>1090.27</ele>
        <time>2021-07-21T07:08:26Z</time>
      </trkpt>
      <trkpt lat="44.58965" lon="3.89949">
        <ele>1092.68</ele>
        <time>2021-07-21T07:08:43Z</time>
      </trkpt>
      <trkpt lat="44.58979" lon="3.89933">
        <ele>1094.12</ele>
        <time>2021-07-21T07:08:59Z</time>
      </trkpt>
      <trkpt lat="44.58984" lon="3.89928">
        <ele>1094.12</ele>
        <time>2021-07-21T07:09:04Z</time>
      </trkpt>
      <trkpt lat="44.58991" lon="3.89919">
        <ele>1095.08</ele>
        <time>2021-07-21T07:09:12Z</time>
      </trkpt>
      <trkpt lat="44.59002" lon="3.89914">
        <ele>1096.04</ele>
        <time>2021-07-21T07:09:28Z</time>
      </trkpt>
      <trkpt lat="44.59021" lon="3.89904">
        <ele>1098.92</ele>
        <time>2021-07-21T07:09:46Z</time>
      </trkpt>
      <trkpt lat="44.59039" lon="3.89894">
        <ele>1099.89</ele>
        <time>2021-07-21T07:10:06Z</time>
      </trkpt>
      <trkpt lat="44.59054" lon="3.89886">
        <ele>1101.81</ele>
        <time>2021-07-21T07:10:23Z</time>
      </trkpt>
      <trkpt lat="44.59062" lon="3.89883">
        <ele>1104.21</ele>
        <time>2021-07-21T07:10:40Z</time>
      </trkpt>
      <trkpt lat="44.59073" lon="3.89878">
        <ele>1105.17</ele>
        <time>2021-07-21T07:10:54Z</time>
      </trkpt>
      <trkpt lat="44.59099" lon="3.89868">
        <ele>1107.1</ele>
        <time>2021-07-21T07:11:12Z</time>
      </trkpt>
      <trkpt lat="44.59122" lon="3.89861">
        <ele>1109.02</ele>
        <time>2021-07-21T07:11:28Z</time>
      </trkpt>
      <trkpt lat="44.59142" lon="3.89858">
        <ele>1111.42</ele>
        <time>2021-07-21T07:11:42Z</time>
      </trkpt>
      <trkpt lat="44.59148" lon="3.89858">
        <ele>1111.9</ele>
        <time>2021-07-21T07:11:48Z</time>
      </trkpt>
      <trkpt lat="44.59168" lon="3.89857">
        <ele>1112.86</ele>
        <time>2021-07-21T07:12:02Z</time>
      </trkpt>
      <trkpt lat="44.59184" lon="3.89857">
        <ele>1113.82</ele>
        <time>2021-07-21T07:12:14Z</time>
      </trkpt>
      <trkpt lat="44.59196" lon="3.89855">
        <ele>1109.5</ele>
        <time>2021-07-21T07:12:28Z</time>
      </trkpt>
      <trkpt lat="44.59209" lon="3.89851">
        <ele>1108.06</ele>
        <time>2021-07-21T07:12:39Z</time>
      </trkpt>
      <trkpt lat="44.5922" lon="3.89845">
        <ele>1111.9</ele>
        <time>2021-07-21T07:12:48Z</time>
      </trkpt>
      <trkpt lat="44.59239" lon="3.89833">
        <ele>1117.19</ele>
        <time>2021-07-21T07:13:06Z</time>
      </trkpt>
      <trkpt lat="44.59254" lon="3.89821">
        <ele>1121.52</ele>
        <time>2021-07-21T07:13:21Z</time>
      </trkpt>
      <trkpt lat="44.5927" lon="3.89806">
        <ele>1124.88</ele>
        <time>2021-07-21T07:13:38Z</time>
      </trkpt>
      <trkpt lat="44.59285" lon="3.89794">
        <ele>1126.8</ele>
        <time>2021-07-21T07:13:54Z</time>
      </trkpt>
      <trkpt lat="44.59302" lon="3.89778">
        <ele>1128.24</ele>
        <time>2021-07-21T07:14:12Z</time>
      </trkpt>
      <trkpt lat="44.59306" lon="3.89774">
        <ele>1128.73</ele>
        <time>2021-07-21T07:14:16Z</time>
      </trkpt>
      <trkpt lat="44.59308" lon="3.89772">
        <ele>1128.73</ele>
        <time>2021-07-21T07:14:18Z</time>
      </trkpt>
      <trkpt lat="44.59326" lon="3.89752">
        <ele>1129.21</ele>
        <time>2021-07-21T07:14:38Z</time>
      </trkpt>
      <trkpt lat="44.59342" lon="3.89734">
        <ele>1130.65</ele>
        <time>2021-07-21T07:14:55Z</time>
      </trkpt>
      <trkpt lat="44.59348" lon="3.8973">
        <ele>1130.65</ele>
        <time>2021-07-21T07:15:00Z</time>
      </trkpt>
      <trkpt lat="44.59363" lon="3.89715">
        <ele>1132.09</ele>
        <time>2021-07-21T07:15:15Z</time>
      </trkpt>
      <trkpt lat="44.59365" lon="3.8971">
        <ele>1131.61</ele>
        <time>2021-07-21T07:15:19Z</time>
      </trkpt>
      <trkpt lat="44.59368" lon="3.89692">
        <ele>1132.09</ele>
        <time>2021-07-21T07:15:28Z</time>
      </trkpt>
      <trkpt lat="44.59365" lon="3.89681">
        <ele>1132.57</ele>
        <time>2021-07-21T07:15:35Z</time>
      </trkpt>
      <trkpt lat="44.59353" lon="3.89658">
        <ele>1134.49</ele>
        <time>2021-07-21T07:15:52Z</time>
      </trkpt>
      <trkpt lat="44.59346" lon="3.89644">
        <ele>1135.94</ele>
        <time>2021-07-21T07:16:05Z</time>
      </trkpt>
      <trkpt lat="44.59347" lon="3.89644">
        <ele>1134.97</ele>
        <time>2021-07-21T07:16:21Z</time>
      </trkpt>
      <trkpt lat="44.59347" lon="3.89644">
        <ele>1134.49</ele>
        <time>2021-07-21T07:16:53Z</time>
      </trkpt>
      <trkpt lat="44.59343" lon="3.89636">
        <ele>1134.97</ele>
        <time>2021-07-21T07:17:21Z</time>
      </trkpt>
      <trkpt lat="44.59334" lon="3.89614">
        <ele>1136.42</ele>
        <time>2021-07-21T07:17:35Z</time>
      </trkpt>
      <trkpt lat="44.59322" lon="3.89593">
        <ele>1138.34</ele>
        <time>2021-07-21T07:17:51Z</time>
      </trkpt>
      <trkpt lat="44.59308" lon="3.89567">
        <ele>1140.74</ele>
        <time>2021-07-21T07:18:09Z</time>
      </trkpt>
      <trkpt lat="44.59303" lon="3.89557">
        <ele>1141.7</ele>
        <time>2021-07-21T07:18:16Z</time>
      </trkpt>
      <trkpt lat="44.59296" lon="3.89544">
        <ele>1143.14</ele>
        <time>2021-07-21T07:18:26Z</time>
      </trkpt>
      <trkpt lat="44.59292" lon="3.89537">
        <ele>1144.11</ele>
        <time>2021-07-21T07:18:31Z</time>
      </trkpt>
      <trkpt lat="44.59287" lon="3.89522">
        <ele>1144.59</ele>
        <time>2021-07-21T07:18:41Z</time>
      </trkpt>
      <trkpt lat="44.59279" lon="3.895">
        <ele>1146.99</ele>
        <time>2021-07-21T07:18:56Z</time>
      </trkpt>
      <trkpt lat="44.59273" lon="3.8948">
        <ele>1148.91</ele>
        <time>2021-07-21T07:19:09Z</time>
      </trkpt>
      <trkpt lat="44.59271" lon="3.89472">
        <ele>1149.87</ele>
        <time>2021-07-21T07:19:14Z</time>
      </trkpt>
      <trkpt lat="44.59268" lon="3.89443">
        <ele>1150.84</ele>
        <time>2021-07-21T07:19:31Z</time>
      </trkpt>
      <trkpt lat="44.59266" lon="3.89435">
        <ele>1151.32</ele>
        <time>2021-07-21T07:19:36Z</time>
      </trkpt>
      <trkpt lat="44.59266" lon="3.89412">
        <ele>1153.24</ele>
        <time>2021-07-21T07:19:51Z</time>
      </trkpt>
      <trkpt lat="44.59262" lon="3.89393">
        <ele>1156.12</ele>
        <time>2021-07-21T07:20:05Z</time>
      </trkpt>
      <trkpt lat="44.5926" lon="3.89382">
        <ele>1157.08</ele>
        <time>2021-07-21T07:20:14Z</time>
      </trkpt>
      <trkpt lat="44.59258" lon="3.89365">
        <ele>1159.49</ele>
        <time>2021-07-21T07:20:26Z</time>
      </trkpt>
      <trkpt lat="44.59255" lon="3.89338">
        <ele>1162.37</ele>
        <time>2021-07-21T07:20:41Z</time>
      </trkpt>
      <trkpt lat="44.59255" lon="3.89334">
        <ele>1161.89</ele>
        <time>2021-07-21T07:20:43Z</time>
      </trkpt>
      <trkpt lat="44.59255" lon="3.89311">
        <ele>1162.37</ele>
        <time>2021-07-21T07:20:56Z</time>
      </trkpt>
      <trkpt lat="44.59254" lon="3.89304">
        <ele>1162.85</ele>
        <time>2021-07-21T07:21:00Z</time>
      </trkpt>
      <trkpt lat="44.59254" lon="3.893">
        <ele>1163.33</ele>
        <time>2021-07-21T07:21:03Z</time>
      </trkpt>
      <trkpt lat="44.59251" lon="3.89284">
        <ele>1163.81</ele>
        <time>2021-07-21T07:21:12Z</time>
      </trkpt>
      <trkpt lat="44.59251" lon="3.8927">
        <ele>1164.29</ele>
        <time>2021-07-21T07:21:28Z</time>
      </trkpt>
      <trkpt lat="44.5925" lon="3.89269">
        <ele>1164.29</ele>
        <time>2021-07-21T07:21:42Z</time>
      </trkpt>
      <trkpt lat="44.5925" lon="3.89268">
        <ele>1164.29</ele>
        <time>2021-07-21T07:22:02Z</time>
      </trkpt>
      <trkpt lat="44.5925" lon="3.89267">
        <ele>1160.93</ele>
        <time>2021-07-21T07:22:42Z</time>
      </trkpt>
      <trkpt lat="44.59248" lon="3.89269">
        <ele>1162.37</ele>
        <time>2021-07-21T07:23:13Z</time>
      </trkpt>
      <trkpt lat="44.59251" lon="3.89265">
        <ele>1165.26</ele>
        <time>2021-07-21T07:23:41Z</time>
      </trkpt>
      <trkpt lat="44.59254" lon="3.89249">
        <ele>1166.7</ele>
        <time>2021-07-21T07:23:55Z</time>
      </trkpt>
      <trkpt lat="44.59257" lon="3.89212">
        <ele>1168.62</ele>
        <time>2021-07-21T07:24:15Z</time>
      </trkpt>
      <trkpt lat="44.59256" lon="3.89203">
        <ele>1169.58</ele>
        <time>2021-07-21T07:24:20Z</time>
      </trkpt>
      <trkpt lat="44.59255" lon="3.89185">
        <ele>1171.5</ele>
        <time>2021-07-21T07:24:35Z</time>
      </trkpt>
      <trkpt lat="44.59254" lon="3.89184">
        <ele>1171.5</ele>
        <time>2021-07-21T07:24:46Z</time>
      </trkpt>
      <trkpt lat="44.59254" lon="3.89174">
        <ele>1170.54</ele>
        <time>2021-07-21T07:24:54Z</time>
      </trkpt>
      <trkpt lat="44.59249" lon="3.89156">
        <ele>1169.58</ele>
        <time>2021-07-21T07:25:06Z</time>
      </trkpt>
      <trkpt lat="44.59248" lon="3.89154">
        <ele>1169.58</ele>
        <time>2021-07-21T07:25:07Z</time>
      </trkpt>
      <trkpt lat="44.59239" lon="3.89135">
        <ele>1171.5</ele>
        <time>2021-07-21T07:25:20Z</time>
      </trkpt>
      <trkpt lat="44.59234" lon="3.89125">
        <ele>1173.43</ele>
        <time>2021-07-21T07:25:31Z</time>
      </trkpt>
      <trkpt lat="44.59234" lon="3.89124">
        <ele>1172.47</ele>
        <time>2021-07-21T07:25:52Z</time>
      </trkpt>
      <trkpt lat="44.59233" lon="3.89122">
        <ele>1172.47</ele>
        <time>2021-07-21T07:25:57Z</time>
      </trkpt>
      <trkpt lat="44.59223" lon="3.89104">
        <ele>1174.87</ele>
        <time>2021-07-21T07:26:10Z</time>
      </trkpt>
      <trkpt lat="44.59208" lon="3.89085">
        <ele>1177.27</ele>
        <time>2021-07-21T07:26:25Z</time>
      </trkpt>
      <trkpt lat="44.59199" lon="3.89071">
        <ele>1178.23</ele>
        <time>2021-07-21T07:26:34Z</time>
      </trkpt>
      <trkpt lat="44.59194" lon="3.89062">
        <ele>1178.23</ele>
        <time>2021-07-21T07:26:40Z</time>
      </trkpt>
      <trkpt lat="44.59191" lon="3.89058">
        <ele>1178.71</ele>
        <time>2021-07-21T07:26:43Z</time>
      </trkpt>
      <trkpt lat="44.59178" lon="3.89038">
        <ele>1182.08</ele>
        <time>2021-07-21T07:26:59Z</time>
      </trkpt>
      <trkpt lat="44.59175" lon="3.89035">
        <ele>1182.08</ele>
        <time>2021-07-21T07:27:02Z</time>
      </trkpt>
      <trkpt lat="44.59167" lon="3.89021">
        <ele>1184</ele>
        <time>2021-07-21T07:27:11Z</time>
      </trkpt>
      <trkpt lat="44.59164" lon="3.8902">
        <ele>1184</ele>
        <time>2021-07-21T07:27:13Z</time>
      </trkpt>
      <trkpt lat="44.59158" lon="3.89013">
        <ele>1184</ele>
        <time>2021-07-21T07:27:19Z</time>
      </trkpt>
      <trkpt lat="44.59147" lon="3.89003">
        <ele>1186.88</ele>
        <time>2021-07-21T07:27:29Z</time>
      </trkpt>
      <trkpt lat="44.59141" lon="3.88999">
        <ele>1188.81</ele>
        <time>2021-07-21T07:27:34Z</time>
      </trkpt>
      <trkpt lat="44.5913" lon="3.88989">
        <ele>1193.13</ele>
        <time>2021-07-21T07:27:45Z</time>
      </trkpt>
      <trkpt lat="44.59128" lon="3.88986">
        <ele>1193.61</ele>
        <time>2021-07-21T07:27:48Z</time>
      </trkpt>
      <trkpt lat="44.59114" lon="3.88973">
        <ele>1193.13</ele>
        <time>2021-07-21T07:28:03Z</time>
      </trkpt>
      <trkpt lat="44.59103" lon="3.88965">
        <ele>1194.58</ele>
        <time>2021-07-21T07:28:15Z</time>
      </trkpt>
      <trkpt lat="44.59098" lon="3.88962">
        <ele>1194.58</ele>
        <time>2021-07-21T07:28:20Z</time>
      </trkpt>
      <trkpt lat="44.59093" lon="3.88959">
        <ele>1195.54</ele>
        <time>2021-07-21T07:28:25Z</time>
      </trkpt>
      <trkpt lat="44.59083" lon="3.88953">
        <ele>1196.5</ele>
        <time>2021-07-21T07:28:34Z</time>
      </trkpt>
      <trkpt lat="44.59068" lon="3.88946">
        <ele>1197.46</ele>
        <time>2021-07-21T07:28:47Z</time>
      </trkpt>
      <trkpt lat="44.59061" lon="3.88943">
        <ele>1199.86</ele>
        <time>2021-07-21T07:28:53Z</time>
      </trkpt>
      <trkpt lat="44.59044" lon="3.88933">
        <ele>1202.27</ele>
        <time>2021-07-21T07:29:08Z</time>
      </trkpt>
      <trkpt lat="44.59028" lon="3.8892">
        <ele>1204.19</ele>
        <time>2021-07-21T07:29:25Z</time>
      </trkpt>
      <trkpt lat="44.59023" lon="3.88913">
        <ele>1203.71</ele>
        <time>2021-07-21T07:29:32Z</time>
      </trkpt>
      <trkpt lat="44.59014" lon="3.88895">
        <ele>1204.19</ele>
        <time>2021-07-21T07:29:45Z</time>
      </trkpt>
      <trkpt lat="44.59009" lon="3.88887">
        <ele>1205.15</ele>
        <time>2021-07-21T07:29:51Z</time>
      </trkpt>
      <trkpt lat="44.59006" lon="3.88882">
        <ele>1206.59</ele>
        <time>2021-07-21T07:30:07Z</time>
      </trkpt>
      <trkpt lat="44.59007" lon="3.88884">
        <ele>1207.55</ele>
        <time>2021-07-21T07:30:34Z</time>
      </trkpt>
      <trkpt lat="44.59006" lon="3.88885">
        <ele>1209</ele>
        <time>2021-07-21T07:31:08Z</time>
      </trkpt>
      <trkpt lat="44.59006" lon="3.88883">
        <ele>1209.48</ele>
        <time>2021-07-21T07:31:29Z</time>
      </trkpt>
      <trkpt lat="44.59003" lon="3.88874">
        <ele>1210.44</ele>
        <time>2021-07-21T07:31:36Z</time>
      </trkpt>
      <trkpt lat="44.59001" lon="3.88869">
        <ele>1210.92</ele>
        <time>2021-07-21T07:31:39Z</time>
      </trkpt>
      <trkpt lat="44.58999" lon="3.88862">
        <ele>1212.36</ele>
        <time>2021-07-21T07:31:43Z</time>
      </trkpt>
      <trkpt lat="44.58992" lon="3.88829">
        <ele>1212.84</ele>
        <time>2021-07-21T07:31:59Z</time>
      </trkpt>
      <trkpt lat="44.58991" lon="3.88799">
        <ele>1212.84</ele>
        <time>2021-07-21T07:32:15Z</time>
      </trkpt>
      <trkpt lat="44.58992" lon="3.88773">
        <ele>1210.92</ele>
        <time>2021-07-21T07:32:29Z</time>
      </trkpt>
      <trkpt lat="44.58988" lon="3.88746">
        <ele>1214.28</ele>
        <time>2021-07-21T07:32:43Z</time>
      </trkpt>
      <trkpt lat="44.58987" lon="3.88743">
        <ele>1214.76</ele>
        <time>2021-07-21T07:32:45Z</time>
      </trkpt>
      <trkpt lat="44.58986" lon="3.88734">
        <ele>1216.69</ele>
        <time>2021-07-21T07:32:50Z</time>
      </trkpt>
      <trkpt lat="44.58983" lon="3.88707">
        <ele>1217.65</ele>
        <time>2021-07-21T07:33:06Z</time>
      </trkpt>
      <trkpt lat="44.58983" lon="3.88705">
        <ele>1217.65</ele>
        <time>2021-07-21T07:33:07Z</time>
      </trkpt>
      <trkpt lat="44.5898" lon="3.88686">
        <ele>1219.09</ele>
        <time>2021-07-21T07:33:18Z</time>
      </trkpt>
      <trkpt lat="44.58979" lon="3.88681">
        <ele>1220.05</ele>
        <time>2021-07-21T07:33:21Z</time>
      </trkpt>
      <trkpt lat="44.58976" lon="3.88669">
        <ele>1221.97</ele>
        <time>2021-07-21T07:33:29Z</time>
      </trkpt>
      <trkpt lat="44.58975" lon="3.88666">
        <ele>1222.93</ele>
        <time>2021-07-21T07:33:31Z</time>
      </trkpt>
      <trkpt lat="44.58975" lon="3.88663">
        <ele>1222.93</ele>
        <time>2021-07-21T07:33:33Z</time>
      </trkpt>
      <trkpt lat="44.58975" lon="3.88639">
        <ele>1224.38</ele>
        <time>2021-07-21T07:33:48Z</time>
      </trkpt>
      <trkpt lat="44.58974" lon="3.88637">
        <ele>1224.38</ele>
        <time>2021-07-21T07:33:49Z</time>
      </trkpt>
      <trkpt lat="44.58968" lon="3.88619">
        <ele>1229.18</ele>
        <time>2021-07-21T07:34:01Z</time>
      </trkpt>
      <trkpt lat="44.58966" lon="3.88617">
        <ele>1229.66</ele>
        <time>2021-07-21T07:34:14Z</time>
      </trkpt>
      <trkpt lat="44.58965" lon="3.88619">
        <ele>1229.66</ele>
        <time>2021-07-21T07:34:43Z</time>
      </trkpt>
      <trkpt lat="44.58964" lon="3.88618">
        <ele>1230.14</ele>
        <time>2021-07-21T07:35:22Z</time>
      </trkpt>
      <trkpt lat="44.58963" lon="3.88617">
        <ele>1231.59</ele>
        <time>2021-07-21T07:35:57Z</time>
      </trkpt>
      <trkpt lat="44.58964" lon="3.88619">
        <ele>1233.03</ele>
        <time>2021-07-21T07:36:37Z</time>
      </trkpt>
      <trkpt lat="44.58965" lon="3.8862">
        <ele>1233.03</ele>
        <time>2021-07-21T07:37:08Z</time>
      </trkpt>
      <trkpt lat="44.58966" lon="3.88619">
        <ele>1231.59</ele>
        <time>2021-07-21T07:37:47Z</time>
      </trkpt>
      <trkpt lat="44.58966" lon="3.88618">
        <ele>1232.07</ele>
        <time>2021-07-21T07:38:27Z</time>
      </trkpt>
      <trkpt lat="44.58966" lon="3.88618">
        <ele>1232.07</ele>
        <time>2021-07-21T07:39:00Z</time>
      </trkpt>
      <trkpt lat="44.58966" lon="3.88616">
        <ele>1232.07</ele>
        <time>2021-07-21T07:39:38Z</time>
      </trkpt>
      <trkpt lat="44.58965" lon="3.88618">
        <ele>1233.03</ele>
        <time>2021-07-21T07:40:14Z</time>
      </trkpt>
      <trkpt lat="44.58964" lon="3.88617">
        <ele>1233.03</ele>
        <time>2021-07-21T07:40:46Z</time>
      </trkpt>
      <trkpt lat="44.58964" lon="3.88617">
        <ele>1233.99</ele>
        <time>2021-07-21T07:41:03Z</time>
      </trkpt>
      <trkpt lat="44.58963" lon="3.88612">
        <ele>1234.47</ele>
        <time>2021-07-21T07:41:08Z</time>
      </trkpt>
      <trkpt lat="44.58962" lon="3.88603">
        <ele>1234.47</ele>
        <time>2021-07-21T07:41:13Z</time>
      </trkpt>
      <trkpt lat="44.58952" lon="3.88583">
        <ele>1235.91</ele>
        <time>2021-07-21T07:41:26Z</time>
      </trkpt>
      <trkpt lat="44.58948" lon="3.88577">
        <ele>1235.91</ele>
        <time>2021-07-21T07:41:30Z</time>
      </trkpt>
      <trkpt lat="44.58934" lon="3.88561">
        <ele>1235.91</ele>
        <time>2021-07-21T07:41:45Z</time>
      </trkpt>
      <trkpt lat="44.5893" lon="3.8856">
        <ele>1236.39</ele>
        <time>2021-07-21T07:41:49Z</time>
      </trkpt>
      <trkpt lat="44.58914" lon="3.88564">
        <ele>1238.8</ele>
        <time>2021-07-21T07:42:03Z</time>
      </trkpt>
      <trkpt lat="44.589" lon="3.88576">
        <ele>1240.72</ele>
        <time>2021-07-21T07:42:17Z</time>
      </trkpt>
      <trkpt lat="44.58882" lon="3.8859">
        <ele>1243.6</ele>
        <time>2021-07-21T07:42:33Z</time>
      </trkpt>
      <trkpt lat="44.58877" lon="3.88593">
        <ele>1245.53</ele>
        <time>2021-07-21T07:42:37Z</time>
      </trkpt>
      <trkpt lat="44.58869" lon="3.88599">
        <ele>1248.89</ele>
        <time>2021-07-21T07:42:45Z</time>
      </trkpt>
      <trkpt lat="44.58865" lon="3.88603">
        <ele>1251.29</ele>
        <time>2021-07-21T07:42:49Z</time>
      </trkpt>
      <trkpt lat="44.58861" lon="3.88605">
        <ele>1253.22</ele>
        <time>2021-07-21T07:42:53Z</time>
      </trkpt>
      <trkpt lat="44.5885" lon="3.88612">
        <ele>1257.54</ele>
        <time>2021-07-21T07:43:04Z</time>
      </trkpt>
      <trkpt lat="44.58833" lon="3.88619">
        <ele>1261.39</ele>
        <time>2021-07-21T07:43:18Z</time>
      </trkpt>
      <trkpt lat="44.58811" lon="3.88624">
        <ele>1261.39</ele>
        <time>2021-07-21T07:43:34Z</time>
      </trkpt>
      <trkpt lat="44.58781" lon="3.88612">
        <ele>1253.7</ele>
        <time>2021-07-21T07:43:51Z</time>
      </trkpt>
      <trkpt lat="44.58778" lon="3.8861">
        <ele>1254.18</ele>
        <time>2021-07-21T07:43:53Z</time>
      </trkpt>
      <trkpt lat="44.58768" lon="3.88599">
        <ele>1253.22</ele>
        <time>2021-07-21T07:44:02Z</time>
      </trkpt>
      <trkpt lat="44.58754" lon="3.88577">
        <ele>1254.18</ele>
        <time>2021-07-21T07:44:18Z</time>
      </trkpt>
      <trkpt lat="44.58745" lon="3.88566">
        <ele>1255.62</ele>
        <time>2021-07-21T07:44:29Z</time>
      </trkpt>
      <trkpt lat="44.58736" lon="3.88551">
        <ele>1255.14</ele>
        <time>2021-07-21T07:44:43Z</time>
      </trkpt>
      <trkpt lat="44.58731" lon="3.88541">
        <ele>1253.7</ele>
        <time>2021-07-21T07:44:52Z</time>
      </trkpt>
      <trkpt lat="44.58717" lon="3.88524">
        <ele>1257.06</ele>
        <time>2021-07-21T07:45:07Z</time>
      </trkpt>
      <trkpt lat="44.5871" lon="3.88512">
        <ele>1257.54</ele>
        <time>2021-07-21T07:45:21Z</time>
      </trkpt>
      <trkpt lat="44.58697" lon="3.88493">
        <ele>1260.91</ele>
        <time>2021-07-21T07:45:35Z</time>
      </trkpt>
      <trkpt lat="44.58696" lon="3.88491">
        <ele>1260.91</ele>
        <time>2021-07-21T07:45:36Z</time>
      </trkpt>
      <trkpt lat="44.58691" lon="3.88485">
        <ele>1261.39</ele>
        <time>2021-07-21T07:45:42Z</time>
      </trkpt>
      <trkpt lat="44.58686" lon="3.88479">
        <ele>1262.35</ele>
        <time>2021-07-21T07:45:48Z</time>
      </trkpt>
      <trkpt lat="44.58681" lon="3.88477">
        <ele>1262.83</ele>
        <time>2021-07-21T07:45:53Z</time>
      </trkpt>
      <trkpt lat="44.58666" lon="3.88485">
        <ele>1266.19</ele>
        <time>2021-07-21T07:46:06Z</time>
      </trkpt>
      <trkpt lat="44.58649" lon="3.88496">
        <ele>1270.04</ele>
        <time>2021-07-21T07:46:20Z</time>
      </trkpt>
      <trkpt lat="44.58638" lon="3.88499">
        <ele>1271</ele>
        <time>2021-07-21T07:46:27Z</time>
      </trkpt>
      <trkpt lat="44.58616" lon="3.88497">
        <ele>1272.92</ele>
        <time>2021-07-21T07:46:41Z</time>
      </trkpt>
      <trkpt lat="44.58615" lon="3.88496">
        <ele>1272.92</ele>
        <time>2021-07-21T07:46:42Z</time>
      </trkpt>
      <trkpt lat="44.58588" lon="3.8848">
        <ele>1274.85</ele>
        <time>2021-07-21T07:47:01Z</time>
      </trkpt>
      <trkpt lat="44.58566" lon="3.88467">
        <ele>1276.77</ele>
        <time>2021-07-21T07:47:16Z</time>
      </trkpt>
      <trkpt lat="44.58547" lon="3.88447">
        <ele>1277.25</ele>
        <time>2021-07-21T07:47:31Z</time>
      </trkpt>
      <trkpt lat="44.58544" lon="3.88443">
        <ele>1276.77</ele>
        <time>2021-07-21T07:47:44Z</time>
      </trkpt>
      <trkpt lat="44.58545" lon="3.88443">
        <ele>1277.25</ele>
        <time>2021-07-21T07:48:11Z</time>
      </trkpt>
      <trkpt lat="44.58545" lon="3.88443">
        <ele>1277.73</ele>
        <time>2021-07-21T07:48:39Z</time>
      </trkpt>
      <trkpt lat="44.58544" lon="3.88443">
        <ele>1277.25</ele>
        <time>2021-07-21T07:49:10Z</time>
      </trkpt>
      <trkpt lat="44.58543" lon="3.88444">
        <ele>1276.77</ele>
        <time>2021-07-21T07:49:43Z</time>
      </trkpt>
      <trkpt lat="44.58544" lon="3.88443">
        <ele>1276.77</ele>
        <time>2021-07-21T07:50:16Z</time>
      </trkpt>
      <trkpt lat="44.58544" lon="3.88444">
        <ele>1276.77</ele>
        <time>2021-07-21T07:50:44Z</time>
      </trkpt>
      <trkpt lat="44.58544" lon="3.88443">
        <ele>1277.25</ele>
        <time>2021-07-21T07:51:10Z</time>
      </trkpt>
      <trkpt lat="44.58543" lon="3.8844">
        <ele>1277.25</ele>
        <time>2021-07-21T07:51:15Z</time>
      </trkpt>
      <trkpt lat="44.58539" lon="3.88425">
        <ele>1278.69</ele>
        <time>2021-07-21T07:51:23Z</time>
      </trkpt>
      <trkpt lat="44.58536" lon="3.88383">
        <ele>1280.61</ele>
        <time>2021-07-21T07:51:41Z</time>
      </trkpt>
      <trkpt lat="44.58535" lon="3.88353">
        <ele>1282.54</ele>
        <time>2021-07-21T07:51:54Z</time>
      </trkpt>
      <trkpt lat="44.58532" lon="3.88322">
        <ele>1283.5</ele>
        <time>2021-07-21T07:52:08Z</time>
      </trkpt>
      <trkpt lat="44.58526" lon="3.88277">
        <ele>1285.9</ele>
        <time>2021-07-21T07:52:28Z</time>
      </trkpt>
      <trkpt lat="44.58516" lon="3.88235">
        <ele>1288.3</ele>
        <time>2021-07-21T07:52:47Z</time>
      </trkpt>
      <trkpt lat="44.585" lon="3.88208">
        <ele>1290.71</ele>
        <time>2021-07-21T07:53:02Z</time>
      </trkpt>
      <trkpt lat="44.58475" lon="3.88183">
        <ele>1291.19</ele>
        <time>2021-07-21T07:53:20Z</time>
      </trkpt>
      <trkpt lat="44.58453" lon="3.88163">
        <ele>1293.59</ele>
        <time>2021-07-21T07:53:35Z</time>
      </trkpt>
      <trkpt lat="44.58428" lon="3.88143">
        <ele>1295.51</ele>
        <time>2021-07-21T07:53:51Z</time>
      </trkpt>
      <trkpt lat="44.58401" lon="3.88121">
        <ele>1297.44</ele>
        <time>2021-07-21T07:54:08Z</time>
      </trkpt>
      <trkpt lat="44.58374" lon="3.88094">
        <ele>1297.92</ele>
        <time>2021-07-21T07:54:27Z</time>
      </trkpt>
      <trkpt lat="44.58357" lon="3.8807">
        <ele>1298.88</ele>
        <time>2021-07-21T07:54:41Z</time>
      </trkpt>
      <trkpt lat="44.58347" lon="3.88039">
        <ele>1301.76</ele>
        <time>2021-07-21T07:54:57Z</time>
      </trkpt>
      <trkpt lat="44.58345" lon="3.88003">
        <ele>1303.69</ele>
        <time>2021-07-21T07:55:12Z</time>
      </trkpt>
      <trkpt lat="44.58345" lon="3.87994">
        <ele>1304.65</ele>
        <time>2021-07-21T07:55:16Z</time>
      </trkpt>
      <trkpt lat="44.58347" lon="3.87987">
        <ele>1305.61</ele>
        <time>2021-07-21T07:55:30Z</time>
      </trkpt>
      <trkpt lat="44.58346" lon="3.87987">
        <ele>1305.13</ele>
        <time>2021-07-21T07:55:49Z</time>
      </trkpt>
      <trkpt lat="44.58347" lon="3.87987">
        <ele>1305.13</ele>
        <time>2021-07-21T07:56:09Z</time>
      </trkpt>
      <trkpt lat="44.58347" lon="3.87986">
        <ele>1305.13</ele>
        <time>2021-07-21T07:56:33Z</time>
      </trkpt>
      <trkpt lat="44.58341" lon="3.87983">
        <ele>1305.61</ele>
        <time>2021-07-21T07:56:45Z</time>
      </trkpt>
      <trkpt lat="44.58341" lon="3.87982">
        <ele>1306.09</ele>
        <time>2021-07-21T07:56:59Z</time>
      </trkpt>
      <trkpt lat="44.58342" lon="3.87984">
        <ele>1307.05</ele>
        <time>2021-07-21T07:57:32Z</time>
      </trkpt>
      <trkpt lat="44.58341" lon="3.87983">
        <ele>1307.05</ele>
        <time>2021-07-21T07:57:57Z</time>
      </trkpt>
      <trkpt lat="44.58347" lon="3.87983">
        <ele>1306.57</ele>
        <time>2021-07-21T07:58:13Z</time>
      </trkpt>
      <trkpt lat="44.58362" lon="3.87976">
        <ele>1306.57</ele>
        <time>2021-07-21T07:58:28Z</time>
      </trkpt>
      <trkpt lat="44.58364" lon="3.87976">
        <ele>1306.57</ele>
        <time>2021-07-21T07:58:29Z</time>
      </trkpt>
      <trkpt lat="44.58389" lon="3.8797">
        <ele>1306.57</ele>
        <time>2021-07-21T07:58:44Z</time>
      </trkpt>
      <trkpt lat="44.58421" lon="3.87952">
        <ele>1308.01</ele>
        <time>2021-07-21T07:58:58Z</time>
      </trkpt>
      <trkpt lat="44.5846" lon="3.87922">
        <ele>1310.9</ele>
        <time>2021-07-21T07:59:17Z</time>
      </trkpt>
      <trkpt lat="44.58483" lon="3.87897">
        <ele>1310.9</ele>
        <time>2021-07-21T07:59:32Z</time>
      </trkpt>
      <trkpt lat="44.58516" lon="3.87862">
        <ele>1313.78</ele>
        <time>2021-07-21T07:59:48Z</time>
      </trkpt>
      <trkpt lat="44.58548" lon="3.87826">
        <ele>1313.78</ele>
        <time>2021-07-21T08:00:02Z</time>
      </trkpt>
      <trkpt lat="44.58561" lon="3.87769">
        <ele>1312.82</ele>
        <time>2021-07-21T08:00:14Z</time>
      </trkpt>
      <trkpt lat="44.58572" lon="3.87691">
        <ele>1312.34</ele>
        <time>2021-07-21T08:00:29Z</time>
      </trkpt>
      <trkpt lat="44.58589" lon="3.87613">
        <ele>1313.3</ele>
        <time>2021-07-21T08:00:46Z</time>
      </trkpt>
      <trkpt lat="44.58603" lon="3.87537">
        <ele>1314.74</ele>
        <time>2021-07-21T08:01:03Z</time>
      </trkpt>
      <trkpt lat="44.58617" lon="3.87469">
        <ele>1315.22</ele>
        <time>2021-07-21T08:01:18Z</time>
      </trkpt>
      <trkpt lat="44.5863" lon="3.87393">
        <ele>1314.26</ele>
        <time>2021-07-21T08:01:34Z</time>
      </trkpt>
      <trkpt lat="44.58634" lon="3.87284">
        <ele>1311.86</ele>
        <time>2021-07-21T08:01:51Z</time>
      </trkpt>
      <trkpt lat="44.58626" lon="3.87179">
        <ele>1313.3</ele>
        <time>2021-07-21T08:02:07Z</time>
      </trkpt>
      <trkpt lat="44.58615" lon="3.87098">
        <ele>1313.3</ele>
        <time>2021-07-21T08:02:21Z</time>
      </trkpt>
      <trkpt lat="44.58596" lon="3.87029">
        <ele>1311.86</ele>
        <time>2021-07-21T08:02:33Z</time>
      </trkpt>
      <trkpt lat="44.58589" lon="3.86999">
        <ele>1312.34</ele>
        <time>2021-07-21T08:02:38Z</time>
      </trkpt>
      <trkpt lat="44.5858" lon="3.86951">
        <ele>1312.34</ele>
        <time>2021-07-21T08:02:48Z</time>
      </trkpt>
      <trkpt lat="44.58575" lon="3.86929">
        <ele>1312.34</ele>
        <time>2021-07-21T08:02:53Z</time>
      </trkpt>
      <trkpt lat="44.58572" lon="3.86918">
        <ele>1312.34</ele>
        <time>2021-07-21T08:02:55Z</time>
      </trkpt>
      <trkpt lat="44.58553" lon="3.86875">
        <ele>1311.38</ele>
        <time>2021-07-21T08:03:03Z</time>
      </trkpt>
      <trkpt lat="44.58546" lon="3.86856">
        <ele>1310.9</ele>
        <time>2021-07-21T08:03:06Z</time>
      </trkpt>
      <trkpt lat="44.58514" lon="3.8675">
        <ele>1312.82</ele>
        <time>2021-07-21T08:03:22Z</time>
      </trkpt>
      <trkpt lat="44.58509" lon="3.86729">
        <ele>1312.82</ele>
        <time>2021-07-21T08:03:25Z</time>
      </trkpt>
      <trkpt lat="44.58487" lon="3.86645">
        <ele>1311.86</ele>
        <time>2021-07-21T08:03:39Z</time>
      </trkpt>
      <trkpt lat="44.58491" lon="3.86599">
        <ele>1310.41</ele>
        <time>2021-07-21T08:03:47Z</time>
      </trkpt>
      <trkpt lat="44.58495" lon="3.86587">
        <ele>1310.41</ele>
        <time>2021-07-21T08:03:49Z</time>
      </trkpt>
      <trkpt lat="44.58506" lon="3.86546">
        <ele>1309.93</ele>
        <time>2021-07-21T08:03:56Z</time>
      </trkpt>
      <trkpt lat="44.5851" lon="3.86524">
        <ele>1309.93</ele>
        <time>2021-07-21T08:04:00Z</time>
      </trkpt>
      <trkpt lat="44.58527" lon="3.86469">
        <ele>1309.45</ele>
        <time>2021-07-21T08:04:11Z</time>
      </trkpt>
      <trkpt lat="44.5854" lon="3.86407">
        <ele>1308.97</ele>
        <time>2021-07-21T08:04:24Z</time>
      </trkpt>
      <trkpt lat="44.58536" lon="3.86362">
        <ele>1308.01</ele>
        <time>2021-07-21T08:04:35Z</time>
      </trkpt>
      <trkpt lat="44.58535" lon="3.86326">
        <ele>1309.93</ele>
        <time>2021-07-21T08:04:47Z</time>
      </trkpt>
      <trkpt lat="44.58536" lon="3.86287">
        <ele>1311.86</ele>
        <time>2021-07-21T08:04:59Z</time>
      </trkpt>
      <trkpt lat="44.58537" lon="3.86274">
        <ele>1312.82</ele>
        <time>2021-07-21T08:05:03Z</time>
      </trkpt>
      <trkpt lat="44.58539" lon="3.86229">
        <ele>1313.3</ele>
        <time>2021-07-21T08:05:16Z</time>
      </trkpt>
      <trkpt lat="44.58531" lon="3.86181">
        <ele>1314.74</ele>
        <time>2021-07-21T08:05:29Z</time>
      </trkpt>
      <trkpt lat="44.5853" lon="3.86173">
        <ele>1314.74</ele>
        <time>2021-07-21T08:05:31Z</time>
      </trkpt>
      <trkpt lat="44.58526" lon="3.86156">
        <ele>1315.22</ele>
        <time>2021-07-21T08:05:34Z</time>
      </trkpt>
      <trkpt lat="44.58514" lon="3.86125">
        <ele>1314.74</ele>
        <time>2021-07-21T08:05:39Z</time>
      </trkpt>
      <trkpt lat="44.58482" lon="3.86054">
        <ele>1312.34</ele>
        <time>2021-07-21T08:05:49Z</time>
      </trkpt>
      <trkpt lat="44.58476" lon="3.86036">
        <ele>1310.9</ele>
        <time>2021-07-21T08:05:52Z</time>
      </trkpt>
      <trkpt lat="44.58463" lon="3.86011">
        <ele>1310.41</ele>
        <time>2021-07-21T08:05:57Z</time>
      </trkpt>
      <trkpt lat="44.58449" lon="3.85984">
        <ele>1308.49</ele>
        <time>2021-07-21T08:06:02Z</time>
      </trkpt>
      <trkpt lat="44.5844" lon="3.85958">
        <ele>1304.65</ele>
        <time>2021-07-21T08:06:06Z</time>
      </trkpt>
      <trkpt lat="44.58435" lon="3.8593">
        <ele>1301.28</ele>
        <time>2021-07-21T08:06:11Z</time>
      </trkpt>
      <trkpt lat="44.58419" lon="3.85861">
        <ele>1295.99</ele>
        <time>2021-07-21T08:06:22Z</time>
      </trkpt>
      <trkpt lat="44.5841" lon="3.85833">
        <ele>1294.55</ele>
        <time>2021-07-21T08:06:26Z</time>
      </trkpt>
      <trkpt lat="44.58393" lon="3.85795">
        <ele>1294.55</ele>
        <time>2021-07-21T08:06:32Z</time>
      </trkpt>
      <trkpt lat="44.58382" lon="3.85771">
        <ele>1294.55</ele>
        <time>2021-07-21T08:06:36Z</time>
      </trkpt>
      <trkpt lat="44.58355" lon="3.85723">
        <ele>1294.07</ele>
        <time>2021-07-21T08:06:47Z</time>
      </trkpt>
      <trkpt lat="44.58352" lon="3.85723">
        <ele>1293.59</ele>
        <time>2021-07-21T08:06:57Z</time>
      </trkpt>
      <trkpt lat="44.5835" lon="3.85723">
        <ele>1292.63</ele>
        <time>2021-07-21T08:07:16Z</time>
      </trkpt>
      <trkpt lat="44.58347" lon="3.85716">
        <ele>1292.15</ele>
        <time>2021-07-21T08:07:30Z</time>
      </trkpt>
      <trkpt lat="44.58348" lon="3.85716">
        <ele>1290.23</ele>
        <time>2021-07-21T08:07:49Z</time>
      </trkpt>
      <trkpt lat="44.58347" lon="3.85717">
        <ele>1290.23</ele>
        <time>2021-07-21T08:08:30Z</time>
      </trkpt>
      <trkpt lat="44.58347" lon="3.85717">
        <ele>1289.75</ele>
        <time>2021-07-21T08:09:11Z</time>
      </trkpt>
      <trkpt lat="44.58347" lon="3.85716">
        <ele>1289.27</ele>
        <time>2021-07-21T08:09:48Z</time>
      </trkpt>
      <trkpt lat="44.58347" lon="3.85715">
        <ele>1289.27</ele>
        <time>2021-07-21T08:09:56Z</time>
      </trkpt>
      <trkpt lat="44.58325" lon="3.85707">
        <ele>1289.75</ele>
        <time>2021-07-21T08:10:08Z</time>
      </trkpt>
      <trkpt lat="44.58296" lon="3.85684">
        <ele>1291.19</ele>
        <time>2021-07-21T08:10:19Z</time>
      </trkpt>
      <trkpt lat="44.5827" lon="3.85661">
        <ele>1292.15</ele>
        <time>2021-07-21T08:10:31Z</time>
      </trkpt>
      <trkpt lat="44.58241" lon="3.85633">
        <ele>1293.11</ele>
        <time>2021-07-21T08:10:43Z</time>
      </trkpt>
      <trkpt lat="44.58221" lon="3.85596">
        <ele>1295.03</ele>
        <time>2021-07-21T08:10:57Z</time>
      </trkpt>
      <trkpt lat="44.58204" lon="3.85562">
        <ele>1296.96</ele>
        <time>2021-07-21T08:11:09Z</time>
      </trkpt>
      <trkpt lat="44.58186" lon="3.85523">
        <ele>1301.76</ele>
        <time>2021-07-21T08:11:22Z</time>
      </trkpt>
      <trkpt lat="44.58175" lon="3.85485">
        <ele>1302.24</ele>
        <time>2021-07-21T08:11:33Z</time>
      </trkpt>
      <trkpt lat="44.58161" lon="3.85449">
        <ele>1304.65</ele>
        <time>2021-07-21T08:11:44Z</time>
      </trkpt>
      <trkpt lat="44.58142" lon="3.85414">
        <ele>1304.17</ele>
        <time>2021-07-21T08:11:56Z</time>
      </trkpt>
      <trkpt lat="44.58128" lon="3.85379">
        <ele>1303.69</ele>
        <time>2021-07-21T08:12:07Z</time>
      </trkpt>
      <trkpt lat="44.58112" lon="3.85343">
        <ele>1305.61</ele>
        <time>2021-07-21T08:12:19Z</time>
      </trkpt>
      <trkpt lat="44.58091" lon="3.853">
        <ele>1306.57</ele>
        <time>2021-07-21T08:12:33Z</time>
      </trkpt>
      <trkpt lat="44.58087" lon="3.85295">
        <ele>1307.05</ele>
        <time>2021-07-21T08:12:35Z</time>
      </trkpt>
      <trkpt lat="44.5807" lon="3.85251">
        <ele>1306.09</ele>
        <time>2021-07-21T08:12:47Z</time>
      </trkpt>
      <trkpt lat="44.58052" lon="3.852">
        <ele>1308.01</ele>
        <time>2021-07-21T08:13:00Z</time>
      </trkpt>
      <trkpt lat="44.58039" lon="3.85154">
        <ele>1308.49</ele>
        <time>2021-07-21T08:13:11Z</time>
      </trkpt>
      <trkpt lat="44.5803" lon="3.85105">
        <ele>1309.45</ele>
        <time>2021-07-21T08:13:22Z</time>
      </trkpt>
      <trkpt lat="44.58021" lon="3.8506">
        <ele>1309.93</ele>
        <time>2021-07-21T08:13:34Z</time>
      </trkpt>
      <trkpt lat="44.5802" lon="3.85061">
        <ele>1308.97</ele>
        <time>2021-07-21T08:13:50Z</time>
      </trkpt>
      <trkpt lat="44.5802" lon="3.85062">
        <ele>1308.97</ele>
        <time>2021-07-21T08:13:51Z</time>
      </trkpt>
      <trkpt lat="44.58025" lon="3.85092">
        <ele>1306.09</ele>
        <time>2021-07-21T08:14:05Z</time>
      </trkpt>
      <trkpt lat="44.58026" lon="3.8509">
        <ele>1306.09</ele>
        <time>2021-07-21T08:14:16Z</time>
      </trkpt>
      <trkpt lat="44.58026" lon="3.85089">
        <ele>1306.09</ele>
        <time>2021-07-21T08:14:22Z</time>
      </trkpt>
      <trkpt lat="44.58024" lon="3.85082">
        <ele>1306.57</ele>
        <time>2021-07-21T08:14:26Z</time>
      </trkpt>
      <trkpt lat="44.58017" lon="3.8504">
        <ele>1308.01</ele>
        <time>2021-07-21T08:14:38Z</time>
      </trkpt>
      <trkpt lat="44.58011" lon="3.85021">
        <ele>1309.45</ele>
        <time>2021-07-21T08:14:45Z</time>
      </trkpt>
      <trkpt lat="44.58003" lon="3.84969">
        <ele>1310.9</ele>
        <time>2021-07-21T08:14:57Z</time>
      </trkpt>
      <trkpt lat="44.58002" lon="3.84901">
        <ele>1308.01</ele>
        <time>2021-07-21T08:15:11Z</time>
      </trkpt>
      <trkpt lat="44.57986" lon="3.84844">
        <ele>1307.05</ele>
        <time>2021-07-21T08:15:24Z</time>
      </trkpt>
      <trkpt lat="44.57959" lon="3.8481">
        <ele>1308.01</ele>
        <time>2021-07-21T08:15:35Z</time>
      </trkpt>
      <trkpt lat="44.57928" lon="3.84791">
        <ele>1307.05</ele>
        <time>2021-07-21T08:15:47Z</time>
      </trkpt>
      <trkpt lat="44.57913" lon="3.84803">
        <ele>1306.57</ele>
        <time>2021-07-21T08:15:56Z</time>
      </trkpt>
      <trkpt lat="44.57901" lon="3.84813">
        <ele>1305.13</ele>
        <time>2021-07-21T08:16:11Z</time>
      </trkpt>
      <trkpt lat="44.57885" lon="3.84821">
        <ele>1304.65</ele>
        <time>2021-07-21T08:16:14Z</time>
      </trkpt>
      <trkpt lat="44.57866" lon="3.84834">
        <ele>1302.24</ele>
        <time>2021-07-21T08:16:17Z</time>
      </trkpt>
      <trkpt lat="44.5781" lon="3.84855">
        <ele>1298.88</ele>
        <time>2021-07-21T08:16:24Z</time>
      </trkpt>
      <trkpt lat="44.57712" lon="3.84881">
        <ele>1289.27</ele>
        <time>2021-07-21T08:16:34Z</time>
      </trkpt>
      <trkpt lat="44.57669" lon="3.84891">
        <ele>1283.98</ele>
        <time>2021-07-21T08:16:39Z</time>
      </trkpt>
      <trkpt lat="44.57636" lon="3.84894">
        <ele>1279.65</ele>
        <time>2021-07-21T08:16:43Z</time>
      </trkpt>
      <trkpt lat="44.57545" lon="3.84919">
        <ele>1269.08</ele>
        <time>2021-07-21T08:16:53Z</time>
      </trkpt>
      <trkpt lat="44.57536" lon="3.84924">
        <ele>1268.12</ele>
        <time>2021-07-21T08:16:54Z</time>
      </trkpt>
      <trkpt lat="44.57431" lon="3.8496">
        <ele>1257.54</ele>
        <time>2021-07-21T08:17:05Z</time>
      </trkpt>
      <trkpt lat="44.57319" lon="3.84966">
        <ele>1245.04</ele>
        <time>2021-07-21T08:17:16Z</time>
      </trkpt>
      <trkpt lat="44.57235" lon="3.84901">
        <ele>1235.91</ele>
        <time>2021-07-21T08:17:26Z</time>
      </trkpt>
      <trkpt lat="44.57181" lon="3.84833">
        <ele>1227.74</ele>
        <time>2021-07-21T08:17:33Z</time>
      </trkpt>
      <trkpt lat="44.57101" lon="3.8476">
        <ele>1215.72</ele>
        <time>2021-07-21T08:17:44Z</time>
      </trkpt>
      <trkpt lat="44.57013" lon="3.84742">
        <ele>1203.23</ele>
        <time>2021-07-21T08:17:55Z</time>
      </trkpt>
      <trkpt lat="44.56928" lon="3.84696">
        <ele>1192.17</ele>
        <time>2021-07-21T08:18:05Z</time>
      </trkpt>
      <trkpt lat="44.56918" lon="3.8469">
        <ele>1191.21</ele>
        <time>2021-07-21T08:18:06Z</time>
      </trkpt>
      <trkpt lat="44.56847" lon="3.84657">
        <ele>1183.52</ele>
        <time>2021-07-21T08:18:14Z</time>
      </trkpt>
      <trkpt lat="44.56819" lon="3.84651">
        <ele>1180.64</ele>
        <time>2021-07-21T08:18:17Z</time>
      </trkpt>
      <trkpt lat="44.56726" lon="3.84665">
        <ele>1171.98</ele>
        <time>2021-07-21T08:18:28Z</time>
      </trkpt>
      <trkpt lat="44.56711" lon="3.84673">
        <ele>1170.54</ele>
        <time>2021-07-21T08:18:30Z</time>
      </trkpt>
      <trkpt lat="44.56683" lon="3.847">
        <ele>1167.66</ele>
        <time>2021-07-21T08:18:34Z</time>
      </trkpt>
      <trkpt lat="44.56628" lon="3.84775">
        <ele>1162.37</ele>
        <time>2021-07-21T08:18:44Z</time>
      </trkpt>
      <trkpt lat="44.56606" lon="3.8481">
        <ele>1160.45</ele>
        <time>2021-07-21T08:18:48Z</time>
      </trkpt>
      <trkpt lat="44.56567" lon="3.84846">
        <ele>1155.64</ele>
        <time>2021-07-21T08:18:53Z</time>
      </trkpt>
      <trkpt lat="44.5653" lon="3.84908">
        <ele>1150.35</ele>
        <time>2021-07-21T08:18:59Z</time>
      </trkpt>
      <trkpt lat="44.56519" lon="3.84952">
        <ele>1148.43</ele>
        <time>2021-07-21T08:19:03Z</time>
      </trkpt>
      <trkpt lat="44.5653" lon="3.85025">
        <ele>1146.99</ele>
        <time>2021-07-21T08:19:10Z</time>
      </trkpt>
      <trkpt lat="44.5655" lon="3.8508">
        <ele>1145.55</ele>
        <time>2021-07-21T08:19:15Z</time>
      </trkpt>
      <trkpt lat="44.56571" lon="3.85218">
        <ele>1143.63</ele>
        <time>2021-07-21T08:19:28Z</time>
      </trkpt>
      <trkpt lat="44.56569" lon="3.85276">
        <ele>1142.66</ele>
        <time>2021-07-21T08:19:37Z</time>
      </trkpt>
      <trkpt lat="44.56566" lon="3.85311">
        <ele>1141.7</ele>
        <time>2021-07-21T08:19:43Z</time>
      </trkpt>
      <trkpt lat="44.56546" lon="3.85291">
        <ele>1138.34</ele>
        <time>2021-07-21T08:19:50Z</time>
      </trkpt>
      <trkpt lat="44.56545" lon="3.85283">
        <ele>1138.34</ele>
        <time>2021-07-21T08:19:51Z</time>
      </trkpt>
      <trkpt lat="44.56539" lon="3.85215">
        <ele>1134.01</ele>
        <time>2021-07-21T08:19:58Z</time>
      </trkpt>
      <trkpt lat="44.56528" lon="3.85172">
        <ele>1131.61</ele>
        <time>2021-07-21T08:20:02Z</time>
      </trkpt>
      <trkpt lat="44.56502" lon="3.85118">
        <ele>1128.73</ele>
        <time>2021-07-21T08:20:07Z</time>
      </trkpt>
      <trkpt lat="44.56471" lon="3.85081">
        <ele>1126.32</ele>
        <time>2021-07-21T08:20:11Z</time>
      </trkpt>
      <trkpt lat="44.5642" lon="3.85056">
        <ele>1122.96</ele>
        <time>2021-07-21T08:20:16Z</time>
      </trkpt>
      <trkpt lat="44.56378" lon="3.8504">
        <ele>1120.55</ele>
        <time>2021-07-21T08:20:21Z</time>
      </trkpt>
      <trkpt lat="44.56366" lon="3.8504">
        <ele>1121.52</ele>
        <time>2021-07-21T08:20:30Z</time>
      </trkpt>
      <trkpt lat="44.56352" lon="3.85042">
        <ele>1123.44</ele>
        <time>2021-07-21T08:20:42Z</time>
      </trkpt>
      <trkpt lat="44.56348" lon="3.85041">
        <ele>1124.4</ele>
        <time>2021-07-21T08:20:54Z</time>
      </trkpt>
      <trkpt lat="44.56349" lon="3.8504">
        <ele>1124.88</ele>
        <time>2021-07-21T08:21:18Z</time>
      </trkpt>
      <trkpt lat="44.56349" lon="3.85041">
        <ele>1125.84</ele>
        <time>2021-07-21T08:21:42Z</time>
      </trkpt>
      <trkpt lat="44.56349" lon="3.85042">
        <ele>1126.32</ele>
        <time>2021-07-21T08:22:18Z</time>
      </trkpt>
      <trkpt lat="44.56349" lon="3.85042">
        <ele>1127.76</ele>
        <time>2021-07-21T08:22:55Z</time>
      </trkpt>
      <trkpt lat="44.56349" lon="3.85043">
        <ele>1126.8</ele>
        <time>2021-07-21T08:23:28Z</time>
      </trkpt>
      <trkpt lat="44.56349" lon="3.85043">
        <ele>1126.8</ele>
        <time>2021-07-21T08:24:02Z</time>
      </trkpt>
      <trkpt lat="44.5635" lon="3.85042">
        <ele>1127.76</ele>
        <time>2021-07-21T08:24:29Z</time>
      </trkpt>
      <trkpt lat="44.56349" lon="3.85043">
        <ele>1129.69</ele>
        <time>2021-07-21T08:25:01Z</time>
      </trkpt>
      <trkpt lat="44.56349" lon="3.85043">
        <ele>1129.69</ele>
        <time>2021-07-21T08:25:17Z</time>
      </trkpt>
      <trkpt lat="44.56349" lon="3.85043">
        <ele>1129.69</ele>
        <time>2021-07-21T08:25:34Z</time>
      </trkpt>
      <trkpt lat="44.56337" lon="3.85043">
        <ele>1129.69</ele>
        <time>2021-07-21T08:25:47Z</time>
      </trkpt>
      <trkpt lat="44.56318" lon="3.85033">
        <ele>1130.65</ele>
        <time>2021-07-21T08:26:01Z</time>
      </trkpt>
      <trkpt lat="44.56301" lon="3.85007">
        <ele>1133.05</ele>
        <time>2021-07-21T08:26:17Z</time>
      </trkpt>
      <trkpt lat="44.56287" lon="3.84988">
        <ele>1137.38</ele>
        <time>2021-07-21T08:26:31Z</time>
      </trkpt>
      <trkpt lat="44.5627" lon="3.84973">
        <ele>1140.74</ele>
        <time>2021-07-21T08:26:46Z</time>
      </trkpt>
      <trkpt lat="44.5625" lon="3.84961">
        <ele>1142.18</ele>
        <time>2021-07-21T08:27:01Z</time>
      </trkpt>
      <trkpt lat="44.56243" lon="3.84956">
        <ele>1142.18</ele>
        <time>2021-07-21T08:27:12Z</time>
      </trkpt>
      <trkpt lat="44.56236" lon="3.84952">
        <ele>1141.7</ele>
        <time>2021-07-21T08:27:31Z</time>
      </trkpt>
      <trkpt lat="44.56195" lon="3.84937">
        <ele>1134.97</ele>
        <time>2021-07-21T08:27:44Z</time>
      </trkpt>
      <trkpt lat="44.56176" lon="3.84915">
        <ele>1133.05</ele>
        <time>2021-07-21T08:27:54Z</time>
      </trkpt>
      <trkpt lat="44.56156" lon="3.84896">
        <ele>1135.45</ele>
        <time>2021-07-21T08:28:06Z</time>
      </trkpt>
      <trkpt lat="44.56128" lon="3.84874">
        <ele>1135.94</ele>
        <time>2021-07-21T08:28:22Z</time>
      </trkpt>
      <trkpt lat="44.56109" lon="3.84862">
        <ele>1136.42</ele>
        <time>2021-07-21T08:28:33Z</time>
      </trkpt>
      <trkpt lat="44.56087" lon="3.84847">
        <ele>1137.86</ele>
        <time>2021-07-21T08:28:48Z</time>
      </trkpt>
      <trkpt lat="44.56075" lon="3.84837">
        <ele>1137.38</ele>
        <time>2021-07-21T08:28:56Z</time>
      </trkpt>
      <trkpt lat="44.5607" lon="3.84829">
        <ele>1137.86</ele>
        <time>2021-07-21T08:29:01Z</time>
      </trkpt>
      <trkpt lat="44.56061" lon="3.84808">
        <ele>1140.26</ele>
        <time>2021-07-21T08:29:15Z</time>
      </trkpt>
      <trkpt lat="44.56052" lon="3.84786">
        <ele>1141.7</ele>
        <time>2021-07-21T08:29:29Z</time>
      </trkpt>
      <trkpt lat="44.5604" lon="3.84769">
        <ele>1142.66</ele>
        <time>2021-07-21T08:29:43Z</time>
      </trkpt>
      <trkpt lat="44.56037" lon="3.84766">
        <ele>1143.14</ele>
        <time>2021-07-21T08:29:46Z</time>
      </trkpt>
      <trkpt lat="44.56025" lon="3.84754">
        <ele>1146.03</ele>
        <time>2021-07-21T08:30:00Z</time>
      </trkpt>
      <trkpt lat="44.56024" lon="3.84752">
        <ele>1146.03</ele>
        <time>2021-07-21T08:30:02Z</time>
      </trkpt>
      <trkpt lat="44.56009" lon="3.84739">
        <ele>1146.03</ele>
        <time>2021-07-21T08:30:15Z</time>
      </trkpt>
      <trkpt lat="44.56002" lon="3.84734">
        <ele>1146.51</ele>
        <time>2021-07-21T08:30:22Z</time>
      </trkpt>
      <trkpt lat="44.55998" lon="3.84732">
        <ele>1146.03</ele>
        <time>2021-07-21T08:30:25Z</time>
      </trkpt>
      <trkpt lat="44.55981" lon="3.84722">
        <ele>1147.47</ele>
        <time>2021-07-21T08:30:40Z</time>
      </trkpt>
      <trkpt lat="44.55961" lon="3.84714">
        <ele>1148.91</ele>
        <time>2021-07-21T08:30:55Z</time>
      </trkpt>
      <trkpt lat="44.55939" lon="3.84708">
        <ele>1152.28</ele>
        <time>2021-07-21T08:31:12Z</time>
      </trkpt>
      <trkpt lat="44.55921" lon="3.8471">
        <ele>1153.24</ele>
        <time>2021-07-21T08:31:25Z</time>
      </trkpt>
      <trkpt lat="44.55918" lon="3.8471">
        <ele>1153.72</ele>
        <time>2021-07-21T08:31:27Z</time>
      </trkpt>
      <trkpt lat="44.55916" lon="3.8471">
        <ele>1154.2</ele>
        <time>2021-07-21T08:31:29Z</time>
      </trkpt>
      <trkpt lat="44.55898" lon="3.8471">
        <ele>1158.05</ele>
        <time>2021-07-21T08:31:45Z</time>
      </trkpt>
      <trkpt lat="44.55882" lon="3.84708">
        <ele>1159.01</ele>
        <time>2021-07-21T08:31:59Z</time>
      </trkpt>
      <trkpt lat="44.55875" lon="3.84708">
        <ele>1159.49</ele>
        <time>2021-07-21T08:32:13Z</time>
      </trkpt>
      <trkpt lat="44.5587" lon="3.84707">
        <ele>1160.45</ele>
        <time>2021-07-21T08:32:23Z</time>
      </trkpt>
      <trkpt lat="44.55861" lon="3.84705">
        <ele>1161.41</ele>
        <time>2021-07-21T08:32:29Z</time>
      </trkpt>
      <trkpt lat="44.55852" lon="3.84702">
        <ele>1161.89</ele>
        <time>2021-07-21T08:32:36Z</time>
      </trkpt>
      <trkpt lat="44.55834" lon="3.84696">
        <ele>1161.89</ele>
        <time>2021-07-21T08:32:50Z</time>
      </trkpt>
      <trkpt lat="44.55822" lon="3.84688">
        <ele>1162.37</ele>
        <time>2021-07-21T08:33:03Z</time>
      </trkpt>
      <trkpt lat="44.55814" lon="3.84683">
        <ele>1163.81</ele>
        <time>2021-07-21T08:33:16Z</time>
      </trkpt>
      <trkpt lat="44.55803" lon="3.84673">
        <ele>1163.33</ele>
        <time>2021-07-21T08:33:31Z</time>
      </trkpt>
      <trkpt lat="44.5579" lon="3.84664">
        <ele>1164.29</ele>
        <time>2021-07-21T08:33:46Z</time>
      </trkpt>
      <trkpt lat="44.5578" lon="3.84656">
        <ele>1166.7</ele>
        <time>2021-07-21T08:34:00Z</time>
      </trkpt>
      <trkpt lat="44.55766" lon="3.84639">
        <ele>1167.66</ele>
        <time>2021-07-21T08:34:18Z</time>
      </trkpt>
      <trkpt lat="44.55757" lon="3.84627">
        <ele>1167.66</ele>
        <time>2021-07-21T08:34:34Z</time>
      </trkpt>
      <trkpt lat="44.55756" lon="3.84624">
        <ele>1167.66</ele>
        <time>2021-07-21T08:34:49Z</time>
      </trkpt>
      <trkpt lat="44.55755" lon="3.84623">
        <ele>1166.7</ele>
        <time>2021-07-21T08:35:14Z</time>
      </trkpt>
      <trkpt lat="44.55754" lon="3.84622">
        <ele>1166.22</ele>
        <time>2021-07-21T08:35:47Z</time>
      </trkpt>
      <trkpt lat="44.55755" lon="3.84622">
        <ele>1165.74</ele>
        <time>2021-07-21T08:36:22Z</time>
      </trkpt>
      <trkpt lat="44.55754" lon="3.84622">
        <ele>1166.22</ele>
        <time>2021-07-21T08:37:03Z</time>
      </trkpt>
      <trkpt lat="44.55753" lon="3.84622">
        <ele>1166.22</ele>
        <time>2021-07-21T08:37:16Z</time>
      </trkpt>
      <trkpt lat="44.55752" lon="3.84621">
        <ele>1167.18</ele>
        <time>2021-07-21T08:37:43Z</time>
      </trkpt>
      <trkpt lat="44.55752" lon="3.84621">
        <ele>1167.18</ele>
        <time>2021-07-21T08:37:48Z</time>
      </trkpt>
      <trkpt lat="44.5575" lon="3.84617">
        <ele>1167.66</ele>
        <time>2021-07-21T08:37:51Z</time>
      </trkpt>
      <trkpt lat="44.55744" lon="3.84606">
        <ele>1169.1</ele>
        <time>2021-07-21T08:37:59Z</time>
      </trkpt>
      <trkpt lat="44.55727" lon="3.84579">
        <ele>1170.54</ele>
        <time>2021-07-21T08:38:12Z</time>
      </trkpt>
      <trkpt lat="44.55709" lon="3.8453">
        <ele>1169.58</ele>
        <time>2021-07-21T08:38:27Z</time>
      </trkpt>
      <trkpt lat="44.55703" lon="3.84474">
        <ele>1168.14</ele>
        <time>2021-07-21T08:38:40Z</time>
      </trkpt>
      <trkpt lat="44.557" lon="3.84405">
        <ele>1168.14</ele>
        <time>2021-07-21T08:38:54Z</time>
      </trkpt>
      <trkpt lat="44.55694" lon="3.84344">
        <ele>1167.18</ele>
        <time>2021-07-21T08:39:06Z</time>
      </trkpt>
      <trkpt lat="44.55682" lon="3.8427">
        <ele>1166.7</ele>
        <time>2021-07-21T08:39:22Z</time>
      </trkpt>
      <trkpt lat="44.55671" lon="3.84212">
        <ele>1168.62</ele>
        <time>2021-07-21T08:39:35Z</time>
      </trkpt>
      <trkpt lat="44.55669" lon="3.8416">
        <ele>1170.54</ele>
        <time>2021-07-21T08:39:48Z</time>
      </trkpt>
      <trkpt lat="44.55666" lon="3.84108">
        <ele>1176.79</ele>
        <time>2021-07-21T08:40:03Z</time>
      </trkpt>
      <trkpt lat="44.55668" lon="3.84065">
        <ele>1178.23</ele>
        <time>2021-07-21T08:40:17Z</time>
      </trkpt>
      <trkpt lat="44.55665" lon="3.84018">
        <ele>1180.16</ele>
        <time>2021-07-21T08:40:32Z</time>
      </trkpt>
      <trkpt lat="44.55659" lon="3.83978">
        <ele>1180.64</ele>
        <time>2021-07-21T08:40:44Z</time>
      </trkpt>
      <trkpt lat="44.55646" lon="3.8393">
        <ele>1178.23</ele>
        <time>2021-07-21T08:40:56Z</time>
      </trkpt>
      <trkpt lat="44.55627" lon="3.83882">
        <ele>1177.27</ele>
        <time>2021-07-21T08:41:10Z</time>
      </trkpt>
      <trkpt lat="44.55618" lon="3.83841">
        <ele>1177.75</ele>
        <time>2021-07-21T08:41:23Z</time>
      </trkpt>
      <trkpt lat="44.55615" lon="3.83799">
        <ele>1179.67</ele>
        <time>2021-07-21T08:41:37Z</time>
      </trkpt>
      <trkpt lat="44.55613" lon="3.8379">
        <ele>1180.64</ele>
        <time>2021-07-21T08:41:41Z</time>
      </trkpt>
      <trkpt lat="44.55604" lon="3.83785">
        <ele>1179.19</ele>
        <time>2021-07-21T08:41:47Z</time>
      </trkpt>
      <trkpt lat="44.55564" lon="3.83831">
        <ele>1177.27</ele>
        <time>2021-07-21T08:42:04Z</time>
      </trkpt>
      <trkpt lat="44.55511" lon="3.83891">
        <ele>1175.83</ele>
        <time>2021-07-21T08:42:21Z</time>
      </trkpt>
      <trkpt lat="44.5546" lon="3.83932">
        <ele>1175.35</ele>
        <time>2021-07-21T08:42:37Z</time>
      </trkpt>
      <trkpt lat="44.55451" lon="3.83938">
        <ele>1175.83</ele>
        <time>2021-07-21T08:42:42Z</time>
      </trkpt>
      <trkpt lat="44.55444" lon="3.83929">
        <ele>1176.31</ele>
        <time>2021-07-21T08:42:46Z</time>
      </trkpt>
      <trkpt lat="44.55417" lon="3.83857">
        <ele>1175.35</ele>
        <time>2021-07-21T08:43:00Z</time>
      </trkpt>
      <trkpt lat="44.55399" lon="3.83809">
        <ele>1175.83</ele>
        <time>2021-07-21T08:43:08Z</time>
      </trkpt>
      <trkpt lat="44.55374" lon="3.83744">
        <ele>1176.79</ele>
        <time>2021-07-21T08:43:20Z</time>
      </trkpt>
      <trkpt lat="44.55347" lon="3.83676">
        <ele>1176.79</ele>
        <time>2021-07-21T08:43:33Z</time>
      </trkpt>
      <trkpt lat="44.55334" lon="3.83645">
        <ele>1177.75</ele>
        <time>2021-07-21T08:43:39Z</time>
      </trkpt>
      <trkpt lat="44.55321" lon="3.83607">
        <ele>1178.23</ele>
        <time>2021-07-21T08:43:45Z</time>
      </trkpt>
      <trkpt lat="44.55314" lon="3.83586">
        <ele>1178.71</ele>
        <time>2021-07-21T08:43:49Z</time>
      </trkpt>
      <trkpt lat="44.55301" lon="3.83551">
        <ele>1178.23</ele>
        <time>2021-07-21T08:43:56Z</time>
      </trkpt>
      <trkpt lat="44.55272" lon="3.83513">
        <ele>1175.35</ele>
        <time>2021-07-21T08:44:02Z</time>
      </trkpt>
      <trkpt lat="44.5526" lon="3.83504">
        <ele>1174.39</ele>
        <time>2021-07-21T08:44:04Z</time>
      </trkpt>
      <trkpt lat="44.55229" lon="3.83488">
        <ele>1171.98</ele>
        <time>2021-07-21T08:44:10Z</time>
      </trkpt>
      <trkpt lat="44.55186" lon="3.8343">
        <ele>1167.18</ele>
        <time>2021-07-21T08:44:20Z</time>
      </trkpt>
      <trkpt lat="44.55186" lon="3.83412">
        <ele>1166.7</ele>
        <time>2021-07-21T08:44:22Z</time>
      </trkpt>
      <trkpt lat="44.55186" lon="3.83396">
        <ele>1166.7</ele>
        <time>2021-07-21T08:44:24Z</time>
      </trkpt>
      <trkpt lat="44.55179" lon="3.83341">
        <ele>1164.77</ele>
        <time>2021-07-21T08:44:31Z</time>
      </trkpt>
      <trkpt lat="44.55165" lon="3.83308">
        <ele>1164.77</ele>
        <time>2021-07-21T08:44:37Z</time>
      </trkpt>
      <trkpt lat="44.5515" lon="3.83291">
        <ele>1164.29</ele>
        <time>2021-07-21T08:44:42Z</time>
      </trkpt>
      <trkpt lat="44.55134" lon="3.83281">
        <ele>1164.77</ele>
        <time>2021-07-21T08:44:46Z</time>
      </trkpt>
      <trkpt lat="44.55098" lon="3.83271">
        <ele>1164.29</ele>
        <time>2021-07-21T08:44:54Z</time>
      </trkpt>
      <trkpt lat="44.55029" lon="3.8324">
        <ele>1165.26</ele>
        <time>2021-07-21T08:45:13Z</time>
      </trkpt>
      <trkpt lat="44.54997" lon="3.83187">
        <ele>1166.22</ele>
        <time>2021-07-21T08:45:28Z</time>
      </trkpt>
      <trkpt lat="44.54989" lon="3.83108">
        <ele>1166.7</ele>
        <time>2021-07-21T08:45:45Z</time>
      </trkpt>
      <trkpt lat="44.54981" lon="3.8303">
        <ele>1168.62</ele>
        <time>2021-07-21T08:46:01Z</time>
      </trkpt>
      <trkpt lat="44.54979" lon="3.82965">
        <ele>1168.14</ele>
        <time>2021-07-21T08:46:14Z</time>
      </trkpt>
      <trkpt lat="44.54992" lon="3.82879">
        <ele>1166.7</ele>
        <time>2021-07-21T08:46:32Z</time>
      </trkpt>
      <trkpt lat="44.54993" lon="3.82874">
        <ele>1166.7</ele>
        <time>2021-07-21T08:46:33Z</time>
      </trkpt>
      <trkpt lat="44.54996" lon="3.82849">
        <ele>1165.74</ele>
        <time>2021-07-21T08:46:37Z</time>
      </trkpt>
      <trkpt lat="44.54996" lon="3.82826">
        <ele>1164.29</ele>
        <time>2021-07-21T08:46:41Z</time>
      </trkpt>
      <trkpt lat="44.55002" lon="3.82802">
        <ele>1163.33</ele>
        <time>2021-07-21T08:46:45Z</time>
      </trkpt>
      <trkpt lat="44.55023" lon="3.82773">
        <ele>1165.26</ele>
        <time>2021-07-21T08:46:57Z</time>
      </trkpt>
      <trkpt lat="44.5505" lon="3.82737">
        <ele>1167.18</ele>
        <time>2021-07-21T08:47:14Z</time>
      </trkpt>
      <trkpt lat="44.55072" lon="3.82681">
        <ele>1166.7</ele>
        <time>2021-07-21T08:47:30Z</time>
      </trkpt>
      <trkpt lat="44.55082" lon="3.8265">
        <ele>1166.22</ele>
        <time>2021-07-21T08:47:40Z</time>
      </trkpt>
      <trkpt lat="44.55084" lon="3.82641">
        <ele>1166.22</ele>
        <time>2021-07-21T08:47:50Z</time>
      </trkpt>
      <trkpt lat="44.55083" lon="3.82659">
        <ele>1165.26</ele>
        <time>2021-07-21T08:48:04Z</time>
      </trkpt>
      <trkpt lat="44.55083" lon="3.82659">
        <ele>1165.26</ele>
        <time>2021-07-21T08:48:21Z</time>
      </trkpt>
      <trkpt lat="44.55082" lon="3.82658">
        <ele>1164.77</ele>
        <time>2021-07-21T08:48:55Z</time>
      </trkpt>
      <trkpt lat="44.55081" lon="3.82658">
        <ele>1164.77</ele>
        <time>2021-07-21T08:49:26Z</time>
      </trkpt>
      <trkpt lat="44.55082" lon="3.82658">
        <ele>1164.77</ele>
        <time>2021-07-21T08:50:00Z</time>
      </trkpt>
      <trkpt lat="44.55081" lon="3.82656">
        <ele>1165.26</ele>
        <time>2021-07-21T08:50:30Z</time>
      </trkpt>
      <trkpt lat="44.5508" lon="3.82656">
        <ele>1164.77</ele>
        <time>2021-07-21T08:51:01Z</time>
      </trkpt>
      <trkpt lat="44.55079" lon="3.82655">
        <ele>1165.26</ele>
        <time>2021-07-21T08:51:28Z</time>
      </trkpt>
      <trkpt lat="44.55079" lon="3.82655">
        <ele>1166.22</ele>
        <time>2021-07-21T08:52:01Z</time>
      </trkpt>
      <trkpt lat="44.55079" lon="3.82654">
        <ele>1167.18</ele>
        <time>2021-07-21T08:52:18Z</time>
      </trkpt>
      <trkpt lat="44.55079" lon="3.82654">
        <ele>1167.18</ele>
        <time>2021-07-21T08:52:22Z</time>
      </trkpt>
      <trkpt lat="44.55085" lon="3.82632">
        <ele>1167.18</ele>
        <time>2021-07-21T08:52:32Z</time>
      </trkpt>
      <trkpt lat="44.55087" lon="3.82587">
        <ele>1168.14</ele>
        <time>2021-07-21T08:52:47Z</time>
      </trkpt>
      <trkpt lat="44.55076" lon="3.82569">
        <ele>1168.14</ele>
        <time>2021-07-21T08:52:56Z</time>
      </trkpt>
      <trkpt lat="44.55085" lon="3.82561">
        <ele>1169.1</ele>
        <time>2021-07-21T08:53:05Z</time>
      </trkpt>
      <trkpt lat="44.55088" lon="3.82556">
        <ele>1169.1</ele>
        <time>2021-07-21T08:53:09Z</time>
      </trkpt>
      <trkpt lat="44.55085" lon="3.82553">
        <ele>1170.06</ele>
        <time>2021-07-21T08:53:20Z</time>
      </trkpt>
      <trkpt lat="44.55085" lon="3.82554">
        <ele>1170.06</ele>
        <time>2021-07-21T08:53:34Z</time>
      </trkpt>
      <trkpt lat="44.5509" lon="3.82558">
        <ele>1170.54</ele>
        <time>2021-07-21T08:53:38Z</time>
      </trkpt>
      <trkpt lat="44.55112" lon="3.82558">
        <ele>1167.66</ele>
        <time>2021-07-21T08:53:53Z</time>
      </trkpt>
      <trkpt lat="44.55118" lon="3.82558">
        <ele>1167.66</ele>
        <time>2021-07-21T08:53:57Z</time>
      </trkpt>
      <trkpt lat="44.55114" lon="3.82537">
        <ele>1173.43</ele>
        <time>2021-07-21T08:54:11Z</time>
      </trkpt>
      <trkpt lat="44.55113" lon="3.82531">
        <ele>1173.91</ele>
        <time>2021-07-21T08:54:14Z</time>
      </trkpt>
      <trkpt lat="44.55121" lon="3.82504">
        <ele>1177.27</ele>
        <time>2021-07-21T08:54:32Z</time>
      </trkpt>
      <trkpt lat="44.55122" lon="3.82503">
        <ele>1177.27</ele>
        <time>2021-07-21T08:54:33Z</time>
      </trkpt>
      <trkpt lat="44.55121" lon="3.82493">
        <ele>1176.31</ele>
        <time>2021-07-21T08:54:39Z</time>
      </trkpt>
      <trkpt lat="44.55122" lon="3.82468">
        <ele>1178.23</ele>
        <time>2021-07-21T08:54:55Z</time>
      </trkpt>
      <trkpt lat="44.5512" lon="3.82446">
        <ele>1179.19</ele>
        <time>2021-07-21T08:55:07Z</time>
      </trkpt>
      <trkpt lat="44.55117" lon="3.82435">
        <ele>1179.19</ele>
        <time>2021-07-21T08:55:13Z</time>
      </trkpt>
      <trkpt lat="44.55107" lon="3.82405">
        <ele>1181.12</ele>
        <time>2021-07-21T08:55:27Z</time>
      </trkpt>
      <trkpt lat="44.55104" lon="3.82361">
        <ele>1184</ele>
        <time>2021-07-21T08:55:42Z</time>
      </trkpt>
      <trkpt lat="44.55099" lon="3.82314">
        <ele>1184</ele>
        <time>2021-07-21T08:55:57Z</time>
      </trkpt>
      <trkpt lat="44.55092" lon="3.82254">
        <ele>1182.08</ele>
        <time>2021-07-21T08:56:12Z</time>
      </trkpt>
      <trkpt lat="44.55095" lon="3.82147">
        <ele>1175.35</ele>
        <time>2021-07-21T08:56:23Z</time>
      </trkpt>
      <trkpt lat="44.55098" lon="3.81999">
        <ele>1163.33</ele>
        <time>2021-07-21T08:56:32Z</time>
      </trkpt>
      <trkpt lat="44.5509" lon="3.81953">
        <ele>1159.97</ele>
        <time>2021-07-21T08:56:35Z</time>
      </trkpt>
      <trkpt lat="44.55067" lon="3.81903">
        <ele>1156.12</ele>
        <time>2021-07-21T08:56:39Z</time>
      </trkpt>
      <trkpt lat="44.54994" lon="3.81804">
        <ele>1144.59</ele>
        <time>2021-07-21T08:56:49Z</time>
      </trkpt>
      <trkpt lat="44.54957" lon="3.81757">
        <ele>1140.26</ele>
        <time>2021-07-21T08:56:57Z</time>
      </trkpt>
      <trkpt lat="44.54949" lon="3.81732">
        <ele>1138.34</ele>
        <time>2021-07-21T08:57:01Z</time>
      </trkpt>
      <trkpt lat="44.54941" lon="3.81644">
        <ele>1134.01</ele>
        <time>2021-07-21T08:57:11Z</time>
      </trkpt>
      <trkpt lat="44.54948" lon="3.81628">
        <ele>1132.57</ele>
        <time>2021-07-21T08:57:14Z</time>
      </trkpt>
      <trkpt lat="44.54939" lon="3.81607">
        <ele>1128.24</ele>
        <time>2021-07-21T08:57:20Z</time>
      </trkpt>
      <trkpt lat="44.5493" lon="3.81607">
        <ele>1126.8</ele>
        <time>2021-07-21T08:57:22Z</time>
      </trkpt>
      <trkpt lat="44.5492" lon="3.81594">
        <ele>1123.92</ele>
        <time>2021-07-21T08:57:26Z</time>
      </trkpt>
      <trkpt lat="44.54919" lon="3.81586">
        <ele>1122.48</ele>
        <time>2021-07-21T08:57:28Z</time>
      </trkpt>
      <trkpt lat="44.54948" lon="3.81564">
        <ele>1118.15</ele>
        <time>2021-07-21T08:57:39Z</time>
      </trkpt>
      <trkpt lat="44.54953" lon="3.81563">
        <ele>1118.15</ele>
        <time>2021-07-21T08:57:40Z</time>
      </trkpt>
      <trkpt lat="44.5498" lon="3.81559">
        <ele>1116.23</ele>
        <time>2021-07-21T08:57:45Z</time>
      </trkpt>
      <trkpt lat="44.54973" lon="3.81545">
        <ele>1113.82</ele>
        <time>2021-07-21T08:57:50Z</time>
      </trkpt>
      <trkpt lat="44.54944" lon="3.81536">
        <ele>1110.94</ele>
        <time>2021-07-21T08:57:55Z</time>
      </trkpt>
      <trkpt lat="44.5492" lon="3.81535">
        <ele>1108.06</ele>
        <time>2021-07-21T08:57:59Z</time>
      </trkpt>
      <trkpt lat="44.54903" lon="3.81517">
        <ele>1104.21</ele>
        <time>2021-07-21T08:58:04Z</time>
      </trkpt>
      <trkpt lat="44.54853" lon="3.81453">
        <ele>1096.52</ele>
        <time>2021-07-21T08:58:16Z</time>
      </trkpt>
      <trkpt lat="44.54824" lon="3.81465">
        <ele>1091.71</ele>
        <time>2021-07-21T08:58:25Z</time>
      </trkpt>
      <trkpt lat="44.54808" lon="3.81483">
        <ele>1089.79</ele>
        <time>2021-07-21T08:58:30Z</time>
      </trkpt>
      <trkpt lat="44.54791" lon="3.81514">
        <ele>1091.23</ele>
        <time>2021-07-21T08:58:39Z</time>
      </trkpt>
      <trkpt lat="44.54764" lon="3.81534">
        <ele>1095.56</ele>
        <time>2021-07-21T08:58:52Z</time>
      </trkpt>
      <trkpt lat="44.5474" lon="3.81539">
        <ele>1099.89</ele>
        <time>2021-07-21T08:59:07Z</time>
      </trkpt>
      <trkpt lat="44.54727" lon="3.8153">
        <ele>1101.33</ele>
        <time>2021-07-21T08:59:17Z</time>
      </trkpt>
      <trkpt lat="44.54698" lon="3.8152">
        <ele>1105.17</ele>
        <time>2021-07-21T08:59:36Z</time>
      </trkpt>
      <trkpt lat="44.54675" lon="3.81518">
        <ele>1105.65</ele>
        <time>2021-07-21T08:59:51Z</time>
      </trkpt>
      <trkpt lat="44.54661" lon="3.8152">
        <ele>1106.61</ele>
        <time>2021-07-21T09:00:02Z</time>
      </trkpt>
      <trkpt lat="44.54645" lon="3.81523">
        <ele>1109.5</ele>
        <time>2021-07-21T09:00:16Z</time>
      </trkpt>
      <trkpt lat="44.5464" lon="3.81525">
        <ele>1110.46</ele>
        <time>2021-07-21T09:00:21Z</time>
      </trkpt>
      <trkpt lat="44.54622" lon="3.81534">
        <ele>1112.86</ele>
        <time>2021-07-21T09:00:37Z</time>
      </trkpt>
      <trkpt lat="44.54608" lon="3.8154">
        <ele>1116.23</ele>
        <time>2021-07-21T09:00:52Z</time>
      </trkpt>
      <trkpt lat="44.54608" lon="3.8154">
        <ele>1115.75</ele>
        <time>2021-07-21T09:01:09Z</time>
      </trkpt>
      <trkpt lat="44.54608" lon="3.81541">
        <ele>1115.75</ele>
        <time>2021-07-21T09:01:24Z</time>
      </trkpt>
      <trkpt lat="44.54609" lon="3.81537">
        <ele>1115.75</ele>
        <time>2021-07-21T09:01:28Z</time>
      </trkpt>
      <trkpt lat="44.5462" lon="3.81525">
        <ele>1118.15</ele>
        <time>2021-07-21T09:01:45Z</time>
      </trkpt>
      <trkpt lat="44.54622" lon="3.81519">
        <ele>1119.11</ele>
        <time>2021-07-21T09:01:54Z</time>
      </trkpt>
      <trkpt lat="44.5462" lon="3.81515">
        <ele>1119.11</ele>
        <time>2021-07-21T09:02:08Z</time>
      </trkpt>
      <trkpt lat="44.5462" lon="3.81515">
        <ele>1119.11</ele>
        <time>2021-07-21T09:02:19Z</time>
      </trkpt>
      <trkpt lat="44.54616" lon="3.81514">
        <ele>1119.11</ele>
        <time>2021-07-21T09:02:34Z</time>
      </trkpt>
      <trkpt lat="44.54616" lon="3.81515">
        <ele>1118.63</ele>
        <time>2021-07-21T09:03:03Z</time>
      </trkpt>
      <trkpt lat="44.54614" lon="3.81514">
        <ele>1117.67</ele>
        <time>2021-07-21T09:03:20Z</time>
      </trkpt>
      <trkpt lat="44.54605" lon="3.8151">
        <ele>1120.07</ele>
        <time>2021-07-21T09:03:33Z</time>
      </trkpt>
      <trkpt lat="44.54602" lon="3.81507">
        <ele>1119.59</ele>
        <time>2021-07-21T09:03:37Z</time>
      </trkpt>
      <trkpt lat="44.54592" lon="3.81494">
        <ele>1120.55</ele>
        <time>2021-07-21T09:03:50Z</time>
      </trkpt>
      <trkpt lat="44.54579" lon="3.8148">
        <ele>1122.48</ele>
        <time>2021-07-21T09:04:05Z</time>
      </trkpt>
      <trkpt lat="44.54572" lon="3.81473">
        <ele>1122.96</ele>
        <time>2021-07-21T09:04:16Z</time>
      </trkpt>
      <trkpt lat="44.5456" lon="3.81462">
        <ele>1125.84</ele>
        <time>2021-07-21T09:04:30Z</time>
      </trkpt>
      <trkpt lat="44.54549" lon="3.81454">
        <ele>1127.76</ele>
        <time>2021-07-21T09:04:45Z</time>
      </trkpt>
      <trkpt lat="44.54539" lon="3.81448">
        <ele>1127.76</ele>
        <time>2021-07-21T09:04:58Z</time>
      </trkpt>
      <trkpt lat="44.54532" lon="3.81445">
        <ele>1129.69</ele>
        <time>2021-07-21T09:05:12Z</time>
      </trkpt>
      <trkpt lat="44.54524" lon="3.81441">
        <ele>1129.69</ele>
        <time>2021-07-21T09:05:29Z</time>
      </trkpt>
      <trkpt lat="44.54512" lon="3.81432">
        <ele>1131.13</ele>
        <time>2021-07-21T09:05:44Z</time>
      </trkpt>
      <trkpt lat="44.54509" lon="3.81427">
        <ele>1131.61</ele>
        <time>2021-07-21T09:05:51Z</time>
      </trkpt>
      <trkpt lat="44.54505" lon="3.81416">
        <ele>1131.61</ele>
        <time>2021-07-21T09:06:03Z</time>
      </trkpt>
      <trkpt lat="44.54501" lon="3.81403">
        <ele>1131.61</ele>
        <time>2021-07-21T09:06:15Z</time>
      </trkpt>
      <trkpt lat="44.5449" lon="3.81393">
        <ele>1133.05</ele>
        <time>2021-07-21T09:06:29Z</time>
      </trkpt>
      <trkpt lat="44.54484" lon="3.81387">
        <ele>1134.01</ele>
        <time>2021-07-21T09:06:43Z</time>
      </trkpt>
      <trkpt lat="44.54487" lon="3.81372">
        <ele>1134.49</ele>
        <time>2021-07-21T09:06:57Z</time>
      </trkpt>
      <trkpt lat="44.54491" lon="3.81362">
        <ele>1134.01</ele>
        <time>2021-07-21T09:07:12Z</time>
      </trkpt>
      <trkpt lat="44.54491" lon="3.81362">
        <ele>1133.05</ele>
        <time>2021-07-21T09:07:40Z</time>
      </trkpt>
      <trkpt lat="44.54492" lon="3.81362">
        <ele>1133.53</ele>
        <time>2021-07-21T09:08:12Z</time>
      </trkpt>
      <trkpt lat="44.54492" lon="3.81361">
        <ele>1133.53</ele>
        <time>2021-07-21T09:08:33Z</time>
      </trkpt>
      <trkpt lat="44.54493" lon="3.81357">
        <ele>1133.05</ele>
        <time>2021-07-21T09:08:46Z</time>
      </trkpt>
      <trkpt lat="44.54494" lon="3.8135">
        <ele>1133.05</ele>
        <time>2021-07-21T09:08:50Z</time>
      </trkpt>
      <trkpt lat="44.54506" lon="3.81314">
        <ele>1131.61</ele>
        <time>2021-07-21T09:09:06Z</time>
      </trkpt>
      <trkpt lat="44.54514" lon="3.81288">
        <ele>1129.21</ele>
        <time>2021-07-21T09:09:16Z</time>
      </trkpt>
      <trkpt lat="44.54513" lon="3.81287">
        <ele>1128.73</ele>
        <time>2021-07-21T09:09:33Z</time>
      </trkpt>
      <trkpt lat="44.54513" lon="3.81287">
        <ele>1129.21</ele>
        <time>2021-07-21T09:09:56Z</time>
      </trkpt>
      <trkpt lat="44.54513" lon="3.81288">
        <ele>1128.73</ele>
        <time>2021-07-21T09:10:30Z</time>
      </trkpt>
      <trkpt lat="44.54512" lon="3.81288">
        <ele>1128.24</ele>
        <time>2021-07-21T09:11:02Z</time>
      </trkpt>
      <trkpt lat="44.54512" lon="3.81288">
        <ele>1128.24</ele>
        <time>2021-07-21T09:11:32Z</time>
      </trkpt>
      <trkpt lat="44.54513" lon="3.81287">
        <ele>1128.24</ele>
        <time>2021-07-21T09:11:58Z</time>
      </trkpt>
      <trkpt lat="44.54513" lon="3.81286">
        <ele>1129.21</ele>
        <time>2021-07-21T09:12:25Z</time>
      </trkpt>
      <trkpt lat="44.54513" lon="3.81286">
        <ele>1129.69</ele>
        <time>2021-07-21T09:12:53Z</time>
      </trkpt>
      <trkpt lat="44.54513" lon="3.81287">
        <ele>1129.69</ele>
        <time>2021-07-21T09:13:22Z</time>
      </trkpt>
      <trkpt lat="44.54513" lon="3.81285">
        <ele>1130.17</ele>
        <time>2021-07-21T09:13:43Z</time>
      </trkpt>
      <trkpt lat="44.54513" lon="3.81286">
        <ele>1130.17</ele>
        <time>2021-07-21T09:14:11Z</time>
      </trkpt>
      <trkpt lat="44.5451" lon="3.81274">
        <ele>1129.69</ele>
        <time>2021-07-21T09:14:26Z</time>
      </trkpt>
      <trkpt lat="44.54497" lon="3.81234">
        <ele>1126.32</ele>
        <time>2021-07-21T09:14:35Z</time>
      </trkpt>
      <trkpt lat="44.54479" lon="3.81206">
        <ele>1123.44</ele>
        <time>2021-07-21T09:14:42Z</time>
      </trkpt>
      <trkpt lat="44.54461" lon="3.81174">
        <ele>1120.07</ele>
        <time>2021-07-21T09:14:48Z</time>
      </trkpt>
      <trkpt lat="44.54445" lon="3.81163">
        <ele>1117.67</ele>
        <time>2021-07-21T09:14:52Z</time>
      </trkpt>
      <trkpt lat="44.54419" lon="3.81156">
        <ele>1115.27</ele>
        <time>2021-07-21T09:14:56Z</time>
      </trkpt>
      <trkpt lat="44.54385" lon="3.81139">
        <ele>1113.34</ele>
        <time>2021-07-21T09:15:01Z</time>
      </trkpt>
      <trkpt lat="44.54375" lon="3.81105">
        <ele>1111.42</ele>
        <time>2021-07-21T09:15:09Z</time>
      </trkpt>
      <trkpt lat="44.54376" lon="3.81102">
        <ele>1111.42</ele>
        <time>2021-07-21T09:15:10Z</time>
      </trkpt>
      <trkpt lat="44.54395" lon="3.81078">
        <ele>1113.34</ele>
        <time>2021-07-21T09:15:24Z</time>
      </trkpt>
      <trkpt lat="44.54413" lon="3.81063">
        <ele>1115.27</ele>
        <time>2021-07-21T09:15:37Z</time>
      </trkpt>
      <trkpt lat="44.54426" lon="3.81051">
        <ele>1117.19</ele>
        <time>2021-07-21T09:15:50Z</time>
      </trkpt>
      <trkpt lat="44.54435" lon="3.81045">
        <ele>1117.67</ele>
        <time>2021-07-21T09:15:58Z</time>
      </trkpt>
      <trkpt lat="44.54439" lon="3.81042">
        <ele>1118.15</ele>
        <time>2021-07-21T09:16:03Z</time>
      </trkpt>
      <trkpt lat="44.54446" lon="3.81036">
        <ele>1119.11</ele>
        <time>2021-07-21T09:16:10Z</time>
      </trkpt>
      <trkpt lat="44.54448" lon="3.81033">
        <ele>1119.11</ele>
        <time>2021-07-21T09:16:13Z</time>
      </trkpt>
      <trkpt lat="44.54457" lon="3.81026">
        <ele>1120.55</ele>
        <time>2021-07-21T09:16:26Z</time>
      </trkpt>
      <trkpt lat="44.54464" lon="3.81021">
        <ele>1122.48</ele>
        <time>2021-07-21T09:16:41Z</time>
      </trkpt>
      <trkpt lat="44.54468" lon="3.81016">
        <ele>1123.92</ele>
        <time>2021-07-21T09:16:54Z</time>
      </trkpt>
      <trkpt lat="44.5448" lon="3.81006">
        <ele>1124.88</ele>
        <time>2021-07-21T09:17:09Z</time>
      </trkpt>
      <trkpt lat="44.54487" lon="3.80998">
        <ele>1126.8</ele>
        <time>2021-07-21T09:17:22Z</time>
      </trkpt>
      <trkpt lat="44.54491" lon="3.80994">
        <ele>1128.73</ele>
        <time>2021-07-21T09:17:36Z</time>
      </trkpt>
      <trkpt lat="44.54504" lon="3.80983">
        <ele>1130.65</ele>
        <time>2021-07-21T09:17:52Z</time>
      </trkpt>
      <trkpt lat="44.54508" lon="3.80977">
        <ele>1132.09</ele>
        <time>2021-07-21T09:17:59Z</time>
      </trkpt>
      <trkpt lat="44.54512" lon="3.80963">
        <ele>1133.05</ele>
        <time>2021-07-21T09:18:13Z</time>
      </trkpt>
      <trkpt lat="44.54514" lon="3.80947">
        <ele>1133.53</ele>
        <time>2021-07-21T09:18:29Z</time>
      </trkpt>
      <trkpt lat="44.54515" lon="3.80932">
        <ele>1134.97</ele>
        <time>2021-07-21T09:18:45Z</time>
      </trkpt>
      <trkpt lat="44.54514" lon="3.80906">
        <ele>1137.86</ele>
        <time>2021-07-21T09:19:01Z</time>
      </trkpt>
      <trkpt lat="44.54515" lon="3.80885">
        <ele>1138.82</ele>
        <time>2021-07-21T09:19:16Z</time>
      </trkpt>
      <trkpt lat="44.54514" lon="3.80877">
        <ele>1138.82</ele>
        <time>2021-07-21T09:19:32Z</time>
      </trkpt>
      <trkpt lat="44.54515" lon="3.80877">
        <ele>1138.82</ele>
        <time>2021-07-21T09:19:54Z</time>
      </trkpt>
      <trkpt lat="44.54515" lon="3.80876">
        <ele>1139.3</ele>
        <time>2021-07-21T09:20:23Z</time>
      </trkpt>
      <trkpt lat="44.54514" lon="3.80876">
        <ele>1138.82</ele>
        <time>2021-07-21T09:20:57Z</time>
      </trkpt>
      <trkpt lat="44.54515" lon="3.80863">
        <ele>1137.86</ele>
        <time>2021-07-21T09:21:16Z</time>
      </trkpt>
      <trkpt lat="44.54516" lon="3.80859">
        <ele>1137.86</ele>
        <time>2021-07-21T09:21:17Z</time>
      </trkpt>
      <trkpt lat="44.54521" lon="3.80836">
        <ele>1135.94</ele>
        <time>2021-07-21T09:21:24Z</time>
      </trkpt>
      <trkpt lat="44.54527" lon="3.80776">
        <ele>1138.34</ele>
        <time>2021-07-21T09:21:41Z</time>
      </trkpt>
      <trkpt lat="44.54533" lon="3.80728">
        <ele>1139.3</ele>
        <time>2021-07-21T09:21:57Z</time>
      </trkpt>
      <trkpt lat="44.54536" lon="3.80693">
        <ele>1139.3</ele>
        <time>2021-07-21T09:22:09Z</time>
      </trkpt>
      <trkpt lat="44.54536" lon="3.80672">
        <ele>1140.26</ele>
        <time>2021-07-21T09:22:18Z</time>
      </trkpt>
      <trkpt lat="44.54537" lon="3.80662">
        <ele>1139.3</ele>
        <time>2021-07-21T09:22:30Z</time>
      </trkpt>
      <trkpt lat="44.54538" lon="3.80649">
        <ele>1138.34</ele>
        <time>2021-07-21T09:22:50Z</time>
      </trkpt>
      <trkpt lat="44.54536" lon="3.80589">
        <ele>1133.05</ele>
        <time>2021-07-21T09:22:58Z</time>
      </trkpt>
      <trkpt lat="44.54521" lon="3.80527">
        <ele>1130.65</ele>
        <time>2021-07-21T09:23:11Z</time>
      </trkpt>
      <trkpt lat="44.5451" lon="3.80491">
        <ele>1132.09</ele>
        <time>2021-07-21T09:23:24Z</time>
      </trkpt>
      <trkpt lat="44.54495" lon="3.80466">
        <ele>1134.97</ele>
        <time>2021-07-21T09:23:36Z</time>
      </trkpt>
      <trkpt lat="44.54481" lon="3.80441">
        <ele>1134.97</ele>
        <time>2021-07-21T09:23:49Z</time>
      </trkpt>
      <trkpt lat="44.54459" lon="3.80411">
        <ele>1135.45</ele>
        <time>2021-07-21T09:24:03Z</time>
      </trkpt>
      <trkpt lat="44.54436" lon="3.80389">
        <ele>1137.38</ele>
        <time>2021-07-21T09:24:18Z</time>
      </trkpt>
      <trkpt lat="44.5442" lon="3.80377">
        <ele>1139.3</ele>
        <time>2021-07-21T09:24:31Z</time>
      </trkpt>
      <trkpt lat="44.54404" lon="3.80369">
        <ele>1142.18</ele>
        <time>2021-07-21T09:24:46Z</time>
      </trkpt>
      <trkpt lat="44.54399" lon="3.80367">
        <ele>1142.18</ele>
        <time>2021-07-21T09:24:51Z</time>
      </trkpt>
      <trkpt lat="44.54386" lon="3.8036">
        <ele>1143.14</ele>
        <time>2021-07-21T09:25:05Z</time>
      </trkpt>
      <trkpt lat="44.54385" lon="3.8036">
        <ele>1143.63</ele>
        <time>2021-07-21T09:25:06Z</time>
      </trkpt>
      <trkpt lat="44.54383" lon="3.80359">
        <ele>1143.63</ele>
        <time>2021-07-21T09:25:21Z</time>
      </trkpt>
      <trkpt lat="44.54375" lon="3.80355">
        <ele>1144.59</ele>
        <time>2021-07-21T09:25:33Z</time>
      </trkpt>
      <trkpt lat="44.54366" lon="3.80352">
        <ele>1145.55</ele>
        <time>2021-07-21T09:25:45Z</time>
      </trkpt>
      <trkpt lat="44.54347" lon="3.80346">
        <ele>1148.43</ele>
        <time>2021-07-21T09:26:04Z</time>
      </trkpt>
      <trkpt lat="44.54334" lon="3.80344">
        <ele>1149.87</ele>
        <time>2021-07-21T09:26:18Z</time>
      </trkpt>
      <trkpt lat="44.54319" lon="3.80341">
        <ele>1152.28</ele>
        <time>2021-07-21T09:26:34Z</time>
      </trkpt>
      <trkpt lat="44.54304" lon="3.80333">
        <ele>1155.16</ele>
        <time>2021-07-21T09:26:53Z</time>
      </trkpt>
      <trkpt lat="44.54302" lon="3.8033">
        <ele>1155.64</ele>
        <time>2021-07-21T09:27:08Z</time>
      </trkpt>
      <trkpt lat="44.54302" lon="3.8033">
        <ele>1154.68</ele>
        <time>2021-07-21T09:27:32Z</time>
      </trkpt>
      <trkpt lat="44.54291" lon="3.80319">
        <ele>1153.72</ele>
        <time>2021-07-21T09:27:44Z</time>
      </trkpt>
      <trkpt lat="44.54287" lon="3.80316">
        <ele>1153.72</ele>
        <time>2021-07-21T09:27:45Z</time>
      </trkpt>
      <trkpt lat="44.54244" lon="3.80297">
        <ele>1149.87</ele>
        <time>2021-07-21T09:27:55Z</time>
      </trkpt>
      <trkpt lat="44.54205" lon="3.80287">
        <ele>1145.07</ele>
        <time>2021-07-21T09:28:06Z</time>
      </trkpt>
      <trkpt lat="44.54172" lon="3.80281">
        <ele>1143.63</ele>
        <time>2021-07-21T09:28:16Z</time>
      </trkpt>
      <trkpt lat="44.54148" lon="3.80283">
        <ele>1144.11</ele>
        <time>2021-07-21T09:28:31Z</time>
      </trkpt>
      <trkpt lat="44.54126" lon="3.80285">
        <ele>1146.03</ele>
        <time>2021-07-21T09:28:45Z</time>
      </trkpt>
      <trkpt lat="44.54103" lon="3.8028">
        <ele>1148.43</ele>
        <time>2021-07-21T09:29:01Z</time>
      </trkpt>
      <trkpt lat="44.541" lon="3.80276">
        <ele>1148.43</ele>
        <time>2021-07-21T09:29:04Z</time>
      </trkpt>
      <trkpt lat="44.54097" lon="3.80269">
        <ele>1149.39</ele>
        <time>2021-07-21T09:29:08Z</time>
      </trkpt>
      <trkpt lat="44.54094" lon="3.80264">
        <ele>1149.39</ele>
        <time>2021-07-21T09:29:11Z</time>
      </trkpt>
      <trkpt lat="44.54088" lon="3.80256">
        <ele>1150.35</ele>
        <time>2021-07-21T09:29:17Z</time>
      </trkpt>
      <trkpt lat="44.54073" lon="3.80234">
        <ele>1152.76</ele>
        <time>2021-07-21T09:29:33Z</time>
      </trkpt>
      <trkpt lat="44.54052" lon="3.80212">
        <ele>1153.72</ele>
        <time>2021-07-21T09:29:51Z</time>
      </trkpt>
      <trkpt lat="44.54041" lon="3.80183">
        <ele>1155.64</ele>
        <time>2021-07-21T09:30:08Z</time>
      </trkpt>
      <trkpt lat="44.54037" lon="3.80148">
        <ele>1158.05</ele>
        <time>2021-07-21T09:30:25Z</time>
      </trkpt>
      <trkpt lat="44.54025" lon="3.80117">
        <ele>1161.41</ele>
        <time>2021-07-21T09:30:42Z</time>
      </trkpt>
      <trkpt lat="44.54014" lon="3.80084">
        <ele>1163.81</ele>
        <time>2021-07-21T09:30:59Z</time>
      </trkpt>
      <trkpt lat="44.54001" lon="3.80046">
        <ele>1165.74</ele>
        <time>2021-07-21T09:31:18Z</time>
      </trkpt>
      <trkpt lat="44.54001" lon="3.80008">
        <ele>1165.74</ele>
        <time>2021-07-21T09:31:34Z</time>
      </trkpt>
      <trkpt lat="44.5402" lon="3.7999">
        <ele>1167.18</ele>
        <time>2021-07-21T09:31:49Z</time>
      </trkpt>
      <trkpt lat="44.54046" lon="3.80004">
        <ele>1169.58</ele>
        <time>2021-07-21T09:32:05Z</time>
      </trkpt>
      <trkpt lat="44.54063" lon="3.80026">
        <ele>1170.54</ele>
        <time>2021-07-21T09:32:20Z</time>
      </trkpt>
      <trkpt lat="44.54078" lon="3.80045">
        <ele>1170.06</ele>
        <time>2021-07-21T09:32:34Z</time>
      </trkpt>
      <trkpt lat="44.54086" lon="3.80055">
        <ele>1170.54</ele>
        <time>2021-07-21T09:32:39Z</time>
      </trkpt>
      <trkpt lat="44.54092" lon="3.80059">
        <ele>1171.02</ele>
        <time>2021-07-21T09:32:52Z</time>
      </trkpt>
      <trkpt lat="44.54093" lon="3.80059">
        <ele>1171.5</ele>
        <time>2021-07-21T09:33:20Z</time>
      </trkpt>
      <trkpt lat="44.54098" lon="3.80058">
        <ele>1171.98</ele>
        <time>2021-07-21T09:33:28Z</time>
      </trkpt>
      <trkpt lat="44.54104" lon="3.80061">
        <ele>1171.98</ele>
        <time>2021-07-21T09:33:33Z</time>
      </trkpt>
      <trkpt lat="44.54119" lon="3.80042">
        <ele>1172.95</ele>
        <time>2021-07-21T09:33:46Z</time>
      </trkpt>
      <trkpt lat="44.54134" lon="3.8001">
        <ele>1173.91</ele>
        <time>2021-07-21T09:34:04Z</time>
      </trkpt>
      <trkpt lat="44.54144" lon="3.79977">
        <ele>1176.31</ele>
        <time>2021-07-21T09:34:22Z</time>
      </trkpt>
      <trkpt lat="44.54147" lon="3.79955">
        <ele>1177.27</ele>
        <time>2021-07-21T09:34:33Z</time>
      </trkpt>
      <trkpt lat="44.54143" lon="3.79914">
        <ele>1179.19</ele>
        <time>2021-07-21T09:34:52Z</time>
      </trkpt>
      <trkpt lat="44.54135" lon="3.79882">
        <ele>1180.64</ele>
        <time>2021-07-21T09:35:08Z</time>
      </trkpt>
      <trkpt lat="44.54126" lon="3.79862">
        <ele>1181.6</ele>
        <time>2021-07-21T09:35:20Z</time>
      </trkpt>
      <trkpt lat="44.54109" lon="3.79834">
        <ele>1183.04</ele>
        <time>2021-07-21T09:35:38Z</time>
      </trkpt>
      <trkpt lat="44.54094" lon="3.79806">
        <ele>1184.48</ele>
        <time>2021-07-21T09:35:56Z</time>
      </trkpt>
      <trkpt lat="44.5408" lon="3.79772">
        <ele>1186.4</ele>
        <time>2021-07-21T09:36:15Z</time>
      </trkpt>
      <trkpt lat="44.5407" lon="3.79737">
        <ele>1188.81</ele>
        <time>2021-07-21T09:36:33Z</time>
      </trkpt>
      <trkpt lat="44.54056" lon="3.79706">
        <ele>1190.25</ele>
        <time>2021-07-21T09:36:50Z</time>
      </trkpt>
      <trkpt lat="44.54041" lon="3.79696">
        <ele>1192.17</ele>
        <time>2021-07-21T09:37:02Z</time>
      </trkpt>
      <trkpt lat="44.54018" lon="3.79709">
        <ele>1194.58</ele>
        <time>2021-07-21T09:37:20Z</time>
      </trkpt>
      <trkpt lat="44.54014" lon="3.79713">
        <ele>1195.06</ele>
        <time>2021-07-21T09:37:23Z</time>
      </trkpt>
      <trkpt lat="44.5399" lon="3.79734">
        <ele>1197.46</ele>
        <time>2021-07-21T09:37:42Z</time>
      </trkpt>
      <trkpt lat="44.53963" lon="3.79759">
        <ele>1198.42</ele>
        <time>2021-07-21T09:38:03Z</time>
      </trkpt>
      <trkpt lat="44.53942" lon="3.79776">
        <ele>1199.86</ele>
        <time>2021-07-21T09:38:19Z</time>
      </trkpt>
      <trkpt lat="44.53935" lon="3.79781">
        <ele>1199.86</ele>
        <time>2021-07-21T09:38:24Z</time>
      </trkpt>
      <trkpt lat="44.53929" lon="3.79779">
        <ele>1200.82</ele>
        <time>2021-07-21T09:38:37Z</time>
      </trkpt>
      <trkpt lat="44.53927" lon="3.79776">
        <ele>1199.86</ele>
        <time>2021-07-21T09:38:56Z</time>
      </trkpt>
      <trkpt lat="44.53925" lon="3.7977">
        <ele>1200.34</ele>
        <time>2021-07-21T09:39:09Z</time>
      </trkpt>
      <trkpt lat="44.53925" lon="3.79754">
        <ele>1201.3</ele>
        <time>2021-07-21T09:39:24Z</time>
      </trkpt>
      <trkpt lat="44.53925" lon="3.79749">
        <ele>1201.3</ele>
        <time>2021-07-21T09:39:27Z</time>
      </trkpt>
      <trkpt lat="44.5392" lon="3.79721">
        <ele>1203.71</ele>
        <time>2021-07-21T09:39:47Z</time>
      </trkpt>
      <trkpt lat="44.53912" lon="3.79699">
        <ele>1205.15</ele>
        <time>2021-07-21T09:40:05Z</time>
      </trkpt>
      <trkpt lat="44.53901" lon="3.79682">
        <ele>1207.55</ele>
        <time>2021-07-21T09:40:22Z</time>
      </trkpt>
      <trkpt lat="44.53889" lon="3.79665">
        <ele>1208.51</ele>
        <time>2021-07-21T09:40:40Z</time>
      </trkpt>
      <trkpt lat="44.53879" lon="3.79654">
        <ele>1209.96</ele>
        <time>2021-07-21T09:40:54Z</time>
      </trkpt>
      <trkpt lat="44.5387" lon="3.79643">
        <ele>1210.44</ele>
        <time>2021-07-21T09:41:09Z</time>
      </trkpt>
      <trkpt lat="44.53867" lon="3.79641">
        <ele>1210.92</ele>
        <time>2021-07-21T09:41:22Z</time>
      </trkpt>
      <trkpt lat="44.53865" lon="3.79639">
        <ele>1211.4</ele>
        <time>2021-07-21T09:41:34Z</time>
      </trkpt>
      <trkpt lat="44.53854" lon="3.79633">
        <ele>1213.32</ele>
        <time>2021-07-21T09:41:46Z</time>
      </trkpt>
      <trkpt lat="44.53844" lon="3.79629">
        <ele>1217.17</ele>
        <time>2021-07-21T09:42:00Z</time>
      </trkpt>
      <trkpt lat="44.53842" lon="3.79628">
        <ele>1218.13</ele>
        <time>2021-07-21T09:42:13Z</time>
      </trkpt>
      <trkpt lat="44.53841" lon="3.79627">
        <ele>1218.61</ele>
        <time>2021-07-21T09:42:30Z</time>
      </trkpt>
      <trkpt lat="44.53839" lon="3.79627">
        <ele>1218.13</ele>
        <time>2021-07-21T09:42:47Z</time>
      </trkpt>
      <trkpt lat="44.53836" lon="3.79616">
        <ele>1218.13</ele>
        <time>2021-07-21T09:42:56Z</time>
      </trkpt>
      <trkpt lat="44.53835" lon="3.79599">
        <ele>1218.13</ele>
        <time>2021-07-21T09:43:10Z</time>
      </trkpt>
      <trkpt lat="44.53834" lon="3.79599">
        <ele>1218.13</ele>
        <time>2021-07-21T09:43:38Z</time>
      </trkpt>
      <trkpt lat="44.53835" lon="3.796">
        <ele>1217.65</ele>
        <time>2021-07-21T09:44:11Z</time>
      </trkpt>
      <trkpt lat="44.53834" lon="3.796">
        <ele>1217.17</ele>
        <time>2021-07-21T09:44:45Z</time>
      </trkpt>
      <trkpt lat="44.53834" lon="3.796">
        <ele>1217.17</ele>
        <time>2021-07-21T09:45:21Z</time>
      </trkpt>
      <trkpt lat="44.53834" lon="3.796">
        <ele>1216.69</ele>
        <time>2021-07-21T09:45:55Z</time>
      </trkpt>
      <trkpt lat="44.53833" lon="3.796">
        <ele>1216.69</ele>
        <time>2021-07-21T09:46:27Z</time>
      </trkpt>
      <trkpt lat="44.53833" lon="3.796">
        <ele>1216.69</ele>
        <time>2021-07-21T09:47:00Z</time>
      </trkpt>
      <trkpt lat="44.53833" lon="3.79601">
        <ele>1216.69</ele>
        <time>2021-07-21T09:47:35Z</time>
      </trkpt>
      <trkpt lat="44.53834" lon="3.79603">
        <ele>1216.21</ele>
        <time>2021-07-21T09:48:16Z</time>
      </trkpt>
      <trkpt lat="44.53834" lon="3.79602">
        <ele>1215.72</ele>
        <time>2021-07-21T09:48:56Z</time>
      </trkpt>
      <trkpt lat="44.53834" lon="3.79603">
        <ele>1215.24</ele>
        <time>2021-07-21T09:49:32Z</time>
      </trkpt>
      <trkpt lat="44.53834" lon="3.79604">
        <ele>1216.21</ele>
        <time>2021-07-21T09:50:07Z</time>
      </trkpt>
      <trkpt lat="44.53835" lon="3.79603">
        <ele>1217.17</ele>
        <time>2021-07-21T09:50:43Z</time>
      </trkpt>
      <trkpt lat="44.53835" lon="3.79603">
        <ele>1217.17</ele>
        <time>2021-07-21T09:51:14Z</time>
      </trkpt>
      <trkpt lat="44.53835" lon="3.79604">
        <ele>1217.65</ele>
        <time>2021-07-21T09:51:44Z</time>
      </trkpt>
      <trkpt lat="44.53836" lon="3.79604">
        <ele>1218.13</ele>
        <time>2021-07-21T09:52:22Z</time>
      </trkpt>
      <trkpt lat="44.53836" lon="3.79603">
        <ele>1219.09</ele>
        <time>2021-07-21T09:52:57Z</time>
      </trkpt>
      <trkpt lat="44.53836" lon="3.79602">
        <ele>1219.57</ele>
        <time>2021-07-21T09:53:36Z</time>
      </trkpt>
      <trkpt lat="44.53836" lon="3.79602">
        <ele>1220.05</ele>
        <time>2021-07-21T09:54:07Z</time>
      </trkpt>
      <trkpt lat="44.53836" lon="3.79601">
        <ele>1220.05</ele>
        <time>2021-07-21T09:54:43Z</time>
      </trkpt>
      <trkpt lat="44.53837" lon="3.796">
        <ele>1219.09</ele>
        <time>2021-07-21T09:55:21Z</time>
      </trkpt>
      <trkpt lat="44.53837" lon="3.796">
        <ele>1218.61</ele>
        <time>2021-07-21T09:56:01Z</time>
      </trkpt>
      <trkpt lat="44.53837" lon="3.796">
        <ele>1218.13</ele>
        <time>2021-07-21T09:56:40Z</time>
      </trkpt>
      <trkpt lat="44.53836" lon="3.79601">
        <ele>1217.65</ele>
        <time>2021-07-21T09:57:18Z</time>
      </trkpt>
      <trkpt lat="44.53836" lon="3.79601">
        <ele>1217.17</ele>
        <time>2021-07-21T09:57:56Z</time>
      </trkpt>
      <trkpt lat="44.53835" lon="3.79602">
        <ele>1216.21</ele>
        <time>2021-07-21T09:58:36Z</time>
      </trkpt>
      <trkpt lat="44.53835" lon="3.79602">
        <ele>1215.24</ele>
        <time>2021-07-21T09:59:10Z</time>
      </trkpt>
      <trkpt lat="44.53835" lon="3.796">
        <ele>1216.21</ele>
        <time>2021-07-21T09:59:42Z</time>
      </trkpt>
      <trkpt lat="44.53835" lon="3.796">
        <ele>1216.21</ele>
        <time>2021-07-21T10:00:20Z</time>
      </trkpt>
      <trkpt lat="44.53835" lon="3.79601">
        <ele>1215.24</ele>
        <time>2021-07-21T10:00:51Z</time>
      </trkpt>
      <trkpt lat="44.53835" lon="3.79601">
        <ele>1214.28</ele>
        <time>2021-07-21T10:01:29Z</time>
      </trkpt>
      <trkpt lat="44.53836" lon="3.79602">
        <ele>1215.72</ele>
        <time>2021-07-21T10:02:08Z</time>
      </trkpt>
      <trkpt lat="44.53835" lon="3.79601">
        <ele>1216.21</ele>
        <time>2021-07-21T10:02:44Z</time>
      </trkpt>
      <trkpt lat="44.53835" lon="3.79601">
        <ele>1216.21</ele>
        <time>2021-07-21T10:03:22Z</time>
      </trkpt>
      <trkpt lat="44.53835" lon="3.796">
        <ele>1215.24</ele>
        <time>2021-07-21T10:03:55Z</time>
      </trkpt>
      <trkpt lat="44.53836" lon="3.796">
        <ele>1215.24</ele>
        <time>2021-07-21T10:04:29Z</time>
      </trkpt>
      <trkpt lat="44.53836" lon="3.796">
        <ele>1215.24</ele>
        <time>2021-07-21T10:05:02Z</time>
      </trkpt>
      <trkpt lat="44.53835" lon="3.79601">
        <ele>1215.24</ele>
        <time>2021-07-21T10:05:40Z</time>
      </trkpt>
      <trkpt lat="44.53836" lon="3.79601">
        <ele>1215.72</ele>
        <time>2021-07-21T10:06:14Z</time>
      </trkpt>
      <trkpt lat="44.53835" lon="3.79602">
        <ele>1215.72</ele>
        <time>2021-07-21T10:06:49Z</time>
      </trkpt>
      <trkpt lat="44.53836" lon="3.79601">
        <ele>1214.28</ele>
        <time>2021-07-21T10:07:27Z</time>
      </trkpt>
      <trkpt lat="44.53836" lon="3.79601">
        <ele>1213.8</ele>
        <time>2021-07-21T10:08:04Z</time>
      </trkpt>
      <trkpt lat="44.53837" lon="3.796">
        <ele>1213.32</ele>
        <time>2021-07-21T10:08:37Z</time>
      </trkpt>
      <trkpt lat="44.53837" lon="3.796">
        <ele>1213.32</ele>
        <time>2021-07-21T10:09:14Z</time>
      </trkpt>
      <trkpt lat="44.53838" lon="3.79599">
        <ele>1212.84</ele>
        <time>2021-07-21T10:09:49Z</time>
      </trkpt>
      <trkpt lat="44.53838" lon="3.79599">
        <ele>1213.32</ele>
        <time>2021-07-21T10:10:23Z</time>
      </trkpt>
      <trkpt lat="44.53838" lon="3.79599">
        <ele>1214.28</ele>
        <time>2021-07-21T10:10:55Z</time>
      </trkpt>
      <trkpt lat="44.53838" lon="3.79599">
        <ele>1213.8</ele>
        <time>2021-07-21T10:11:24Z</time>
      </trkpt>
      <trkpt lat="44.53837" lon="3.79599">
        <ele>1213.8</ele>
        <time>2021-07-21T10:12:00Z</time>
      </trkpt>
      <trkpt lat="44.53837" lon="3.796">
        <ele>1215.24</ele>
        <time>2021-07-21T10:12:34Z</time>
      </trkpt>
      <trkpt lat="44.53838" lon="3.796">
        <ele>1215.72</ele>
        <time>2021-07-21T10:13:07Z</time>
      </trkpt>
      <trkpt lat="44.53838" lon="3.796">
        <ele>1215.72</ele>
        <time>2021-07-21T10:13:45Z</time>
      </trkpt>
      <trkpt lat="44.53838" lon="3.796">
        <ele>1216.69</ele>
        <time>2021-07-21T10:14:15Z</time>
      </trkpt>
      <trkpt lat="44.53837" lon="3.796">
        <ele>1217.65</ele>
        <time>2021-07-21T10:14:47Z</time>
      </trkpt>
      <trkpt lat="44.53837" lon="3.796">
        <ele>1216.21</ele>
        <time>2021-07-21T10:15:22Z</time>
      </trkpt>
      <trkpt lat="44.53837" lon="3.79599">
        <ele>1216.69</ele>
        <time>2021-07-21T10:15:58Z</time>
      </trkpt>
      <trkpt lat="44.53836" lon="3.79598">
        <ele>1216.69</ele>
        <time>2021-07-21T10:16:30Z</time>
      </trkpt>
      <trkpt lat="44.53837" lon="3.79598">
        <ele>1217.17</ele>
        <time>2021-07-21T10:17:01Z</time>
      </trkpt>
      <trkpt lat="44.53837" lon="3.79599">
        <ele>1217.65</ele>
        <time>2021-07-21T10:17:36Z</time>
      </trkpt>
      <trkpt lat="44.53837" lon="3.796">
        <ele>1218.61</ele>
        <time>2021-07-21T10:18:11Z</time>
      </trkpt>
      <trkpt lat="44.53836" lon="3.79599">
        <ele>1218.13</ele>
        <time>2021-07-21T10:18:43Z</time>
      </trkpt>
      <trkpt lat="44.53836" lon="3.79598">
        <ele>1218.13</ele>
        <time>2021-07-21T10:19:19Z</time>
      </trkpt>
      <trkpt lat="44.53836" lon="3.79598">
        <ele>1218.13</ele>
        <time>2021-07-21T10:19:52Z</time>
      </trkpt>
      <trkpt lat="44.53835" lon="3.79599">
        <ele>1217.65</ele>
        <time>2021-07-21T10:20:26Z</time>
      </trkpt>
      <trkpt lat="44.53836" lon="3.79599">
        <ele>1218.13</ele>
        <time>2021-07-21T10:21:00Z</time>
      </trkpt>
      <trkpt lat="44.53836" lon="3.796">
        <ele>1217.17</ele>
        <time>2021-07-21T10:21:34Z</time>
      </trkpt>
      <trkpt lat="44.53836" lon="3.796">
        <ele>1218.13</ele>
        <time>2021-07-21T10:22:06Z</time>
      </trkpt>
      <trkpt lat="44.53835" lon="3.79599">
        <ele>1217.65</ele>
        <time>2021-07-21T10:22:37Z</time>
      </trkpt>
      <trkpt lat="44.53835" lon="3.79598">
        <ele>1216.21</ele>
        <time>2021-07-21T10:23:12Z</time>
      </trkpt>
      <trkpt lat="44.53835" lon="3.79597">
        <ele>1216.21</ele>
        <time>2021-07-21T10:23:47Z</time>
      </trkpt>
      <trkpt lat="44.53836" lon="3.79599">
        <ele>1217.17</ele>
        <time>2021-07-21T10:24:22Z</time>
      </trkpt>
      <trkpt lat="44.53836" lon="3.796">
        <ele>1217.17</ele>
        <time>2021-07-21T10:24:57Z</time>
      </trkpt>
      <trkpt lat="44.53835" lon="3.796">
        <ele>1215.72</ele>
        <time>2021-07-21T10:25:36Z</time>
      </trkpt>
      <trkpt lat="44.53835" lon="3.79599">
        <ele>1215.24</ele>
        <time>2021-07-21T10:26:12Z</time>
      </trkpt>
      <trkpt lat="44.53835" lon="3.79599">
        <ele>1215.72</ele>
        <time>2021-07-21T10:26:44Z</time>
      </trkpt>
      <trkpt lat="44.53836" lon="3.79599">
        <ele>1215.24</ele>
        <time>2021-07-21T10:27:21Z</time>
      </trkpt>
      <trkpt lat="44.53836" lon="3.79598">
        <ele>1215.24</ele>
        <time>2021-07-21T10:27:55Z</time>
      </trkpt>
      <trkpt lat="44.53835" lon="3.79599">
        <ele>1215.72</ele>
        <time>2021-07-21T10:28:28Z</time>
      </trkpt>
      <trkpt lat="44.53835" lon="3.79601">
        <ele>1216.21</ele>
        <time>2021-07-21T10:29:01Z</time>
      </trkpt>
      <trkpt lat="44.53836" lon="3.796">
        <ele>1216.21</ele>
        <time>2021-07-21T10:29:35Z</time>
      </trkpt>
      <trkpt lat="44.53837" lon="3.796">
        <ele>1215.24</ele>
        <time>2021-07-21T10:30:11Z</time>
      </trkpt>
      <trkpt lat="44.53836" lon="3.79601">
        <ele>1215.72</ele>
        <time>2021-07-21T10:30:49Z</time>
      </trkpt>
      <trkpt lat="44.53836" lon="3.79601">
        <ele>1216.21</ele>
        <time>2021-07-21T10:31:28Z</time>
      </trkpt>
      <trkpt lat="44.53837" lon="3.796">
        <ele>1215.72</ele>
        <time>2021-07-21T10:32:04Z</time>
      </trkpt>
      <trkpt lat="44.53836" lon="3.79602">
        <ele>1215.72</ele>
        <time>2021-07-21T10:32:42Z</time>
      </trkpt>
      <trkpt lat="44.53836" lon="3.79603">
        <ele>1215.24</ele>
        <time>2021-07-21T10:33:19Z</time>
      </trkpt>
      <trkpt lat="44.53836" lon="3.79602">
        <ele>1215.24</ele>
        <time>2021-07-21T10:33:53Z</time>
      </trkpt>
      <trkpt lat="44.53835" lon="3.79602">
        <ele>1213.8</ele>
        <time>2021-07-21T10:34:31Z</time>
      </trkpt>
      <trkpt lat="44.53835" lon="3.79603">
        <ele>1214.28</ele>
        <time>2021-07-21T10:35:02Z</time>
      </trkpt>
      <trkpt lat="44.53836" lon="3.79604">
        <ele>1214.28</ele>
        <time>2021-07-21T10:35:38Z</time>
      </trkpt>
      <trkpt lat="44.53835" lon="3.79603">
        <ele>1214.28</ele>
        <time>2021-07-21T10:36:11Z</time>
      </trkpt>
      <trkpt lat="44.53835" lon="3.79602">
        <ele>1214.28</ele>
        <time>2021-07-21T10:36:45Z</time>
      </trkpt>
      <trkpt lat="44.53835" lon="3.79601">
        <ele>1213.32</ele>
        <time>2021-07-21T10:37:19Z</time>
      </trkpt>
      <trkpt lat="44.53835" lon="3.79601">
        <ele>1212.84</ele>
        <time>2021-07-21T10:37:52Z</time>
      </trkpt>
      <trkpt lat="44.53835" lon="3.79601">
        <ele>1212.84</ele>
        <time>2021-07-21T10:38:24Z</time>
      </trkpt>
      <trkpt lat="44.53835" lon="3.79601">
        <ele>1213.32</ele>
        <time>2021-07-21T10:39:01Z</time>
      </trkpt>
      <trkpt lat="44.53835" lon="3.79603">
        <ele>1214.28</ele>
        <time>2021-07-21T10:39:36Z</time>
      </trkpt>
      <trkpt lat="44.53835" lon="3.79604">
        <ele>1215.24</ele>
        <time>2021-07-21T10:40:07Z</time>
      </trkpt>
      <trkpt lat="44.53835" lon="3.79604">
        <ele>1215.72</ele>
        <time>2021-07-21T10:40:37Z</time>
      </trkpt>
      <trkpt lat="44.53835" lon="3.79602">
        <ele>1215.72</ele>
        <time>2021-07-21T10:41:11Z</time>
      </trkpt>
      <trkpt lat="44.53835" lon="3.79601">
        <ele>1215.72</ele>
        <time>2021-07-21T10:41:44Z</time>
      </trkpt>
      <trkpt lat="44.53835" lon="3.796">
        <ele>1215.24</ele>
        <time>2021-07-21T10:42:19Z</time>
      </trkpt>
      <trkpt lat="44.53835" lon="3.79601">
        <ele>1215.72</ele>
        <time>2021-07-21T10:42:51Z</time>
      </trkpt>
      <trkpt lat="44.53835" lon="3.79601">
        <ele>1215.24</ele>
        <time>2021-07-21T10:43:25Z</time>
      </trkpt>
      <trkpt lat="44.53836" lon="3.79601">
        <ele>1215.24</ele>
        <time>2021-07-21T10:43:59Z</time>
      </trkpt>
      <trkpt lat="44.53835" lon="3.796">
        <ele>1214.76</ele>
        <time>2021-07-21T10:44:33Z</time>
      </trkpt>
      <trkpt lat="44.53835" lon="3.796">
        <ele>1214.76</ele>
        <time>2021-07-21T10:45:04Z</time>
      </trkpt>
      <trkpt lat="44.53834" lon="3.796">
        <ele>1214.76</ele>
        <time>2021-07-21T10:45:35Z</time>
      </trkpt>
      <trkpt lat="44.53835" lon="3.79601">
        <ele>1214.28</ele>
        <time>2021-07-21T10:46:11Z</time>
      </trkpt>
      <trkpt lat="44.53835" lon="3.79601">
        <ele>1214.76</ele>
        <time>2021-07-21T10:46:46Z</time>
      </trkpt>
      <trkpt lat="44.53837" lon="3.79601">
        <ele>1215.24</ele>
        <time>2021-07-21T10:46:53Z</time>
      </trkpt>
      <trkpt lat="44.53838" lon="3.796">
        <ele>1215.24</ele>
        <time>2021-07-21T10:46:55Z</time>
      </trkpt>
      <trkpt lat="44.53837" lon="3.79606">
        <ele>1215.24</ele>
        <time>2021-07-21T10:47:04Z</time>
      </trkpt>
      <trkpt lat="44.53836" lon="3.79612">
        <ele>1215.72</ele>
        <time>2021-07-21T10:47:08Z</time>
      </trkpt>
      <trkpt lat="44.53833" lon="3.79614">
        <ele>1215.24</ele>
        <time>2021-07-21T10:47:12Z</time>
      </trkpt>
      <trkpt lat="44.53824" lon="3.79606">
        <ele>1215.72</ele>
        <time>2021-07-21T10:47:24Z</time>
      </trkpt>
      <trkpt lat="44.53821" lon="3.79598">
        <ele>1217.17</ele>
        <time>2021-07-21T10:47:34Z</time>
      </trkpt>
      <trkpt lat="44.53814" lon="3.79588">
        <ele>1220.53</ele>
        <time>2021-07-21T10:47:47Z</time>
      </trkpt>
      <trkpt lat="44.53813" lon="3.79586">
        <ele>1221.97</ele>
        <time>2021-07-21T10:48:02Z</time>
      </trkpt>
      <trkpt lat="44.53811" lon="3.79585">
        <ele>1221.97</ele>
        <time>2021-07-21T10:48:18Z</time>
      </trkpt>
      <trkpt lat="44.53806" lon="3.79579">
        <ele>1221.97</ele>
        <time>2021-07-21T10:48:29Z</time>
      </trkpt>
      <trkpt lat="44.538" lon="3.79568">
        <ele>1226.3</ele>
        <time>2021-07-21T10:48:42Z</time>
      </trkpt>
      <trkpt lat="44.53794" lon="3.7956">
        <ele>1230.62</ele>
        <time>2021-07-21T10:48:53Z</time>
      </trkpt>
      <trkpt lat="44.53788" lon="3.79555">
        <ele>1232.55</ele>
        <time>2021-07-21T10:49:03Z</time>
      </trkpt>
      <trkpt lat="44.53783" lon="3.79552">
        <ele>1233.51</ele>
        <time>2021-07-21T10:49:22Z</time>
      </trkpt>
      <trkpt lat="44.53777" lon="3.79544">
        <ele>1234.95</ele>
        <time>2021-07-21T10:49:36Z</time>
      </trkpt>
      <trkpt lat="44.53776" lon="3.79542">
        <ele>1234.47</ele>
        <time>2021-07-21T10:49:53Z</time>
      </trkpt>
      <trkpt lat="44.53776" lon="3.79543">
        <ele>1232.55</ele>
        <time>2021-07-21T10:50:15Z</time>
      </trkpt>
      <trkpt lat="44.53775" lon="3.79544">
        <ele>1234.47</ele>
        <time>2021-07-21T10:50:35Z</time>
      </trkpt>
      <trkpt lat="44.53766" lon="3.79534">
        <ele>1237.35</ele>
        <time>2021-07-21T10:50:46Z</time>
      </trkpt>
      <trkpt lat="44.53764" lon="3.79533">
        <ele>1237.35</ele>
        <time>2021-07-21T10:50:47Z</time>
      </trkpt>
      <trkpt lat="44.53753" lon="3.79522">
        <ele>1239.28</ele>
        <time>2021-07-21T10:50:59Z</time>
      </trkpt>
      <trkpt lat="44.53748" lon="3.79519">
        <ele>1242.64</ele>
        <time>2021-07-21T10:51:11Z</time>
      </trkpt>
      <trkpt lat="44.53744" lon="3.79515">
        <ele>1242.64</ele>
        <time>2021-07-21T10:51:23Z</time>
      </trkpt>
      <trkpt lat="44.53735" lon="3.79508">
        <ele>1242.16</ele>
        <time>2021-07-21T10:51:33Z</time>
      </trkpt>
      <trkpt lat="44.53726" lon="3.79502">
        <ele>1243.12</ele>
        <time>2021-07-21T10:51:45Z</time>
      </trkpt>
      <trkpt lat="44.53719" lon="3.79493">
        <ele>1245.53</ele>
        <time>2021-07-21T10:51:57Z</time>
      </trkpt>
      <trkpt lat="44.53718" lon="3.79491">
        <ele>1245.53</ele>
        <time>2021-07-21T10:52:13Z</time>
      </trkpt>
      <trkpt lat="44.53711" lon="3.79484">
        <ele>1246.97</ele>
        <time>2021-07-21T10:52:27Z</time>
      </trkpt>
      <trkpt lat="44.53708" lon="3.79483">
        <ele>1247.93</ele>
        <time>2021-07-21T10:52:46Z</time>
      </trkpt>
      <trkpt lat="44.53706" lon="3.79483">
        <ele>1248.41</ele>
        <time>2021-07-21T10:53:10Z</time>
      </trkpt>
      <trkpt lat="44.53705" lon="3.79484">
        <ele>1247.93</ele>
        <time>2021-07-21T10:53:34Z</time>
      </trkpt>
      <trkpt lat="44.53705" lon="3.79484">
        <ele>1248.41</ele>
        <time>2021-07-21T10:54:02Z</time>
      </trkpt>
      <trkpt lat="44.53705" lon="3.79484">
        <ele>1248.41</ele>
        <time>2021-07-21T10:54:22Z</time>
      </trkpt>
      <trkpt lat="44.53704" lon="3.79483">
        <ele>1249.37</ele>
        <time>2021-07-21T10:54:45Z</time>
      </trkpt>
      <trkpt lat="44.53703" lon="3.79483">
        <ele>1248.89</ele>
        <time>2021-07-21T10:55:10Z</time>
      </trkpt>
      <trkpt lat="44.53701" lon="3.79481">
        <ele>1248.89</ele>
        <time>2021-07-21T10:55:26Z</time>
      </trkpt>
      <trkpt lat="44.53696" lon="3.79479">
        <ele>1249.85</ele>
        <time>2021-07-21T10:55:35Z</time>
      </trkpt>
      <trkpt lat="44.53683" lon="3.79474">
        <ele>1251.29</ele>
        <time>2021-07-21T10:55:47Z</time>
      </trkpt>
      <trkpt lat="44.53671" lon="3.79472">
        <ele>1254.18</ele>
        <time>2021-07-21T10:56:01Z</time>
      </trkpt>
      <trkpt lat="44.53665" lon="3.79473">
        <ele>1256.58</ele>
        <time>2021-07-21T10:56:13Z</time>
      </trkpt>
      <trkpt lat="44.53654" lon="3.7947">
        <ele>1257.06</ele>
        <time>2021-07-21T10:56:28Z</time>
      </trkpt>
      <trkpt lat="44.53649" lon="3.79465">
        <ele>1258.5</ele>
        <time>2021-07-21T10:56:41Z</time>
      </trkpt>
      <trkpt lat="44.53646" lon="3.79459">
        <ele>1261.39</ele>
        <time>2021-07-21T10:56:56Z</time>
      </trkpt>
      <trkpt lat="44.53645" lon="3.79458">
        <ele>1262.35</ele>
        <time>2021-07-21T10:57:24Z</time>
      </trkpt>
      <trkpt lat="44.53644" lon="3.79458">
        <ele>1262.35</ele>
        <time>2021-07-21T10:57:48Z</time>
      </trkpt>
      <trkpt lat="44.53635" lon="3.79448">
        <ele>1262.35</ele>
        <time>2021-07-21T10:58:02Z</time>
      </trkpt>
      <trkpt lat="44.53632" lon="3.79444">
        <ele>1263.79</ele>
        <time>2021-07-21T10:58:08Z</time>
      </trkpt>
      <trkpt lat="44.53626" lon="3.79439">
        <ele>1266.67</ele>
        <time>2021-07-21T10:58:19Z</time>
      </trkpt>
      <trkpt lat="44.53627" lon="3.79439">
        <ele>1267.16</ele>
        <time>2021-07-21T10:58:39Z</time>
      </trkpt>
      <trkpt lat="44.5362" lon="3.79436">
        <ele>1267.64</ele>
        <time>2021-07-21T10:58:55Z</time>
      </trkpt>
      <trkpt lat="44.53611" lon="3.79434">
        <ele>1266.67</ele>
        <time>2021-07-21T10:59:06Z</time>
      </trkpt>
      <trkpt lat="44.53606" lon="3.79433">
        <ele>1267.64</ele>
        <time>2021-07-21T10:59:17Z</time>
      </trkpt>
      <trkpt lat="44.53598" lon="3.79432">
        <ele>1269.56</ele>
        <time>2021-07-21T10:59:29Z</time>
      </trkpt>
      <trkpt lat="44.53597" lon="3.79431">
        <ele>1270.52</ele>
        <time>2021-07-21T10:59:31Z</time>
      </trkpt>
      <trkpt lat="44.53592" lon="3.79428">
        <ele>1273.88</ele>
        <time>2021-07-21T10:59:42Z</time>
      </trkpt>
      <trkpt lat="44.53591" lon="3.79428">
        <ele>1275.81</ele>
        <time>2021-07-21T10:59:57Z</time>
      </trkpt>
      <trkpt lat="44.53585" lon="3.79429">
        <ele>1275.81</ele>
        <time>2021-07-21T11:00:11Z</time>
      </trkpt>
      <trkpt lat="44.53583" lon="3.7943">
        <ele>1275.81</ele>
        <time>2021-07-21T11:00:22Z</time>
      </trkpt>
      <trkpt lat="44.53576" lon="3.79433">
        <ele>1280.13</ele>
        <time>2021-07-21T11:00:34Z</time>
      </trkpt>
      <trkpt lat="44.5357" lon="3.79438">
        <ele>1283.98</ele>
        <time>2021-07-21T11:00:45Z</time>
      </trkpt>
      <trkpt lat="44.53567" lon="3.79438">
        <ele>1283.02</ele>
        <time>2021-07-21T11:01:02Z</time>
      </trkpt>
      <trkpt lat="44.53559" lon="3.79441">
        <ele>1283.5</ele>
        <time>2021-07-21T11:01:16Z</time>
      </trkpt>
      <trkpt lat="44.53551" lon="3.79446">
        <ele>1285.9</ele>
        <time>2021-07-21T11:01:27Z</time>
      </trkpt>
      <trkpt lat="44.53547" lon="3.79448">
        <ele>1285.9</ele>
        <time>2021-07-21T11:01:38Z</time>
      </trkpt>
      <trkpt lat="44.53545" lon="3.79448">
        <ele>1287.34</ele>
        <time>2021-07-21T11:01:41Z</time>
      </trkpt>
      <trkpt lat="44.53537" lon="3.79453">
        <ele>1290.71</ele>
        <time>2021-07-21T11:01:56Z</time>
      </trkpt>
      <trkpt lat="44.53531" lon="3.79455">
        <ele>1292.63</ele>
        <time>2021-07-21T11:02:15Z</time>
      </trkpt>
      <trkpt lat="44.53525" lon="3.7946">
        <ele>1296.96</ele>
        <time>2021-07-21T11:02:27Z</time>
      </trkpt>
      <trkpt lat="44.53518" lon="3.79463">
        <ele>1297.92</ele>
        <time>2021-07-21T11:02:44Z</time>
      </trkpt>
      <trkpt lat="44.53516" lon="3.79464">
        <ele>1298.4</ele>
        <time>2021-07-21T11:02:56Z</time>
      </trkpt>
      <trkpt lat="44.53514" lon="3.79464">
        <ele>1298.88</ele>
        <time>2021-07-21T11:03:14Z</time>
      </trkpt>
      <trkpt lat="44.53504" lon="3.79469">
        <ele>1301.76</ele>
        <time>2021-07-21T11:03:27Z</time>
      </trkpt>
      <trkpt lat="44.53496" lon="3.79471">
        <ele>1302.72</ele>
        <time>2021-07-21T11:03:38Z</time>
      </trkpt>
      <trkpt lat="44.53492" lon="3.79471">
        <ele>1303.69</ele>
        <time>2021-07-21T11:03:47Z</time>
      </trkpt>
      <trkpt lat="44.53476" lon="3.79473">
        <ele>1306.09</ele>
        <time>2021-07-21T11:04:00Z</time>
      </trkpt>
      <trkpt lat="44.53466" lon="3.79472">
        <ele>1308.49</ele>
        <time>2021-07-21T11:04:12Z</time>
      </trkpt>
      <trkpt lat="44.53461" lon="3.79472">
        <ele>1309.93</ele>
        <time>2021-07-21T11:04:26Z</time>
      </trkpt>
      <trkpt lat="44.5346" lon="3.7947">
        <ele>1309.45</ele>
        <time>2021-07-21T11:04:52Z</time>
      </trkpt>
      <trkpt lat="44.5346" lon="3.79469">
        <ele>1310.41</ele>
        <time>2021-07-21T11:05:19Z</time>
      </trkpt>
      <trkpt lat="44.53462" lon="3.79467">
        <ele>1309.93</ele>
        <time>2021-07-21T11:05:47Z</time>
      </trkpt>
      <trkpt lat="44.5346" lon="3.79468">
        <ele>1310.9</ele>
        <time>2021-07-21T11:06:17Z</time>
      </trkpt>
      <trkpt lat="44.53458" lon="3.79468">
        <ele>1311.86</ele>
        <time>2021-07-21T11:06:48Z</time>
      </trkpt>
      <trkpt lat="44.53455" lon="3.79467">
        <ele>1312.82</ele>
        <time>2021-07-21T11:07:19Z</time>
      </trkpt>
      <trkpt lat="44.53456" lon="3.79469">
        <ele>1312.34</ele>
        <time>2021-07-21T11:07:46Z</time>
      </trkpt>
      <trkpt lat="44.53456" lon="3.79468">
        <ele>1312.34</ele>
        <time>2021-07-21T11:08:15Z</time>
      </trkpt>
      <trkpt lat="44.53456" lon="3.79469">
        <ele>1312.34</ele>
        <time>2021-07-21T11:08:43Z</time>
      </trkpt>
      <trkpt lat="44.5345" lon="3.7947">
        <ele>1311.86</ele>
        <time>2021-07-21T11:08:58Z</time>
      </trkpt>
      <trkpt lat="44.53444" lon="3.79473">
        <ele>1311.86</ele>
        <time>2021-07-21T11:09:06Z</time>
      </trkpt>
      <trkpt lat="44.5344" lon="3.79475">
        <ele>1313.3</ele>
        <time>2021-07-21T11:09:11Z</time>
      </trkpt>
      <trkpt lat="44.53437" lon="3.79476">
        <ele>1313.78</ele>
        <time>2021-07-21T11:09:14Z</time>
      </trkpt>
      <trkpt lat="44.53435" lon="3.79475">
        <ele>1314.74</ele>
        <time>2021-07-21T11:09:16Z</time>
      </trkpt>
      <trkpt lat="44.53428" lon="3.79478">
        <ele>1318.1</ele>
        <time>2021-07-21T11:09:27Z</time>
      </trkpt>
      <trkpt lat="44.53421" lon="3.79477">
        <ele>1320.51</ele>
        <time>2021-07-21T11:09:39Z</time>
      </trkpt>
      <trkpt lat="44.53412" lon="3.79476">
        <ele>1324.35</ele>
        <time>2021-07-21T11:09:51Z</time>
      </trkpt>
      <trkpt lat="44.53403" lon="3.79474">
        <ele>1328.2</ele>
        <time>2021-07-21T11:10:03Z</time>
      </trkpt>
      <trkpt lat="44.53401" lon="3.79473">
        <ele>1329.16</ele>
        <time>2021-07-21T11:10:05Z</time>
      </trkpt>
      <trkpt lat="44.53393" lon="3.79472">
        <ele>1331.08</ele>
        <time>2021-07-21T11:10:14Z</time>
      </trkpt>
      <trkpt lat="44.53384" lon="3.79466">
        <ele>1329.64</ele>
        <time>2021-07-21T11:10:26Z</time>
      </trkpt>
      <trkpt lat="44.5338" lon="3.7946">
        <ele>1330.12</ele>
        <time>2021-07-21T11:10:38Z</time>
      </trkpt>
      <trkpt lat="44.53377" lon="3.7945">
        <ele>1329.64</ele>
        <time>2021-07-21T11:10:48Z</time>
      </trkpt>
      <trkpt lat="44.53375" lon="3.79444">
        <ele>1329.64</ele>
        <time>2021-07-21T11:10:58Z</time>
      </trkpt>
      <trkpt lat="44.5337" lon="3.79438">
        <ele>1330.6</ele>
        <time>2021-07-21T11:11:08Z</time>
      </trkpt>
      <trkpt lat="44.53368" lon="3.7943">
        <ele>1330.12</ele>
        <time>2021-07-21T11:11:20Z</time>
      </trkpt>
      <trkpt lat="44.53368" lon="3.79429">
        <ele>1329.16</ele>
        <time>2021-07-21T11:11:27Z</time>
      </trkpt>
      <trkpt lat="44.53363" lon="3.79413">
        <ele>1325.31</ele>
        <time>2021-07-21T11:11:38Z</time>
      </trkpt>
      <trkpt lat="44.53361" lon="3.79412">
        <ele>1325.31</ele>
        <time>2021-07-21T11:11:40Z</time>
      </trkpt>
      <trkpt lat="44.53354" lon="3.7941">
        <ele>1327.72</ele>
        <time>2021-07-21T11:11:50Z</time>
      </trkpt>
      <trkpt lat="44.53353" lon="3.79412">
        <ele>1329.16</ele>
        <time>2021-07-21T11:11:55Z</time>
      </trkpt>
      <trkpt lat="44.5335" lon="3.7942">
        <ele>1333.97</ele>
        <time>2021-07-21T11:12:06Z</time>
      </trkpt>
      <trkpt lat="44.5335" lon="3.79421">
        <ele>1333.97</ele>
        <time>2021-07-21T11:12:07Z</time>
      </trkpt>
      <trkpt lat="44.5335" lon="3.7943">
        <ele>1334.93</ele>
        <time>2021-07-21T11:12:16Z</time>
      </trkpt>
      <trkpt lat="44.53348" lon="3.79448">
        <ele>1336.37</ele>
        <time>2021-07-21T11:12:29Z</time>
      </trkpt>
      <trkpt lat="44.53348" lon="3.79453">
        <ele>1336.37</ele>
        <time>2021-07-21T11:12:41Z</time>
      </trkpt>
      <trkpt lat="44.53348" lon="3.79456">
        <ele>1336.37</ele>
        <time>2021-07-21T11:12:59Z</time>
      </trkpt>
      <trkpt lat="44.53347" lon="3.7947">
        <ele>1335.41</ele>
        <time>2021-07-21T11:13:12Z</time>
      </trkpt>
      <trkpt lat="44.53347" lon="3.79473">
        <ele>1334.45</ele>
        <time>2021-07-21T11:13:19Z</time>
      </trkpt>
      <trkpt lat="44.5335" lon="3.7949">
        <ele>1331.56</ele>
        <time>2021-07-21T11:13:28Z</time>
      </trkpt>
      <trkpt lat="44.53349" lon="3.79497">
        <ele>1331.56</ele>
        <time>2021-07-21T11:13:32Z</time>
      </trkpt>
      <trkpt lat="44.53349" lon="3.79501">
        <ele>1331.08</ele>
        <time>2021-07-21T11:13:34Z</time>
      </trkpt>
      <trkpt lat="44.53357" lon="3.79517">
        <ele>1331.56</ele>
        <time>2021-07-21T11:13:45Z</time>
      </trkpt>
      <trkpt lat="44.53366" lon="3.79528">
        <ele>1333.49</ele>
        <time>2021-07-21T11:13:55Z</time>
      </trkpt>
      <trkpt lat="44.53374" lon="3.79534">
        <ele>1334.45</ele>
        <time>2021-07-21T11:14:03Z</time>
      </trkpt>
      <trkpt lat="44.5338" lon="3.79541">
        <ele>1335.41</ele>
        <time>2021-07-21T11:14:09Z</time>
      </trkpt>
      <trkpt lat="44.53384" lon="3.79546">
        <ele>1336.37</ele>
        <time>2021-07-21T11:14:14Z</time>
      </trkpt>
      <trkpt lat="44.53389" lon="3.79554">
        <ele>1336.37</ele>
        <time>2021-07-21T11:14:20Z</time>
      </trkpt>
      <trkpt lat="44.53398" lon="3.79562">
        <ele>1336.85</ele>
        <time>2021-07-21T11:14:29Z</time>
      </trkpt>
      <trkpt lat="44.53399" lon="3.79564">
        <ele>1336.85</ele>
        <time>2021-07-21T11:14:31Z</time>
      </trkpt>
      <trkpt lat="44.5341" lon="3.79578">
        <ele>1337.81</ele>
        <time>2021-07-21T11:14:44Z</time>
      </trkpt>
      <trkpt lat="44.53419" lon="3.79589">
        <ele>1337.33</ele>
        <time>2021-07-21T11:14:55Z</time>
      </trkpt>
      <trkpt lat="44.53422" lon="3.79593">
        <ele>1337.81</ele>
        <time>2021-07-21T11:14:58Z</time>
      </trkpt>
      <trkpt lat="44.53425" lon="3.79598">
        <ele>1338.29</ele>
        <time>2021-07-21T11:15:02Z</time>
      </trkpt>
      <trkpt lat="44.53431" lon="3.79607">
        <ele>1338.29</ele>
        <time>2021-07-21T11:15:09Z</time>
      </trkpt>
      <trkpt lat="44.5344" lon="3.79619">
        <ele>1340.7</ele>
        <time>2021-07-21T11:15:19Z</time>
      </trkpt>
      <trkpt lat="44.5345" lon="3.79638">
        <ele>1342.14</ele>
        <time>2021-07-21T11:15:30Z</time>
      </trkpt>
      <trkpt lat="44.5345" lon="3.79647">
        <ele>1343.1</ele>
        <time>2021-07-21T11:15:34Z</time>
      </trkpt>
      <trkpt lat="44.53448" lon="3.7965">
        <ele>1342.62</ele>
        <time>2021-07-21T11:15:37Z</time>
      </trkpt>
      <trkpt lat="44.53445" lon="3.79646">
        <ele>1342.62</ele>
        <time>2021-07-21T11:15:41Z</time>
      </trkpt>
      <trkpt lat="44.53444" lon="3.79641">
        <ele>1342.62</ele>
        <time>2021-07-21T11:15:44Z</time>
      </trkpt>
      <trkpt lat="44.53437" lon="3.7963">
        <ele>1343.1</ele>
        <time>2021-07-21T11:15:53Z</time>
      </trkpt>
      <trkpt lat="44.53423" lon="3.79615">
        <ele>1346.46</ele>
        <time>2021-07-21T11:16:08Z</time>
      </trkpt>
      <trkpt lat="44.53421" lon="3.79613">
        <ele>1345.98</ele>
        <time>2021-07-21T11:16:10Z</time>
      </trkpt>
      <trkpt lat="44.53401" lon="3.79606">
        <ele>1348.87</ele>
        <time>2021-07-21T11:16:25Z</time>
      </trkpt>
      <trkpt lat="44.53386" lon="3.79601">
        <ele>1352.23</ele>
        <time>2021-07-21T11:16:37Z</time>
      </trkpt>
      <trkpt lat="44.5337" lon="3.79594">
        <ele>1356.08</ele>
        <time>2021-07-21T11:16:50Z</time>
      </trkpt>
      <trkpt lat="44.5336" lon="3.79588">
        <ele>1356.08</ele>
        <time>2021-07-21T11:17:00Z</time>
      </trkpt>
      <trkpt lat="44.53344" lon="3.79576">
        <ele>1355.12</ele>
        <time>2021-07-21T11:17:13Z</time>
      </trkpt>
      <trkpt lat="44.53328" lon="3.79564">
        <ele>1356.08</ele>
        <time>2021-07-21T11:17:25Z</time>
      </trkpt>
      <trkpt lat="44.53315" lon="3.7955">
        <ele>1359.44</ele>
        <time>2021-07-21T11:17:37Z</time>
      </trkpt>
      <trkpt lat="44.53308" lon="3.79541">
        <ele>1359.44</ele>
        <time>2021-07-21T11:17:44Z</time>
      </trkpt>
      <trkpt lat="44.533" lon="3.79531">
        <ele>1362.33</ele>
        <time>2021-07-21T11:17:53Z</time>
      </trkpt>
      <trkpt lat="44.53288" lon="3.79511">
        <ele>1368.09</ele>
        <time>2021-07-21T11:18:07Z</time>
      </trkpt>
      <trkpt lat="44.53285" lon="3.79507">
        <ele>1369.05</ele>
        <time>2021-07-21T11:18:10Z</time>
      </trkpt>
      <trkpt lat="44.53282" lon="3.795">
        <ele>1370.5</ele>
        <time>2021-07-21T11:18:14Z</time>
      </trkpt>
      <trkpt lat="44.53279" lon="3.79495">
        <ele>1371.46</ele>
        <time>2021-07-21T11:18:17Z</time>
      </trkpt>
      <trkpt lat="44.53273" lon="3.79489">
        <ele>1372.9</ele>
        <time>2021-07-21T11:18:22Z</time>
      </trkpt>
      <trkpt lat="44.53261" lon="3.79463">
        <ele>1377.23</ele>
        <time>2021-07-21T11:18:35Z</time>
      </trkpt>
      <trkpt lat="44.53251" lon="3.79442">
        <ele>1381.07</ele>
        <time>2021-07-21T11:18:46Z</time>
      </trkpt>
      <trkpt lat="44.53243" lon="3.79427">
        <ele>1383.96</ele>
        <time>2021-07-21T11:18:55Z</time>
      </trkpt>
      <trkpt lat="44.53243" lon="3.79426">
        <ele>1384.44</ele>
        <time>2021-07-21T11:18:56Z</time>
      </trkpt>
      <trkpt lat="44.53235" lon="3.7941">
        <ele>1384.92</ele>
        <time>2021-07-21T11:19:04Z</time>
      </trkpt>
      <trkpt lat="44.53227" lon="3.79389">
        <ele>1388.28</ele>
        <time>2021-07-21T11:19:15Z</time>
      </trkpt>
      <trkpt lat="44.53218" lon="3.79364">
        <ele>1390.68</ele>
        <time>2021-07-21T11:19:26Z</time>
      </trkpt>
      <trkpt lat="44.53214" lon="3.79347">
        <ele>1388.76</ele>
        <time>2021-07-21T11:19:33Z</time>
      </trkpt>
      <trkpt lat="44.53214" lon="3.79338">
        <ele>1388.28</ele>
        <time>2021-07-21T11:19:37Z</time>
      </trkpt>
      <trkpt lat="44.53226" lon="3.79311">
        <ele>1384.92</ele>
        <time>2021-07-21T11:19:52Z</time>
      </trkpt>
      <trkpt lat="44.53228" lon="3.79309">
        <ele>1384.92</ele>
        <time>2021-07-21T11:19:54Z</time>
      </trkpt>
      <trkpt lat="44.53236" lon="3.79288">
        <ele>1385.88</ele>
        <time>2021-07-21T11:20:06Z</time>
      </trkpt>
      <trkpt lat="44.53236" lon="3.79284">
        <ele>1386.36</ele>
        <time>2021-07-21T11:20:08Z</time>
      </trkpt>
      <trkpt lat="44.53242" lon="3.79264">
        <ele>1385.4</ele>
        <time>2021-07-21T11:20:18Z</time>
      </trkpt>
      <trkpt lat="44.53244" lon="3.7925">
        <ele>1385.4</ele>
        <time>2021-07-21T11:20:25Z</time>
      </trkpt>
      <trkpt lat="44.53246" lon="3.79248">
        <ele>1385.4</ele>
        <time>2021-07-21T11:20:27Z</time>
      </trkpt>
      <trkpt lat="44.53251" lon="3.79225">
        <ele>1384.92</ele>
        <time>2021-07-21T11:20:36Z</time>
      </trkpt>
      <trkpt lat="44.53257" lon="3.79196">
        <ele>1382.99</ele>
        <time>2021-07-21T11:20:47Z</time>
      </trkpt>
      <trkpt lat="44.53257" lon="3.79194">
        <ele>1382.99</ele>
        <time>2021-07-21T11:20:48Z</time>
      </trkpt>
      <trkpt lat="44.53252" lon="3.79164">
        <ele>1382.03</ele>
        <time>2021-07-21T11:21:00Z</time>
      </trkpt>
      <trkpt lat="44.5325" lon="3.79151">
        <ele>1381.55</ele>
        <time>2021-07-21T11:21:13Z</time>
      </trkpt>
      <trkpt lat="44.53248" lon="3.7915">
        <ele>1381.07</ele>
        <time>2021-07-21T11:21:32Z</time>
      </trkpt>
      <trkpt lat="44.53247" lon="3.79149">
        <ele>1379.63</ele>
        <time>2021-07-21T11:21:50Z</time>
      </trkpt>
      <trkpt lat="44.53247" lon="3.79147">
        <ele>1379.63</ele>
        <time>2021-07-21T11:22:04Z</time>
      </trkpt>
      <trkpt lat="44.53249" lon="3.7914">
        <ele>1378.67</ele>
        <time>2021-07-21T11:22:09Z</time>
      </trkpt>
      <trkpt lat="44.53255" lon="3.79123">
        <ele>1374.82</ele>
        <time>2021-07-21T11:22:19Z</time>
      </trkpt>
      <trkpt lat="44.53252" lon="3.7909">
        <ele>1375.3</ele>
        <time>2021-07-21T11:22:32Z</time>
      </trkpt>
      <trkpt lat="44.53251" lon="3.79086">
        <ele>1375.3</ele>
        <time>2021-07-21T11:22:34Z</time>
      </trkpt>
      <trkpt lat="44.53253" lon="3.79069">
        <ele>1375.78</ele>
        <time>2021-07-21T11:22:43Z</time>
      </trkpt>
      <trkpt lat="44.53252" lon="3.79041">
        <ele>1374.82</ele>
        <time>2021-07-21T11:22:57Z</time>
      </trkpt>
      <trkpt lat="44.53254" lon="3.79031">
        <ele>1374.34</ele>
        <time>2021-07-21T11:23:02Z</time>
      </trkpt>
      <trkpt lat="44.53252" lon="3.79022">
        <ele>1373.86</ele>
        <time>2021-07-21T11:23:06Z</time>
      </trkpt>
      <trkpt lat="44.53249" lon="3.79001">
        <ele>1375.3</ele>
        <time>2021-07-21T11:23:16Z</time>
      </trkpt>
      <trkpt lat="44.53248" lon="3.7899">
        <ele>1376.26</ele>
        <time>2021-07-21T11:23:21Z</time>
      </trkpt>
      <trkpt lat="44.53245" lon="3.7897">
        <ele>1377.23</ele>
        <time>2021-07-21T11:23:30Z</time>
      </trkpt>
      <trkpt lat="44.53244" lon="3.78956">
        <ele>1378.67</ele>
        <time>2021-07-21T11:23:36Z</time>
      </trkpt>
      <trkpt lat="44.53236" lon="3.78918">
        <ele>1382.51</ele>
        <time>2021-07-21T11:23:54Z</time>
      </trkpt>
      <trkpt lat="44.53236" lon="3.78885">
        <ele>1385.4</ele>
        <time>2021-07-21T11:24:09Z</time>
      </trkpt>
      <trkpt lat="44.53237" lon="3.78883">
        <ele>1385.88</ele>
        <time>2021-07-21T11:24:10Z</time>
      </trkpt>
      <trkpt lat="44.53237" lon="3.7885">
        <ele>1388.76</ele>
        <time>2021-07-21T11:24:25Z</time>
      </trkpt>
      <trkpt lat="44.53238" lon="3.78815">
        <ele>1390.2</ele>
        <time>2021-07-21T11:24:41Z</time>
      </trkpt>
      <trkpt lat="44.53232" lon="3.78781">
        <ele>1393.09</ele>
        <time>2021-07-21T11:24:56Z</time>
      </trkpt>
      <trkpt lat="44.53228" lon="3.78761">
        <ele>1393.57</ele>
        <time>2021-07-21T11:25:05Z</time>
      </trkpt>
      <trkpt lat="44.53228" lon="3.78757">
        <ele>1394.05</ele>
        <time>2021-07-21T11:25:19Z</time>
      </trkpt>
      <trkpt lat="44.53228" lon="3.78756">
        <ele>1393.57</ele>
        <time>2021-07-21T11:25:43Z</time>
      </trkpt>
      <trkpt lat="44.53228" lon="3.78755">
        <ele>1394.53</ele>
        <time>2021-07-21T11:26:13Z</time>
      </trkpt>
      <trkpt lat="44.53227" lon="3.78755">
        <ele>1395.49</ele>
        <time>2021-07-21T11:26:28Z</time>
      </trkpt>
      <trkpt lat="44.53227" lon="3.78753">
        <ele>1395.97</ele>
        <time>2021-07-21T11:26:30Z</time>
      </trkpt>
      <trkpt lat="44.53224" lon="3.78747">
        <ele>1396.93</ele>
        <time>2021-07-21T11:26:34Z</time>
      </trkpt>
      <trkpt lat="44.5321" lon="3.78719">
        <ele>1398.37</ele>
        <time>2021-07-21T11:26:51Z</time>
      </trkpt>
      <trkpt lat="44.53204" lon="3.78711">
        <ele>1398.37</ele>
        <time>2021-07-21T11:26:57Z</time>
      </trkpt>
      <trkpt lat="44.53199" lon="3.78706">
        <ele>1397.89</ele>
        <time>2021-07-21T11:27:01Z</time>
      </trkpt>
      <trkpt lat="44.53183" lon="3.7869">
        <ele>1399.34</ele>
        <time>2021-07-21T11:27:14Z</time>
      </trkpt>
      <trkpt lat="44.53161" lon="3.7867">
        <ele>1401.74</ele>
        <time>2021-07-21T11:27:30Z</time>
      </trkpt>
      <trkpt lat="44.53153" lon="3.78663">
        <ele>1402.7</ele>
        <time>2021-07-21T11:27:36Z</time>
      </trkpt>
      <trkpt lat="44.53149" lon="3.78657">
        <ele>1403.18</ele>
        <time>2021-07-21T11:27:40Z</time>
      </trkpt>
      <trkpt lat="44.53137" lon="3.7865">
        <ele>1404.62</ele>
        <time>2021-07-21T11:27:50Z</time>
      </trkpt>
      <trkpt lat="44.53122" lon="3.78637">
        <ele>1406.07</ele>
        <time>2021-07-21T11:28:02Z</time>
      </trkpt>
      <trkpt lat="44.53104" lon="3.78622">
        <ele>1406.07</ele>
        <time>2021-07-21T11:28:16Z</time>
      </trkpt>
      <trkpt lat="44.53084" lon="3.78603">
        <ele>1407.99</ele>
        <time>2021-07-21T11:28:32Z</time>
      </trkpt>
      <trkpt lat="44.5307" lon="3.78588">
        <ele>1410.87</ele>
        <time>2021-07-21T11:28:43Z</time>
      </trkpt>
      <trkpt lat="44.53068" lon="3.78585">
        <ele>1411.35</ele>
        <time>2021-07-21T11:28:45Z</time>
      </trkpt>
      <trkpt lat="44.53059" lon="3.78577">
        <ele>1411.35</ele>
        <time>2021-07-21T11:28:51Z</time>
      </trkpt>
      <trkpt lat="44.53041" lon="3.78556">
        <ele>1412.31</ele>
        <time>2021-07-21T11:29:04Z</time>
      </trkpt>
      <trkpt lat="44.53013" lon="3.78547">
        <ele>1413.28</ele>
        <time>2021-07-21T11:29:20Z</time>
      </trkpt>
      <trkpt lat="44.53009" lon="3.78545">
        <ele>1413.28</ele>
        <time>2021-07-21T11:29:23Z</time>
      </trkpt>
      <trkpt lat="44.53006" lon="3.78546">
        <ele>1413.76</ele>
        <time>2021-07-21T11:29:36Z</time>
      </trkpt>
      <trkpt lat="44.53008" lon="3.78547">
        <ele>1412.79</ele>
        <time>2021-07-21T11:30:06Z</time>
      </trkpt>
      <trkpt lat="44.53006" lon="3.78547">
        <ele>1412.31</ele>
        <time>2021-07-21T11:30:34Z</time>
      </trkpt>
      <trkpt lat="44.53007" lon="3.78547">
        <ele>1412.79</ele>
        <time>2021-07-21T11:31:04Z</time>
      </trkpt>
      <trkpt lat="44.53" lon="3.78547">
        <ele>1412.79</ele>
        <time>2021-07-21T11:31:14Z</time>
      </trkpt>
      <trkpt lat="44.52979" lon="3.78562">
        <ele>1411.35</ele>
        <time>2021-07-21T11:31:22Z</time>
      </trkpt>
      <trkpt lat="44.52972" lon="3.78574">
        <ele>1411.35</ele>
        <time>2021-07-21T11:31:25Z</time>
      </trkpt>
      <trkpt lat="44.52965" lon="3.78589">
        <ele>1411.35</ele>
        <time>2021-07-21T11:31:28Z</time>
      </trkpt>
      <trkpt lat="44.52915" lon="3.78654">
        <ele>1411.83</ele>
        <time>2021-07-21T11:31:39Z</time>
      </trkpt>
      <trkpt lat="44.52892" lon="3.7868">
        <ele>1411.35</ele>
        <time>2021-07-21T11:31:43Z</time>
      </trkpt>
      <trkpt lat="44.52876" lon="3.78702">
        <ele>1411.35</ele>
        <time>2021-07-21T11:31:46Z</time>
      </trkpt>
      <trkpt lat="44.52855" lon="3.78746">
        <ele>1410.87</ele>
        <time>2021-07-21T11:31:51Z</time>
      </trkpt>
      <trkpt lat="44.52824" lon="3.78848">
        <ele>1407.51</ele>
        <time>2021-07-21T11:32:01Z</time>
      </trkpt>
      <trkpt lat="44.52801" lon="3.78898">
        <ele>1405.1</ele>
        <time>2021-07-21T11:32:06Z</time>
      </trkpt>
      <trkpt lat="44.52785" lon="3.78927">
        <ele>1404.14</ele>
        <time>2021-07-21T11:32:09Z</time>
      </trkpt>
      <trkpt lat="44.52774" lon="3.78945">
        <ele>1403.66</ele>
        <time>2021-07-21T11:32:11Z</time>
      </trkpt>
      <trkpt lat="44.52753" lon="3.78968">
        <ele>1402.22</ele>
        <time>2021-07-21T11:32:14Z</time>
      </trkpt>
      <trkpt lat="44.52707" lon="3.78996">
        <ele>1399.34</ele>
        <time>2021-07-21T11:32:20Z</time>
      </trkpt>
      <trkpt lat="44.52684" lon="3.79001">
        <ele>1397.89</ele>
        <time>2021-07-21T11:32:23Z</time>
      </trkpt>
      <trkpt lat="44.52655" lon="3.79002">
        <ele>1395.01</ele>
        <time>2021-07-21T11:32:27Z</time>
      </trkpt>
      <trkpt lat="44.52604" lon="3.79007">
        <ele>1392.61</ele>
        <time>2021-07-21T11:32:35Z</time>
      </trkpt>
      <trkpt lat="44.52562" lon="3.79028">
        <ele>1392.13</ele>
        <time>2021-07-21T11:32:44Z</time>
      </trkpt>
      <trkpt lat="44.52535" lon="3.79044">
        <ele>1392.61</ele>
        <time>2021-07-21T11:32:50Z</time>
      </trkpt>
      <trkpt lat="44.52473" lon="3.79104">
        <ele>1390.68</ele>
        <time>2021-07-21T11:33:05Z</time>
      </trkpt>
      <trkpt lat="44.5245" lon="3.79139">
        <ele>1389.24</ele>
        <time>2021-07-21T11:33:11Z</time>
      </trkpt>
      <trkpt lat="44.5242" lon="3.79213">
        <ele>1387.32</ele>
        <time>2021-07-21T11:33:20Z</time>
      </trkpt>
      <trkpt lat="44.5238" lon="3.79308">
        <ele>1385.88</ele>
        <time>2021-07-21T11:33:32Z</time>
      </trkpt>
      <trkpt lat="44.52373" lon="3.79321">
        <ele>1385.88</ele>
        <time>2021-07-21T11:33:34Z</time>
      </trkpt>
      <trkpt lat="44.52366" lon="3.79352">
        <ele>1385.88</ele>
        <time>2021-07-21T11:33:38Z</time>
      </trkpt>
      <trkpt lat="44.52366" lon="3.79368">
        <ele>1385.88</ele>
        <time>2021-07-21T11:33:40Z</time>
      </trkpt>
      <trkpt lat="44.52363" lon="3.79398">
        <ele>1384.92</ele>
        <time>2021-07-21T11:33:44Z</time>
      </trkpt>
      <trkpt lat="44.52357" lon="3.79452">
        <ele>1384.44</ele>
        <time>2021-07-21T11:33:50Z</time>
      </trkpt>
      <trkpt lat="44.52335" lon="3.7953">
        <ele>1379.63</ele>
        <time>2021-07-21T11:33:57Z</time>
      </trkpt>
      <trkpt lat="44.52292" lon="3.79611">
        <ele>1374.34</ele>
        <time>2021-07-21T11:34:05Z</time>
      </trkpt>
      <trkpt lat="44.52274" lon="3.79632">
        <ele>1372.9</ele>
        <time>2021-07-21T11:34:08Z</time>
      </trkpt>
      <trkpt lat="44.52241" lon="3.79634">
        <ele>1370.5</ele>
        <time>2021-07-21T11:34:13Z</time>
      </trkpt>
      <trkpt lat="44.52142" lon="3.79609">
        <ele>1358.96</ele>
        <time>2021-07-21T11:34:24Z</time>
      </trkpt>
      <trkpt lat="44.52101" lon="3.79593">
        <ele>1350.31</ele>
        <time>2021-07-21T11:34:29Z</time>
      </trkpt>
      <trkpt lat="44.52086" lon="3.79586">
        <ele>1346.94</ele>
        <time>2021-07-21T11:34:31Z</time>
      </trkpt>
      <trkpt lat="44.52043" lon="3.7958">
        <ele>1338.77</ele>
        <time>2021-07-21T11:34:36Z</time>
      </trkpt>
      <trkpt lat="44.52027" lon="3.79581">
        <ele>1335.41</ele>
        <time>2021-07-21T11:34:38Z</time>
      </trkpt>
      <trkpt lat="44.52014" lon="3.79584">
        <ele>1332.04</ele>
        <time>2021-07-21T11:34:40Z</time>
      </trkpt>
      <trkpt lat="44.51957" lon="3.79609">
        <ele>1317.62</ele>
        <time>2021-07-21T11:34:49Z</time>
      </trkpt>
      <trkpt lat="44.51928" lon="3.7964">
        <ele>1309.45</ele>
        <time>2021-07-21T11:34:54Z</time>
      </trkpt>
      <trkpt lat="44.51899" lon="3.79676">
        <ele>1302.24</ele>
        <time>2021-07-21T11:34:59Z</time>
      </trkpt>
      <trkpt lat="44.51863" lon="3.79701">
        <ele>1295.51</ele>
        <time>2021-07-21T11:35:04Z</time>
      </trkpt>
      <trkpt lat="44.51835" lon="3.79722">
        <ele>1293.59</ele>
        <time>2021-07-21T11:35:08Z</time>
      </trkpt>
      <trkpt lat="44.51782" lon="3.7976">
        <ele>1292.15</ele>
        <time>2021-07-21T11:35:15Z</time>
      </trkpt>
      <trkpt lat="44.517" lon="3.798">
        <ele>1287.82</ele>
        <time>2021-07-21T11:35:24Z</time>
      </trkpt>
      <trkpt lat="44.51674" lon="3.79811">
        <ele>1285.42</ele>
        <time>2021-07-21T11:35:27Z</time>
      </trkpt>
      <trkpt lat="44.51654" lon="3.7982">
        <ele>1282.54</ele>
        <time>2021-07-21T11:35:30Z</time>
      </trkpt>
      <trkpt lat="44.51613" lon="3.79844">
        <ele>1272.44</ele>
        <time>2021-07-21T11:35:41Z</time>
      </trkpt>
      <trkpt lat="44.51607" lon="3.79844">
        <ele>1270.52</ele>
        <time>2021-07-21T11:35:43Z</time>
      </trkpt>
      <trkpt lat="44.51603" lon="3.79839">
        <ele>1267.16</ele>
        <time>2021-07-21T11:35:53Z</time>
      </trkpt>
      <trkpt lat="44.51606" lon="3.79837">
        <ele>1265.71</ele>
        <time>2021-07-21T11:35:56Z</time>
      </trkpt>
      <trkpt lat="44.51617" lon="3.79829">
        <ele>1262.83</ele>
        <time>2021-07-21T11:36:08Z</time>
      </trkpt>
      <trkpt lat="44.51623" lon="3.79826">
        <ele>1263.31</ele>
        <time>2021-07-21T11:36:21Z</time>
      </trkpt>
      <trkpt lat="44.51626" lon="3.79825">
        <ele>1262.83</ele>
        <time>2021-07-21T11:36:44Z</time>
      </trkpt>
      <trkpt lat="44.51625" lon="3.79824">
        <ele>1263.79</ele>
        <time>2021-07-21T11:37:14Z</time>
      </trkpt>
      <trkpt lat="44.51625" lon="3.79823">
        <ele>1264.27</ele>
        <time>2021-07-21T11:37:53Z</time>
      </trkpt>
      <trkpt lat="44.51624" lon="3.79823">
        <ele>1265.23</ele>
        <time>2021-07-21T11:38:27Z</time>
      </trkpt>
      <trkpt lat="44.51625" lon="3.79822">
        <ele>1264.27</ele>
        <time>2021-07-21T11:38:58Z</time>
      </trkpt>
      <trkpt lat="44.51626" lon="3.79819">
        <ele>1264.27</ele>
        <time>2021-07-21T11:39:13Z</time>
      </trkpt>
      <trkpt lat="44.51636" lon="3.79812">
        <ele>1264.27</ele>
        <time>2021-07-21T11:39:22Z</time>
      </trkpt>
      <trkpt lat="44.51637" lon="3.79811">
        <ele>1264.27</ele>
        <time>2021-07-21T11:39:23Z</time>
      </trkpt>
      <trkpt lat="44.51645" lon="3.79802">
        <ele>1265.23</ele>
        <time>2021-07-21T11:39:28Z</time>
      </trkpt>
      <trkpt lat="44.51673" lon="3.79762">
        <ele>1262.35</ele>
        <time>2021-07-21T11:39:40Z</time>
      </trkpt>
      <trkpt lat="44.5169" lon="3.79727">
        <ele>1260.91</ele>
        <time>2021-07-21T11:39:51Z</time>
      </trkpt>
      <trkpt lat="44.51716" lon="3.79682">
        <ele>1257.54</ele>
        <time>2021-07-21T11:40:01Z</time>
      </trkpt>
      <trkpt lat="44.51724" lon="3.79669">
        <ele>1257.54</ele>
        <time>2021-07-21T11:40:06Z</time>
      </trkpt>
      <trkpt lat="44.51742" lon="3.79645">
        <ele>1256.58</ele>
        <time>2021-07-21T11:40:16Z</time>
      </trkpt>
      <trkpt lat="44.51756" lon="3.79619">
        <ele>1253.22</ele>
        <time>2021-07-21T11:40:22Z</time>
      </trkpt>
      <trkpt lat="44.51768" lon="3.79568">
        <ele>1248.41</ele>
        <time>2021-07-21T11:40:28Z</time>
      </trkpt>
      <trkpt lat="44.51782" lon="3.79524">
        <ele>1244.56</ele>
        <time>2021-07-21T11:40:32Z</time>
      </trkpt>
      <trkpt lat="44.51813" lon="3.79479">
        <ele>1239.76</ele>
        <time>2021-07-21T11:40:38Z</time>
      </trkpt>
      <trkpt lat="44.5182" lon="3.79469">
        <ele>1235.43</ele>
        <time>2021-07-21T11:40:43Z</time>
      </trkpt>
      <trkpt lat="44.51822" lon="3.79451">
        <ele>1233.99</ele>
        <time>2021-07-21T11:40:54Z</time>
      </trkpt>
      <trkpt lat="44.51821" lon="3.79431">
        <ele>1235.91</ele>
        <time>2021-07-21T11:41:05Z</time>
      </trkpt>
      <trkpt lat="44.5182" lon="3.79425">
        <ele>1237.83</ele>
        <time>2021-07-21T11:41:10Z</time>
      </trkpt>
      <trkpt lat="44.51821" lon="3.79414">
        <ele>1242.64</ele>
        <time>2021-07-21T11:41:21Z</time>
      </trkpt>
      <trkpt lat="44.51815" lon="3.79403">
        <ele>1246.01</ele>
        <time>2021-07-21T11:41:33Z</time>
      </trkpt>
      <trkpt lat="44.51816" lon="3.79399">
        <ele>1246.97</ele>
        <time>2021-07-21T11:41:38Z</time>
      </trkpt>
      <trkpt lat="44.51816" lon="3.7939">
        <ele>1248.41</ele>
        <time>2021-07-21T11:41:49Z</time>
      </trkpt>
      <trkpt lat="44.51819" lon="3.79378">
        <ele>1250.33</ele>
        <time>2021-07-21T11:42:02Z</time>
      </trkpt>
      <trkpt lat="44.51819" lon="3.79374">
        <ele>1253.7</ele>
        <time>2021-07-21T11:42:20Z</time>
      </trkpt>
      <trkpt lat="44.51818" lon="3.79364">
        <ele>1256.1</ele>
        <time>2021-07-21T11:42:31Z</time>
      </trkpt>
      <trkpt lat="44.51813" lon="3.79363">
        <ele>1257.54</ele>
        <time>2021-07-21T11:42:35Z</time>
      </trkpt>
      <trkpt lat="44.51802" lon="3.79369">
        <ele>1261.39</ele>
        <time>2021-07-21T11:42:47Z</time>
      </trkpt>
      <trkpt lat="44.51802" lon="3.79368">
        <ele>1266.67</ele>
        <time>2021-07-21T11:43:01Z</time>
      </trkpt>
      <trkpt lat="44.51801" lon="3.79369">
        <ele>1267.16</ele>
        <time>2021-07-21T11:43:28Z</time>
      </trkpt>
      <trkpt lat="44.518" lon="3.79368">
        <ele>1267.16</ele>
        <time>2021-07-21T11:43:44Z</time>
      </trkpt>
      <trkpt lat="44.51799" lon="3.79369">
        <ele>1269.56</ele>
        <time>2021-07-21T11:44:11Z</time>
      </trkpt>
      <trkpt lat="44.51799" lon="3.79369">
        <ele>1268.6</ele>
        <time>2021-07-21T11:44:33Z</time>
      </trkpt>
      <trkpt lat="44.51793" lon="3.79376">
        <ele>1268.6</ele>
        <time>2021-07-21T11:44:45Z</time>
      </trkpt>
      <trkpt lat="44.51792" lon="3.79376">
        <ele>1269.56</ele>
        <time>2021-07-21T11:44:53Z</time>
      </trkpt>
      <trkpt lat="44.5179" lon="3.79378">
        <ele>1269.56</ele>
        <time>2021-07-21T11:44:56Z</time>
      </trkpt>
      <trkpt lat="44.51773" lon="3.79398">
        <ele>1272.44</ele>
        <time>2021-07-21T11:45:09Z</time>
      </trkpt>
      <trkpt lat="44.5177" lon="3.79406">
        <ele>1274.36</ele>
        <time>2021-07-21T11:45:15Z</time>
      </trkpt>
      <trkpt lat="44.51753" lon="3.79423">
        <ele>1277.73</ele>
        <time>2021-07-21T11:45:26Z</time>
      </trkpt>
      <trkpt lat="44.51751" lon="3.79426">
        <ele>1278.21</ele>
        <time>2021-07-21T11:45:28Z</time>
      </trkpt>
      <trkpt lat="44.51741" lon="3.79436">
        <ele>1279.17</ele>
        <time>2021-07-21T11:45:37Z</time>
      </trkpt>
      <trkpt lat="44.51731" lon="3.79447">
        <ele>1278.21</ele>
        <time>2021-07-21T11:45:44Z</time>
      </trkpt>
      <trkpt lat="44.51726" lon="3.7944">
        <ele>1278.69</ele>
        <time>2021-07-21T11:45:52Z</time>
      </trkpt>
      <trkpt lat="44.51732" lon="3.79435">
        <ele>1278.69</ele>
        <time>2021-07-21T11:45:57Z</time>
      </trkpt>
      <trkpt lat="44.51735" lon="3.7943">
        <ele>1279.65</ele>
        <time>2021-07-21T11:46:01Z</time>
      </trkpt>
      <trkpt lat="44.51742" lon="3.79419">
        <ele>1278.21</ele>
        <time>2021-07-21T11:46:07Z</time>
      </trkpt>
      <trkpt lat="44.51751" lon="3.79398">
        <ele>1275.81</ele>
        <time>2021-07-21T11:46:18Z</time>
      </trkpt>
      <trkpt lat="44.5176" lon="3.79374">
        <ele>1275.81</ele>
        <time>2021-07-21T11:46:30Z</time>
      </trkpt>
      <trkpt lat="44.51773" lon="3.79353">
        <ele>1281.57</ele>
        <time>2021-07-21T11:46:43Z</time>
      </trkpt>
      <trkpt lat="44.51774" lon="3.79351">
        <ele>1281.57</ele>
        <time>2021-07-21T11:46:44Z</time>
      </trkpt>
      <trkpt lat="44.51779" lon="3.79334">
        <ele>1281.09</ele>
        <time>2021-07-21T11:46:52Z</time>
      </trkpt>
      <trkpt lat="44.5179" lon="3.79308">
        <ele>1283.02</ele>
        <time>2021-07-21T11:47:05Z</time>
      </trkpt>
      <trkpt lat="44.51789" lon="3.79302">
        <ele>1283.5</ele>
        <time>2021-07-21T11:47:09Z</time>
      </trkpt>
      <trkpt lat="44.51794" lon="3.79293">
        <ele>1282.06</ele>
        <time>2021-07-21T11:47:13Z</time>
      </trkpt>
      <trkpt lat="44.51796" lon="3.79286">
        <ele>1281.09</ele>
        <time>2021-07-21T11:47:16Z</time>
      </trkpt>
      <trkpt lat="44.51799" lon="3.79282">
        <ele>1280.61</ele>
        <time>2021-07-21T11:47:19Z</time>
      </trkpt>
      <trkpt lat="44.51803" lon="3.79272">
        <ele>1280.61</ele>
        <time>2021-07-21T11:47:23Z</time>
      </trkpt>
      <trkpt lat="44.51813" lon="3.79254">
        <ele>1282.06</ele>
        <time>2021-07-21T11:47:31Z</time>
      </trkpt>
      <trkpt lat="44.51822" lon="3.79246">
        <ele>1282.06</ele>
        <time>2021-07-21T11:47:38Z</time>
      </trkpt>
      <trkpt lat="44.51828" lon="3.79235">
        <ele>1283.02</ele>
        <time>2021-07-21T11:47:43Z</time>
      </trkpt>
      <trkpt lat="44.51828" lon="3.7921">
        <ele>1285.9</ele>
        <time>2021-07-21T11:47:52Z</time>
      </trkpt>
      <trkpt lat="44.51836" lon="3.7919">
        <ele>1286.86</ele>
        <time>2021-07-21T11:48:03Z</time>
      </trkpt>
      <trkpt lat="44.51836" lon="3.79188">
        <ele>1286.86</ele>
        <time>2021-07-21T11:48:05Z</time>
      </trkpt>
      <trkpt lat="44.51841" lon="3.79166">
        <ele>1284.46</ele>
        <time>2021-07-21T11:48:16Z</time>
      </trkpt>
      <trkpt lat="44.51851" lon="3.79142">
        <ele>1281.57</ele>
        <time>2021-07-21T11:48:28Z</time>
      </trkpt>
      <trkpt lat="44.51854" lon="3.79127">
        <ele>1279.65</ele>
        <time>2021-07-21T11:48:35Z</time>
      </trkpt>
      <trkpt lat="44.51856" lon="3.79117">
        <ele>1279.17</ele>
        <time>2021-07-21T11:48:40Z</time>
      </trkpt>
      <trkpt lat="44.51862" lon="3.79102">
        <ele>1278.69</ele>
        <time>2021-07-21T11:48:46Z</time>
      </trkpt>
      <trkpt lat="44.51871" lon="3.79083">
        <ele>1274.85</ele>
        <time>2021-07-21T11:48:57Z</time>
      </trkpt>
      <trkpt lat="44.51873" lon="3.79065">
        <ele>1278.21</ele>
        <time>2021-07-21T11:49:08Z</time>
      </trkpt>
      <trkpt lat="44.51875" lon="3.79057">
        <ele>1277.73</ele>
        <time>2021-07-21T11:49:13Z</time>
      </trkpt>
      <trkpt lat="44.51876" lon="3.79053">
        <ele>1277.25</ele>
        <time>2021-07-21T11:49:15Z</time>
      </trkpt>
      <trkpt lat="44.51878" lon="3.79046">
        <ele>1277.25</ele>
        <time>2021-07-21T11:49:29Z</time>
      </trkpt>
      <trkpt lat="44.51881" lon="3.79044">
        <ele>1283.02</ele>
        <time>2021-07-21T11:49:54Z</time>
      </trkpt>
      <trkpt lat="44.51881" lon="3.79044">
        <ele>1283.98</ele>
        <time>2021-07-21T11:50:14Z</time>
      </trkpt>
      <trkpt lat="44.51881" lon="3.79043">
        <ele>1283.98</ele>
        <time>2021-07-21T11:50:17Z</time>
      </trkpt>
      <trkpt lat="44.51884" lon="3.79032">
        <ele>1284.94</ele>
        <time>2021-07-21T11:50:26Z</time>
      </trkpt>
      <trkpt lat="44.51884" lon="3.79017">
        <ele>1288.3</ele>
        <time>2021-07-21T11:50:36Z</time>
      </trkpt>
      <trkpt lat="44.51879" lon="3.78997">
        <ele>1295.03</ele>
        <time>2021-07-21T11:50:48Z</time>
      </trkpt>
      <trkpt lat="44.51874" lon="3.78987">
        <ele>1298.4</ele>
        <time>2021-07-21T11:50:54Z</time>
      </trkpt>
      <trkpt lat="44.5187" lon="3.78966">
        <ele>1302.24</ele>
        <time>2021-07-21T11:51:05Z</time>
      </trkpt>
      <trkpt lat="44.51872" lon="3.78964">
        <ele>1303.2</ele>
        <time>2021-07-21T11:51:17Z</time>
      </trkpt>
      <trkpt lat="44.5187" lon="3.78962">
        <ele>1301.28</ele>
        <time>2021-07-21T11:51:43Z</time>
      </trkpt>
      <trkpt lat="44.51867" lon="3.7896">
        <ele>1303.2</ele>
        <time>2021-07-21T11:52:09Z</time>
      </trkpt>
      <trkpt lat="44.51867" lon="3.78959">
        <ele>1304.65</ele>
        <time>2021-07-21T11:52:29Z</time>
      </trkpt>
      <trkpt lat="44.51868" lon="3.78958">
        <ele>1306.57</ele>
        <time>2021-07-21T11:52:55Z</time>
      </trkpt>
      <trkpt lat="44.51872" lon="3.78952">
        <ele>1305.61</ele>
        <time>2021-07-21T11:53:00Z</time>
      </trkpt>
      <trkpt lat="44.51882" lon="3.78951">
        <ele>1304.65</ele>
        <time>2021-07-21T11:53:11Z</time>
      </trkpt>
      <trkpt lat="44.51898" lon="3.78959">
        <ele>1303.69</ele>
        <time>2021-07-21T11:53:23Z</time>
      </trkpt>
      <trkpt lat="44.51909" lon="3.78958">
        <ele>1302.72</ele>
        <time>2021-07-21T11:53:33Z</time>
      </trkpt>
      <trkpt lat="44.51914" lon="3.78953">
        <ele>1301.28</ele>
        <time>2021-07-21T11:53:37Z</time>
      </trkpt>
      <trkpt lat="44.51921" lon="3.78949">
        <ele>1301.28</ele>
        <time>2021-07-21T11:53:40Z</time>
      </trkpt>
      <trkpt lat="44.51926" lon="3.78944">
        <ele>1299.84</ele>
        <time>2021-07-21T11:53:43Z</time>
      </trkpt>
      <trkpt lat="44.51943" lon="3.78926">
        <ele>1297.44</ele>
        <time>2021-07-21T11:53:54Z</time>
      </trkpt>
      <trkpt lat="44.51947" lon="3.78921">
        <ele>1296.96</ele>
        <time>2021-07-21T11:53:58Z</time>
      </trkpt>
      <trkpt lat="44.51951" lon="3.78915">
        <ele>1296.96</ele>
        <time>2021-07-21T11:54:01Z</time>
      </trkpt>
      <trkpt lat="44.51955" lon="3.7891">
        <ele>1297.44</ele>
        <time>2021-07-21T11:54:04Z</time>
      </trkpt>
      <trkpt lat="44.51973" lon="3.78883">
        <ele>1300.8</ele>
        <time>2021-07-21T11:54:15Z</time>
      </trkpt>
      <trkpt lat="44.51976" lon="3.78877">
        <ele>1300.8</ele>
        <time>2021-07-21T11:54:18Z</time>
      </trkpt>
      <trkpt lat="44.51984" lon="3.78865">
        <ele>1301.28</ele>
        <time>2021-07-21T11:54:23Z</time>
      </trkpt>
      <trkpt lat="44.51986" lon="3.78861">
        <ele>1301.76</ele>
        <time>2021-07-21T11:54:25Z</time>
      </trkpt>
      <trkpt lat="44.51997" lon="3.78832">
        <ele>1299.84</ele>
        <time>2021-07-21T11:54:36Z</time>
      </trkpt>
      <trkpt lat="44.52004" lon="3.78822">
        <ele>1300.32</ele>
        <time>2021-07-21T11:54:40Z</time>
      </trkpt>
      <trkpt lat="44.52017" lon="3.78788">
        <ele>1301.28</ele>
        <time>2021-07-21T11:54:53Z</time>
      </trkpt>
      <trkpt lat="44.52021" lon="3.78777">
        <ele>1299.84</ele>
        <time>2021-07-21T11:54:58Z</time>
      </trkpt>
      <trkpt lat="44.5203" lon="3.78749">
        <ele>1293.11</ele>
        <time>2021-07-21T11:55:10Z</time>
      </trkpt>
      <trkpt lat="44.52032" lon="3.78744">
        <ele>1293.59</ele>
        <time>2021-07-21T11:55:12Z</time>
      </trkpt>
      <trkpt lat="44.52044" lon="3.78713">
        <ele>1295.03</ele>
        <time>2021-07-21T11:55:25Z</time>
      </trkpt>
      <trkpt lat="44.52055" lon="3.7868">
        <ele>1295.03</ele>
        <time>2021-07-21T11:55:38Z</time>
      </trkpt>
      <trkpt lat="44.5206" lon="3.78668">
        <ele>1297.44</ele>
        <time>2021-07-21T11:55:44Z</time>
      </trkpt>
      <trkpt lat="44.52064" lon="3.78659">
        <ele>1297.44</ele>
        <time>2021-07-21T11:55:48Z</time>
      </trkpt>
      <trkpt lat="44.52067" lon="3.7865">
        <ele>1296.96</ele>
        <time>2021-07-21T11:55:53Z</time>
      </trkpt>
      <trkpt lat="44.52075" lon="3.78634">
        <ele>1297.44</ele>
        <time>2021-07-21T11:56:01Z</time>
      </trkpt>
      <trkpt lat="44.52077" lon="3.78612">
        <ele>1300.32</ele>
        <time>2021-07-21T11:56:11Z</time>
      </trkpt>
      <trkpt lat="44.52081" lon="3.78589">
        <ele>1302.24</ele>
        <time>2021-07-21T11:56:20Z</time>
      </trkpt>
      <trkpt lat="44.52086" lon="3.78577">
        <ele>1303.2</ele>
        <time>2021-07-21T11:56:29Z</time>
      </trkpt>
      <trkpt lat="44.52092" lon="3.78565">
        <ele>1304.65</ele>
        <time>2021-07-21T11:56:39Z</time>
      </trkpt>
      <trkpt lat="44.52098" lon="3.78552">
        <ele>1305.13</ele>
        <time>2021-07-21T11:56:49Z</time>
      </trkpt>
      <trkpt lat="44.521" lon="3.78543">
        <ele>1307.05</ele>
        <time>2021-07-21T11:56:55Z</time>
      </trkpt>
      <trkpt lat="44.52103" lon="3.78537">
        <ele>1308.49</ele>
        <time>2021-07-21T11:56:59Z</time>
      </trkpt>
      <trkpt lat="44.52112" lon="3.7852">
        <ele>1310.41</ele>
        <time>2021-07-21T11:57:07Z</time>
      </trkpt>
      <trkpt lat="44.5212" lon="3.78493">
        <ele>1309.93</ele>
        <time>2021-07-21T11:57:20Z</time>
      </trkpt>
      <trkpt lat="44.52131" lon="3.78464">
        <ele>1312.82</ele>
        <time>2021-07-21T11:57:34Z</time>
      </trkpt>
      <trkpt lat="44.52132" lon="3.78462">
        <ele>1313.3</ele>
        <time>2021-07-21T11:57:35Z</time>
      </trkpt>
      <trkpt lat="44.52134" lon="3.7846">
        <ele>1313.3</ele>
        <time>2021-07-21T11:57:37Z</time>
      </trkpt>
      <trkpt lat="44.52134" lon="3.78451">
        <ele>1313.78</ele>
        <time>2021-07-21T11:57:42Z</time>
      </trkpt>
      <trkpt lat="44.52136" lon="3.78447">
        <ele>1314.26</ele>
        <time>2021-07-21T11:57:45Z</time>
      </trkpt>
      <trkpt lat="44.52139" lon="3.78437">
        <ele>1313.3</ele>
        <time>2021-07-21T11:57:50Z</time>
      </trkpt>
      <trkpt lat="44.52142" lon="3.78423">
        <ele>1315.22</ele>
        <time>2021-07-21T11:57:59Z</time>
      </trkpt>
      <trkpt lat="44.5215" lon="3.78407">
        <ele>1318.1</ele>
        <time>2021-07-21T11:58:07Z</time>
      </trkpt>
      <trkpt lat="44.52147" lon="3.78394">
        <ele>1320.51</ele>
        <time>2021-07-21T11:58:15Z</time>
      </trkpt>
      <trkpt lat="44.52142" lon="3.78395">
        <ele>1321.95</ele>
        <time>2021-07-21T11:58:19Z</time>
      </trkpt>
      <trkpt lat="44.52139" lon="3.784">
        <ele>1321.95</ele>
        <time>2021-07-21T11:58:33Z</time>
      </trkpt>
      <trkpt lat="44.52138" lon="3.78408">
        <ele>1325.8</ele>
        <time>2021-07-21T11:58:43Z</time>
      </trkpt>
      <trkpt lat="44.52124" lon="3.78425">
        <ele>1325.8</ele>
        <time>2021-07-21T11:58:56Z</time>
      </trkpt>
      <trkpt lat="44.52112" lon="3.78437">
        <ele>1325.8</ele>
        <time>2021-07-21T11:59:10Z</time>
      </trkpt>
      <trkpt lat="44.52104" lon="3.7845">
        <ele>1324.83</ele>
        <time>2021-07-21T11:59:22Z</time>
      </trkpt>
      <trkpt lat="44.52103" lon="3.78452">
        <ele>1324.35</ele>
        <time>2021-07-21T11:59:23Z</time>
      </trkpt>
      <trkpt lat="44.52096" lon="3.7847">
        <ele>1324.83</ele>
        <time>2021-07-21T11:59:36Z</time>
      </trkpt>
      <trkpt lat="44.52088" lon="3.78485">
        <ele>1322.91</ele>
        <time>2021-07-21T11:59:48Z</time>
      </trkpt>
      <trkpt lat="44.52088" lon="3.78486">
        <ele>1322.91</ele>
        <time>2021-07-21T11:59:49Z</time>
      </trkpt>
      <trkpt lat="44.52077" lon="3.78505">
        <ele>1326.28</ele>
        <time>2021-07-21T12:00:03Z</time>
      </trkpt>
      <trkpt lat="44.52064" lon="3.78521">
        <ele>1332.04</ele>
        <time>2021-07-21T12:00:17Z</time>
      </trkpt>
      <trkpt lat="44.52054" lon="3.7853">
        <ele>1334.45</ele>
        <time>2021-07-21T12:00:30Z</time>
      </trkpt>
      <trkpt lat="44.52043" lon="3.78543">
        <ele>1338.29</ele>
        <time>2021-07-21T12:00:42Z</time>
      </trkpt>
      <trkpt lat="44.52036" lon="3.78552">
        <ele>1344.06</ele>
        <time>2021-07-21T12:00:56Z</time>
      </trkpt>
      <trkpt lat="44.52034" lon="3.78554">
        <ele>1344.54</ele>
        <time>2021-07-21T12:01:08Z</time>
      </trkpt>
      <trkpt lat="44.52034" lon="3.78555">
        <ele>1343.58</ele>
        <time>2021-07-21T12:01:28Z</time>
      </trkpt>
      <trkpt lat="44.52035" lon="3.78559">
        <ele>1345.5</ele>
        <time>2021-07-21T12:02:06Z</time>
      </trkpt>
      <trkpt lat="44.52036" lon="3.78561">
        <ele>1346.46</ele>
        <time>2021-07-21T12:02:47Z</time>
      </trkpt>
      <trkpt lat="44.52037" lon="3.78562">
        <ele>1346.94</ele>
        <time>2021-07-21T12:03:22Z</time>
      </trkpt>
      <trkpt lat="44.52038" lon="3.78561">
        <ele>1347.91</ele>
        <time>2021-07-21T12:03:55Z</time>
      </trkpt>
      <trkpt lat="44.52034" lon="3.78565">
        <ele>1346.94</ele>
        <time>2021-07-21T12:04:14Z</time>
      </trkpt>
      <trkpt lat="44.52017" lon="3.78573">
        <ele>1347.43</ele>
        <time>2021-07-21T12:04:28Z</time>
      </trkpt>
      <trkpt lat="44.52004" lon="3.78585">
        <ele>1346.46</ele>
        <time>2021-07-21T12:04:43Z</time>
      </trkpt>
      <trkpt lat="44.51994" lon="3.78593">
        <ele>1345.5</ele>
        <time>2021-07-21T12:04:53Z</time>
      </trkpt>
      <trkpt lat="44.5199" lon="3.78596">
        <ele>1345.98</ele>
        <time>2021-07-21T12:04:57Z</time>
      </trkpt>
      <trkpt lat="44.51985" lon="3.786">
        <ele>1345.98</ele>
        <time>2021-07-21T12:05:02Z</time>
      </trkpt>
      <trkpt lat="44.51978" lon="3.78608">
        <ele>1345.98</ele>
        <time>2021-07-21T12:05:11Z</time>
      </trkpt>
      <trkpt lat="44.51976" lon="3.78609">
        <ele>1345.5</ele>
        <time>2021-07-21T12:05:13Z</time>
      </trkpt>
      <trkpt lat="44.51967" lon="3.7862">
        <ele>1349.35</ele>
        <time>2021-07-21T12:05:27Z</time>
      </trkpt>
      <trkpt lat="44.51956" lon="3.78631">
        <ele>1353.19</ele>
        <time>2021-07-21T12:05:41Z</time>
      </trkpt>
      <trkpt lat="44.51951" lon="3.78635">
        <ele>1354.15</ele>
        <time>2021-07-21T12:05:46Z</time>
      </trkpt>
      <trkpt lat="44.51938" lon="3.78643">
        <ele>1356.08</ele>
        <time>2021-07-21T12:05:59Z</time>
      </trkpt>
      <trkpt lat="44.51937" lon="3.78644">
        <ele>1356.08</ele>
        <time>2021-07-21T12:06:07Z</time>
      </trkpt>
      <trkpt lat="44.51921" lon="3.78653">
        <ele>1357.04</ele>
        <time>2021-07-21T12:06:21Z</time>
      </trkpt>
      <trkpt lat="44.51909" lon="3.78661">
        <ele>1358</ele>
        <time>2021-07-21T12:06:34Z</time>
      </trkpt>
      <trkpt lat="44.51903" lon="3.78665">
        <ele>1360.4</ele>
        <time>2021-07-21T12:06:42Z</time>
      </trkpt>
      <trkpt lat="44.51888" lon="3.78672">
        <ele>1361.36</ele>
        <time>2021-07-21T12:06:56Z</time>
      </trkpt>
      <trkpt lat="44.51883" lon="3.7868">
        <ele>1361.36</ele>
        <time>2021-07-21T12:07:09Z</time>
      </trkpt>
      <trkpt lat="44.51882" lon="3.78681">
        <ele>1361.36</ele>
        <time>2021-07-21T12:07:10Z</time>
      </trkpt>
      <trkpt lat="44.51873" lon="3.78686">
        <ele>1360.4</ele>
        <time>2021-07-21T12:07:20Z</time>
      </trkpt>
      <trkpt lat="44.51855" lon="3.7869">
        <ele>1360.4</ele>
        <time>2021-07-21T12:07:35Z</time>
      </trkpt>
      <trkpt lat="44.51842" lon="3.78692">
        <ele>1362.81</ele>
        <time>2021-07-21T12:07:48Z</time>
      </trkpt>
      <trkpt lat="44.51829" lon="3.78696">
        <ele>1363.77</ele>
        <time>2021-07-21T12:08:00Z</time>
      </trkpt>
      <trkpt lat="44.51814" lon="3.78694">
        <ele>1365.21</ele>
        <time>2021-07-21T12:08:09Z</time>
      </trkpt>
      <trkpt lat="44.51795" lon="3.78689">
        <ele>1365.69</ele>
        <time>2021-07-21T12:08:20Z</time>
      </trkpt>
      <trkpt lat="44.51793" lon="3.7869">
        <ele>1366.17</ele>
        <time>2021-07-21T12:08:21Z</time>
      </trkpt>
      <trkpt lat="44.51784" lon="3.78687">
        <ele>1367.13</ele>
        <time>2021-07-21T12:08:26Z</time>
      </trkpt>
      <trkpt lat="44.5177" lon="3.78678">
        <ele>1368.09</ele>
        <time>2021-07-21T12:08:35Z</time>
      </trkpt>
      <trkpt lat="44.51749" lon="3.78668">
        <ele>1369.54</ele>
        <time>2021-07-21T12:08:48Z</time>
      </trkpt>
      <trkpt lat="44.51735" lon="3.78664">
        <ele>1370.02</ele>
        <time>2021-07-21T12:08:53Z</time>
      </trkpt>
      <trkpt lat="44.5173" lon="3.7866">
        <ele>1370.02</ele>
        <time>2021-07-21T12:08:56Z</time>
      </trkpt>
      <trkpt lat="44.51705" lon="3.78654">
        <ele>1367.13</ele>
        <time>2021-07-21T12:09:08Z</time>
      </trkpt>
      <trkpt lat="44.5168" lon="3.78649">
        <ele>1366.17</ele>
        <time>2021-07-21T12:09:18Z</time>
      </trkpt>
      <trkpt lat="44.51655" lon="3.78645">
        <ele>1365.21</ele>
        <time>2021-07-21T12:09:29Z</time>
      </trkpt>
      <trkpt lat="44.51631" lon="3.78641">
        <ele>1365.69</ele>
        <time>2021-07-21T12:09:42Z</time>
      </trkpt>
      <trkpt lat="44.51612" lon="3.78638">
        <ele>1367.13</ele>
        <time>2021-07-21T12:09:54Z</time>
      </trkpt>
      <trkpt lat="44.51592" lon="3.78633">
        <ele>1367.61</ele>
        <time>2021-07-21T12:10:05Z</time>
      </trkpt>
      <trkpt lat="44.51573" lon="3.78626">
        <ele>1368.57</ele>
        <time>2021-07-21T12:10:17Z</time>
      </trkpt>
      <trkpt lat="44.51557" lon="3.78622">
        <ele>1368.09</ele>
        <time>2021-07-21T12:10:27Z</time>
      </trkpt>
      <trkpt lat="44.51525" lon="3.78607">
        <ele>1366.17</ele>
        <time>2021-07-21T12:10:38Z</time>
      </trkpt>
      <trkpt lat="44.51519" lon="3.78603">
        <ele>1366.17</ele>
        <time>2021-07-21T12:10:41Z</time>
      </trkpt>
      <trkpt lat="44.5151" lon="3.78591">
        <ele>1366.17</ele>
        <time>2021-07-21T12:10:47Z</time>
      </trkpt>
      <trkpt lat="44.51519" lon="3.78559">
        <ele>1364.25</ele>
        <time>2021-07-21T12:10:58Z</time>
      </trkpt>
      <trkpt lat="44.51512" lon="3.78544">
        <ele>1364.73</ele>
        <time>2021-07-21T12:11:03Z</time>
      </trkpt>
      <trkpt lat="44.51505" lon="3.78529">
        <ele>1364.73</ele>
        <time>2021-07-21T12:11:06Z</time>
      </trkpt>
      <trkpt lat="44.51493" lon="3.78503">
        <ele>1363.29</ele>
        <time>2021-07-21T12:11:10Z</time>
      </trkpt>
      <trkpt lat="44.51488" lon="3.78454">
        <ele>1361.36</ele>
        <time>2021-07-21T12:11:18Z</time>
      </trkpt>
      <trkpt lat="44.5148" lon="3.78424">
        <ele>1358</ele>
        <time>2021-07-21T12:11:25Z</time>
      </trkpt>
      <trkpt lat="44.51466" lon="3.78382">
        <ele>1352.23</ele>
        <time>2021-07-21T12:11:31Z</time>
      </trkpt>
      <trkpt lat="44.51455" lon="3.78337">
        <ele>1345.02</ele>
        <time>2021-07-21T12:11:37Z</time>
      </trkpt>
      <trkpt lat="44.51453" lon="3.78324">
        <ele>1342.62</ele>
        <time>2021-07-21T12:11:39Z</time>
      </trkpt>
      <trkpt lat="44.51449" lon="3.78313">
        <ele>1340.22</ele>
        <time>2021-07-21T12:11:41Z</time>
      </trkpt>
      <trkpt lat="44.51445" lon="3.78289">
        <ele>1335.41</ele>
        <time>2021-07-21T12:11:45Z</time>
      </trkpt>
      <trkpt lat="44.51441" lon="3.78269">
        <ele>1331.56</ele>
        <time>2021-07-21T12:11:48Z</time>
      </trkpt>
      <trkpt lat="44.5143" lon="3.78248">
        <ele>1325.31</ele>
        <time>2021-07-21T12:11:53Z</time>
      </trkpt>
      <trkpt lat="44.51396" lon="3.78227">
        <ele>1318.1</ele>
        <time>2021-07-21T12:12:01Z</time>
      </trkpt>
      <trkpt lat="44.51368" lon="3.78207">
        <ele>1315.7</ele>
        <time>2021-07-21T12:12:08Z</time>
      </trkpt>
      <trkpt lat="44.51318" lon="3.78173">
        <ele>1313.3</ele>
        <time>2021-07-21T12:12:22Z</time>
      </trkpt>
      <trkpt lat="44.51284" lon="3.78148">
        <ele>1314.26</ele>
        <time>2021-07-21T12:12:33Z</time>
      </trkpt>
      <trkpt lat="44.51255" lon="3.78118">
        <ele>1314.26</ele>
        <time>2021-07-21T12:12:44Z</time>
      </trkpt>
      <trkpt lat="44.51249" lon="3.78108">
        <ele>1313.78</ele>
        <time>2021-07-21T12:12:46Z</time>
      </trkpt>
      <trkpt lat="44.51206" lon="3.78061">
        <ele>1311.38</ele>
        <time>2021-07-21T12:12:55Z</time>
      </trkpt>
      <trkpt lat="44.51165" lon="3.78004">
        <ele>1306.09</ele>
        <time>2021-07-21T12:13:03Z</time>
      </trkpt>
      <trkpt lat="44.51138" lon="3.77973">
        <ele>1304.65</ele>
        <time>2021-07-21T12:13:08Z</time>
      </trkpt>
      <trkpt lat="44.51113" lon="3.77962">
        <ele>1304.17</ele>
        <time>2021-07-21T12:13:12Z</time>
      </trkpt>
      <trkpt lat="44.51092" lon="3.77946">
        <ele>1302.24</ele>
        <time>2021-07-21T12:13:17Z</time>
      </trkpt>
      <trkpt lat="44.51072" lon="3.77907">
        <ele>1296.48</ele>
        <time>2021-07-21T12:13:26Z</time>
      </trkpt>
      <trkpt lat="44.51063" lon="3.77893">
        <ele>1293.59</ele>
        <time>2021-07-21T12:13:30Z</time>
      </trkpt>
      <trkpt lat="44.5105" lon="3.77873">
        <ele>1289.75</ele>
        <time>2021-07-21T12:13:35Z</time>
      </trkpt>
      <trkpt lat="44.51044" lon="3.77861">
        <ele>1287.82</ele>
        <time>2021-07-21T12:13:38Z</time>
      </trkpt>
      <trkpt lat="44.51032" lon="3.7784">
        <ele>1283.98</ele>
        <time>2021-07-21T12:13:42Z</time>
      </trkpt>
      <trkpt lat="44.51008" lon="3.77795">
        <ele>1278.69</ele>
        <time>2021-07-21T12:13:49Z</time>
      </trkpt>
      <trkpt lat="44.51011" lon="3.7778">
        <ele>1274.36</ele>
        <time>2021-07-21T12:13:59Z</time>
      </trkpt>
      <trkpt lat="44.5102" lon="3.77776">
        <ele>1275.81</ele>
        <time>2021-07-21T12:14:07Z</time>
      </trkpt>
      <trkpt lat="44.51037" lon="3.77773">
        <ele>1274.85</ele>
        <time>2021-07-21T12:14:10Z</time>
      </trkpt>
      <trkpt lat="44.51067" lon="3.77767">
        <ele>1273.4</ele>
        <time>2021-07-21T12:14:14Z</time>
      </trkpt>
      <trkpt lat="44.51124" lon="3.77775">
        <ele>1271</ele>
        <time>2021-07-21T12:14:23Z</time>
      </trkpt>
      <trkpt lat="44.5118" lon="3.77782">
        <ele>1270.04</ele>
        <time>2021-07-21T12:14:34Z</time>
      </trkpt>
      <trkpt lat="44.51201" lon="3.77785">
        <ele>1268.6</ele>
        <time>2021-07-21T12:14:41Z</time>
      </trkpt>
      <trkpt lat="44.51228" lon="3.77785">
        <ele>1266.19</ele>
        <time>2021-07-21T12:14:51Z</time>
      </trkpt>
      <trkpt lat="44.51241" lon="3.77786">
        <ele>1264.75</ele>
        <time>2021-07-21T12:14:56Z</time>
      </trkpt>
      <trkpt lat="44.51251" lon="3.77785">
        <ele>1262.83</ele>
        <time>2021-07-21T12:15:00Z</time>
      </trkpt>
      <trkpt lat="44.51261" lon="3.77786">
        <ele>1260.91</ele>
        <time>2021-07-21T12:15:03Z</time>
      </trkpt>
      <trkpt lat="44.51269" lon="3.77785">
        <ele>1256.58</ele>
        <time>2021-07-21T12:15:10Z</time>
      </trkpt>
      <trkpt lat="44.51268" lon="3.77738">
        <ele>1249.85</ele>
        <time>2021-07-21T12:15:21Z</time>
      </trkpt>
      <trkpt lat="44.51262" lon="3.77708">
        <ele>1246.49</ele>
        <time>2021-07-21T12:15:28Z</time>
      </trkpt>
      <trkpt lat="44.51233" lon="3.77664">
        <ele>1242.16</ele>
        <time>2021-07-21T12:15:38Z</time>
      </trkpt>
      <trkpt lat="44.51195" lon="3.7762">
        <ele>1235.43</ele>
        <time>2021-07-21T12:15:51Z</time>
      </trkpt>
      <trkpt lat="44.51184" lon="3.77607">
        <ele>1232.07</ele>
        <time>2021-07-21T12:15:59Z</time>
      </trkpt>
      <trkpt lat="44.51181" lon="3.77604">
        <ele>1233.03</ele>
        <time>2021-07-21T12:16:15Z</time>
      </trkpt>
      <trkpt lat="44.51178" lon="3.77599">
        <ele>1232.55</ele>
        <time>2021-07-21T12:16:17Z</time>
      </trkpt>
      <trkpt lat="44.51147" lon="3.77561">
        <ele>1228.7</ele>
        <time>2021-07-21T12:16:26Z</time>
      </trkpt>
      <trkpt lat="44.51138" lon="3.77554">
        <ele>1227.26</ele>
        <time>2021-07-21T12:16:28Z</time>
      </trkpt>
      <trkpt lat="44.51098" lon="3.77537">
        <ele>1223.9</ele>
        <time>2021-07-21T12:16:37Z</time>
      </trkpt>
      <trkpt lat="44.51067" lon="3.77522">
        <ele>1221.97</ele>
        <time>2021-07-21T12:16:47Z</time>
      </trkpt>
      <trkpt lat="44.51047" lon="3.77512">
        <ele>1221.97</ele>
        <time>2021-07-21T12:16:52Z</time>
      </trkpt>
      <trkpt lat="44.51021" lon="3.77493">
        <ele>1220.53</ele>
        <time>2021-07-21T12:16:58Z</time>
      </trkpt>
      <trkpt lat="44.51011" lon="3.77485">
        <ele>1219.57</ele>
        <time>2021-07-21T12:17:00Z</time>
      </trkpt>
      <trkpt lat="44.5099" lon="3.77462">
        <ele>1218.13</ele>
        <time>2021-07-21T12:17:05Z</time>
      </trkpt>
      <trkpt lat="44.50981" lon="3.7744">
        <ele>1219.09</ele>
        <time>2021-07-21T12:17:09Z</time>
      </trkpt>
      <trkpt lat="44.50976" lon="3.77425">
        <ele>1218.61</ele>
        <time>2021-07-21T12:17:11Z</time>
      </trkpt>
      <trkpt lat="44.50966" lon="3.77385">
        <ele>1217.65</ele>
        <time>2021-07-21T12:17:15Z</time>
      </trkpt>
      <trkpt lat="44.50958" lon="3.77351">
        <ele>1216.69</ele>
        <time>2021-07-21T12:17:18Z</time>
      </trkpt>
      <trkpt lat="44.50951" lon="3.77287">
        <ele>1213.32</ele>
        <time>2021-07-21T12:17:24Z</time>
      </trkpt>
      <trkpt lat="44.50945" lon="3.77238">
        <ele>1209.48</ele>
        <time>2021-07-21T12:17:29Z</time>
      </trkpt>
      <trkpt lat="44.50938" lon="3.77209">
        <ele>1207.07</ele>
        <time>2021-07-21T12:17:32Z</time>
      </trkpt>
      <trkpt lat="44.50925" lon="3.77171">
        <ele>1203.71</ele>
        <time>2021-07-21T12:17:36Z</time>
      </trkpt>
      <trkpt lat="44.50913" lon="3.77139">
        <ele>1202.75</ele>
        <time>2021-07-21T12:17:39Z</time>
      </trkpt>
      <trkpt lat="44.509" lon="3.77109">
        <ele>1201.3</ele>
        <time>2021-07-21T12:17:42Z</time>
      </trkpt>
      <trkpt lat="44.50877" lon="3.77072">
        <ele>1198.42</ele>
        <time>2021-07-21T12:17:46Z</time>
      </trkpt>
      <trkpt lat="44.50853" lon="3.77028">
        <ele>1195.06</ele>
        <time>2021-07-21T12:17:51Z</time>
      </trkpt>
      <trkpt lat="44.50842" lon="3.77012">
        <ele>1193.61</ele>
        <time>2021-07-21T12:17:53Z</time>
      </trkpt>
      <trkpt lat="44.50772" lon="3.76965">
        <ele>1188.33</ele>
        <time>2021-07-21T12:18:03Z</time>
      </trkpt>
      <trkpt lat="44.50685" lon="3.76916">
        <ele>1183.52</ele>
        <time>2021-07-21T12:18:14Z</time>
      </trkpt>
      <trkpt lat="44.50625" lon="3.7689">
        <ele>1176.79</ele>
        <time>2021-07-21T12:18:22Z</time>
      </trkpt>
      <trkpt lat="44.50585" lon="3.76879">
        <ele>1171.02</ele>
        <time>2021-07-21T12:18:31Z</time>
      </trkpt>
      <trkpt lat="44.50584" lon="3.76879">
        <ele>1172.47</ele>
        <time>2021-07-21T12:18:38Z</time>
      </trkpt>
      <trkpt lat="44.50573" lon="3.76873">
        <ele>1171.5</ele>
        <time>2021-07-21T12:18:42Z</time>
      </trkpt>
      <trkpt lat="44.50563" lon="3.76872">
        <ele>1170.54</ele>
        <time>2021-07-21T12:18:44Z</time>
      </trkpt>
      <trkpt lat="44.50537" lon="3.76867">
        <ele>1169.1</ele>
        <time>2021-07-21T12:18:48Z</time>
      </trkpt>
      <trkpt lat="44.50512" lon="3.76859">
        <ele>1165.74</ele>
        <time>2021-07-21T12:18:54Z</time>
      </trkpt>
      <trkpt lat="44.50496" lon="3.76857">
        <ele>1165.26</ele>
        <time>2021-07-21T12:18:57Z</time>
      </trkpt>
      <trkpt lat="44.50463" lon="3.76849">
        <ele>1163.81</ele>
        <time>2021-07-21T12:19:03Z</time>
      </trkpt>
      <trkpt lat="44.50421" lon="3.76816">
        <ele>1160.93</ele>
        <time>2021-07-21T12:19:11Z</time>
      </trkpt>
      <trkpt lat="44.50373" lon="3.76778">
        <ele>1158.05</ele>
        <time>2021-07-21T12:19:20Z</time>
      </trkpt>
      <trkpt lat="44.50349" lon="3.76766">
        <ele>1156.12</ele>
        <time>2021-07-21T12:19:24Z</time>
      </trkpt>
      <trkpt lat="44.50327" lon="3.76759">
        <ele>1154.68</ele>
        <time>2021-07-21T12:19:27Z</time>
      </trkpt>
      <trkpt lat="44.50288" lon="3.76747">
        <ele>1151.32</ele>
        <time>2021-07-21T12:19:32Z</time>
      </trkpt>
      <trkpt lat="44.50242" lon="3.76741">
        <ele>1146.99</ele>
        <time>2021-07-21T12:19:38Z</time>
      </trkpt>
      <trkpt lat="44.50208" lon="3.76728">
        <ele>1143.63</ele>
        <time>2021-07-21T12:19:43Z</time>
      </trkpt>
      <trkpt lat="44.50194" lon="3.76719">
        <ele>1141.7</ele>
        <time>2021-07-21T12:19:47Z</time>
      </trkpt>
      <trkpt lat="44.50181" lon="3.7671">
        <ele>1139.78</ele>
        <time>2021-07-21T12:19:51Z</time>
      </trkpt>
      <trkpt lat="44.50142" lon="3.76667">
        <ele>1142.18</ele>
        <time>2021-07-21T12:20:04Z</time>
      </trkpt>
      <trkpt lat="44.50137" lon="3.7666">
        <ele>1145.07</ele>
        <time>2021-07-21T12:20:14Z</time>
      </trkpt>
      <trkpt lat="44.50141" lon="3.76669">
        <ele>1146.99</ele>
        <time>2021-07-21T12:20:28Z</time>
      </trkpt>
      <trkpt lat="44.50141" lon="3.76672">
        <ele>1144.11</ele>
        <time>2021-07-21T12:21:07Z</time>
      </trkpt>
      <trkpt lat="44.5014" lon="3.76668">
        <ele>1145.55</ele>
        <time>2021-07-21T12:21:44Z</time>
      </trkpt>
      <trkpt lat="44.50145" lon="3.76673">
        <ele>1145.07</ele>
        <time>2021-07-21T12:22:18Z</time>
      </trkpt>
      <trkpt lat="44.50146" lon="3.76673">
        <ele>1144.59</ele>
        <time>2021-07-21T12:22:19Z</time>
      </trkpt>
      <trkpt lat="44.50162" lon="3.76691">
        <ele>1144.59</ele>
        <time>2021-07-21T12:22:34Z</time>
      </trkpt>
      <trkpt lat="44.50177" lon="3.76705">
        <ele>1148.91</ele>
        <time>2021-07-21T12:22:49Z</time>
      </trkpt>
      <trkpt lat="44.5018" lon="3.76706">
        <ele>1148.91</ele>
        <time>2021-07-21T12:23:04Z</time>
      </trkpt>
      <trkpt lat="44.50182" lon="3.76705">
        <ele>1147.47</ele>
        <time>2021-07-21T12:23:36Z</time>
      </trkpt>
      <trkpt lat="44.50182" lon="3.76706">
        <ele>1146.03</ele>
        <time>2021-07-21T12:24:08Z</time>
      </trkpt>
      <trkpt lat="44.50182" lon="3.76707">
        <ele>1144.59</ele>
        <time>2021-07-21T12:24:38Z</time>
      </trkpt>
      <trkpt lat="44.50181" lon="3.76706">
        <ele>1144.11</ele>
        <time>2021-07-21T12:25:07Z</time>
      </trkpt>
      <trkpt lat="44.5018" lon="3.76705">
        <ele>1146.51</ele>
        <time>2021-07-21T12:25:41Z</time>
      </trkpt>
      <trkpt lat="44.50181" lon="3.76707">
        <ele>1146.03</ele>
        <time>2021-07-21T12:26:10Z</time>
      </trkpt>
      <trkpt lat="44.50181" lon="3.76707">
        <ele>1146.99</ele>
        <time>2021-07-21T12:26:44Z</time>
      </trkpt>
      <trkpt lat="44.50182" lon="3.76707">
        <ele>1146.51</ele>
        <time>2021-07-21T12:27:21Z</time>
      </trkpt>
      <trkpt lat="44.50183" lon="3.76707">
        <ele>1146.99</ele>
        <time>2021-07-21T12:27:53Z</time>
      </trkpt>
      <trkpt lat="44.50183" lon="3.76709">
        <ele>1146.51</ele>
        <time>2021-07-21T12:28:28Z</time>
      </trkpt>
      <trkpt lat="44.50181" lon="3.76707">
        <ele>1146.99</ele>
        <time>2021-07-21T12:29:00Z</time>
      </trkpt>
      <trkpt lat="44.50181" lon="3.76704">
        <ele>1146.51</ele>
        <time>2021-07-21T12:29:34Z</time>
      </trkpt>
      <trkpt lat="44.50182" lon="3.76706">
        <ele>1146.03</ele>
        <time>2021-07-21T12:30:06Z</time>
      </trkpt>
      <trkpt lat="44.50182" lon="3.76707">
        <ele>1146.03</ele>
        <time>2021-07-21T12:30:40Z</time>
      </trkpt>
      <trkpt lat="44.50183" lon="3.76706">
        <ele>1146.03</ele>
        <time>2021-07-21T12:31:16Z</time>
      </trkpt>
      <trkpt lat="44.50183" lon="3.76704">
        <ele>1145.55</ele>
        <time>2021-07-21T12:31:53Z</time>
      </trkpt>
      <trkpt lat="44.50184" lon="3.76705">
        <ele>1144.11</ele>
        <time>2021-07-21T12:32:32Z</time>
      </trkpt>
      <trkpt lat="44.50183" lon="3.76706">
        <ele>1144.59</ele>
        <time>2021-07-21T12:32:50Z</time>
      </trkpt>
      <trkpt lat="44.50167" lon="3.76693">
        <ele>1145.55</ele>
        <time>2021-07-21T12:33:01Z</time>
      </trkpt>
      <trkpt lat="44.50159" lon="3.76689">
        <ele>1146.99</ele>
        <time>2021-07-21T12:33:23Z</time>
      </trkpt>
      <trkpt lat="44.50142" lon="3.76669">
        <ele>1147.95</ele>
        <time>2021-07-21T12:33:36Z</time>
      </trkpt>
      <trkpt lat="44.50125" lon="3.76659">
        <ele>1151.8</ele>
        <time>2021-07-21T12:33:48Z</time>
      </trkpt>
      <trkpt lat="44.50104" lon="3.76658">
        <ele>1153.72</ele>
        <time>2021-07-21T12:34:01Z</time>
      </trkpt>
      <trkpt lat="44.50092" lon="3.76657">
        <ele>1155.16</ele>
        <time>2021-07-21T12:34:10Z</time>
      </trkpt>
      <trkpt lat="44.50075" lon="3.76651">
        <ele>1158.53</ele>
        <time>2021-07-21T12:34:25Z</time>
      </trkpt>
      <trkpt lat="44.50058" lon="3.76647">
        <ele>1158.53</ele>
        <time>2021-07-21T12:34:39Z</time>
      </trkpt>
      <trkpt lat="44.50042" lon="3.76645">
        <ele>1159.01</ele>
        <time>2021-07-21T12:34:52Z</time>
      </trkpt>
      <trkpt lat="44.50023" lon="3.76641">
        <ele>1159.49</ele>
        <time>2021-07-21T12:35:07Z</time>
      </trkpt>
      <trkpt lat="44.5001" lon="3.7664">
        <ele>1160.93</ele>
        <time>2021-07-21T12:35:20Z</time>
      </trkpt>
      <trkpt lat="44.49994" lon="3.76637">
        <ele>1161.89</ele>
        <time>2021-07-21T12:35:35Z</time>
      </trkpt>
      <trkpt lat="44.49982" lon="3.76635">
        <ele>1162.37</ele>
        <time>2021-07-21T12:35:47Z</time>
      </trkpt>
      <trkpt lat="44.49971" lon="3.76634">
        <ele>1162.85</ele>
        <time>2021-07-21T12:35:58Z</time>
      </trkpt>
      <trkpt lat="44.49961" lon="3.76634">
        <ele>1164.29</ele>
        <time>2021-07-21T12:36:07Z</time>
      </trkpt>
      <trkpt lat="44.49952" lon="3.76633">
        <ele>1166.7</ele>
        <time>2021-07-21T12:36:16Z</time>
      </trkpt>
      <trkpt lat="44.49942" lon="3.76634">
        <ele>1168.14</ele>
        <time>2021-07-21T12:36:29Z</time>
      </trkpt>
      <trkpt lat="44.49928" lon="3.76635">
        <ele>1171.98</ele>
        <time>2021-07-21T12:36:44Z</time>
      </trkpt>
      <trkpt lat="44.49919" lon="3.76636">
        <ele>1172.47</ele>
        <time>2021-07-21T12:37:00Z</time>
      </trkpt>
      <trkpt lat="44.49911" lon="3.76637">
        <ele>1172.47</ele>
        <time>2021-07-21T12:37:14Z</time>
      </trkpt>
      <trkpt lat="44.4991" lon="3.76637">
        <ele>1173.43</ele>
        <time>2021-07-21T12:37:21Z</time>
      </trkpt>
      <trkpt lat="44.49892" lon="3.76637">
        <ele>1173.91</ele>
        <time>2021-07-21T12:37:36Z</time>
      </trkpt>
      <trkpt lat="44.49886" lon="3.76638">
        <ele>1173.91</ele>
        <time>2021-07-21T12:37:41Z</time>
      </trkpt>
      <trkpt lat="44.49868" lon="3.76641">
        <ele>1173.91</ele>
        <time>2021-07-21T12:37:55Z</time>
      </trkpt>
      <trkpt lat="44.49856" lon="3.76644">
        <ele>1175.35</ele>
        <time>2021-07-21T12:38:06Z</time>
      </trkpt>
      <trkpt lat="44.49836" lon="3.76648">
        <ele>1177.27</ele>
        <time>2021-07-21T12:38:20Z</time>
      </trkpt>
      <trkpt lat="44.49825" lon="3.7665">
        <ele>1177.75</ele>
        <time>2021-07-21T12:38:28Z</time>
      </trkpt>
      <trkpt lat="44.4981" lon="3.76658">
        <ele>1178.71</ele>
        <time>2021-07-21T12:38:42Z</time>
      </trkpt>
      <trkpt lat="44.49798" lon="3.7666">
        <ele>1177.27</ele>
        <time>2021-07-21T12:38:51Z</time>
      </trkpt>
      <trkpt lat="44.4978" lon="3.7666">
        <ele>1178.71</ele>
        <time>2021-07-21T12:39:07Z</time>
      </trkpt>
      <trkpt lat="44.49778" lon="3.7666">
        <ele>1178.71</ele>
        <time>2021-07-21T12:39:09Z</time>
      </trkpt>
      <trkpt lat="44.49766" lon="3.76659">
        <ele>1180.16</ele>
        <time>2021-07-21T12:39:21Z</time>
      </trkpt>
      <trkpt lat="44.49751" lon="3.76659">
        <ele>1179.19</ele>
        <time>2021-07-21T12:39:35Z</time>
      </trkpt>
      <trkpt lat="44.49738" lon="3.76659">
        <ele>1180.64</ele>
        <time>2021-07-21T12:39:49Z</time>
      </trkpt>
      <trkpt lat="44.49732" lon="3.76658">
        <ele>1181.6</ele>
        <time>2021-07-21T12:39:54Z</time>
      </trkpt>
      <trkpt lat="44.49722" lon="3.76659">
        <ele>1183.04</ele>
        <time>2021-07-21T12:40:04Z</time>
      </trkpt>
      <trkpt lat="44.49713" lon="3.76657">
        <ele>1183.52</ele>
        <time>2021-07-21T12:40:11Z</time>
      </trkpt>
      <trkpt lat="44.49705" lon="3.76651">
        <ele>1184</ele>
        <time>2021-07-21T12:40:18Z</time>
      </trkpt>
      <trkpt lat="44.49695" lon="3.76637">
        <ele>1184</ele>
        <time>2021-07-21T12:40:30Z</time>
      </trkpt>
      <trkpt lat="44.49698" lon="3.76631">
        <ele>1182.56</ele>
        <time>2021-07-21T12:40:42Z</time>
      </trkpt>
      <trkpt lat="44.49698" lon="3.76629">
        <ele>1182.08</ele>
        <time>2021-07-21T12:41:02Z</time>
      </trkpt>
      <trkpt lat="44.49698" lon="3.76629">
        <ele>1181.6</ele>
        <time>2021-07-21T12:41:30Z</time>
      </trkpt>
      <trkpt lat="44.49698" lon="3.76629">
        <ele>1181.6</ele>
        <time>2021-07-21T12:42:06Z</time>
      </trkpt>
      <trkpt lat="44.49696" lon="3.76629">
        <ele>1179.67</ele>
        <time>2021-07-21T12:42:43Z</time>
      </trkpt>
      <trkpt lat="44.49695" lon="3.76627">
        <ele>1181.12</ele>
        <time>2021-07-21T12:43:16Z</time>
      </trkpt>
      <trkpt lat="44.49696" lon="3.76628">
        <ele>1183.04</ele>
        <time>2021-07-21T12:43:43Z</time>
      </trkpt>
      <trkpt lat="44.49704" lon="3.76622">
        <ele>1183.04</ele>
        <time>2021-07-21T12:43:58Z</time>
      </trkpt>
      <trkpt lat="44.49721" lon="3.76609">
        <ele>1182.56</ele>
        <time>2021-07-21T12:44:08Z</time>
      </trkpt>
      <trkpt lat="44.49729" lon="3.76601">
        <ele>1183.52</ele>
        <time>2021-07-21T12:44:13Z</time>
      </trkpt>
      <trkpt lat="44.49751" lon="3.76574">
        <ele>1188.33</ele>
        <time>2021-07-21T12:44:27Z</time>
      </trkpt>
      <trkpt lat="44.49754" lon="3.7657">
        <ele>1188.81</ele>
        <time>2021-07-21T12:44:29Z</time>
      </trkpt>
      <trkpt lat="44.49756" lon="3.76567">
        <ele>1189.29</ele>
        <time>2021-07-21T12:44:31Z</time>
      </trkpt>
      <trkpt lat="44.49779" lon="3.76538">
        <ele>1191.69</ele>
        <time>2021-07-21T12:44:47Z</time>
      </trkpt>
      <trkpt lat="44.49789" lon="3.76508">
        <ele>1192.65</ele>
        <time>2021-07-21T12:45:00Z</time>
      </trkpt>
      <trkpt lat="44.4979" lon="3.76504">
        <ele>1193.13</ele>
        <time>2021-07-21T12:45:02Z</time>
      </trkpt>
      <trkpt lat="44.49798" lon="3.76478">
        <ele>1192.65</ele>
        <time>2021-07-21T12:45:15Z</time>
      </trkpt>
      <trkpt lat="44.49799" lon="3.76475">
        <ele>1193.13</ele>
        <time>2021-07-21T12:45:17Z</time>
      </trkpt>
      <trkpt lat="44.49812" lon="3.76457">
        <ele>1196.98</ele>
        <time>2021-07-21T12:45:30Z</time>
      </trkpt>
      <trkpt lat="44.49829" lon="3.76437">
        <ele>1198.42</ele>
        <time>2021-07-21T12:45:43Z</time>
      </trkpt>
      <trkpt lat="44.49854" lon="3.76404">
        <ele>1195.06</ele>
        <time>2021-07-21T12:46:00Z</time>
      </trkpt>
      <trkpt lat="44.49871" lon="3.76371">
        <ele>1195.06</ele>
        <time>2021-07-21T12:46:14Z</time>
      </trkpt>
      <trkpt lat="44.49888" lon="3.76322">
        <ele>1196.02</ele>
        <time>2021-07-21T12:46:31Z</time>
      </trkpt>
      <trkpt lat="44.49894" lon="3.76288">
        <ele>1197.94</ele>
        <time>2021-07-21T12:46:44Z</time>
      </trkpt>
      <trkpt lat="44.499" lon="3.76255">
        <ele>1194.09</ele>
        <time>2021-07-21T12:46:56Z</time>
      </trkpt>
      <trkpt lat="44.49899" lon="3.76216">
        <ele>1191.21</ele>
        <time>2021-07-21T12:47:08Z</time>
      </trkpt>
      <trkpt lat="44.49893" lon="3.76163">
        <ele>1196.5</ele>
        <time>2021-07-21T12:47:23Z</time>
      </trkpt>
      <trkpt lat="44.49893" lon="3.76125">
        <ele>1201.3</ele>
        <time>2021-07-21T12:47:34Z</time>
      </trkpt>
      <trkpt lat="44.49893" lon="3.76076">
        <ele>1202.27</ele>
        <time>2021-07-21T12:47:46Z</time>
      </trkpt>
      <trkpt lat="44.49897" lon="3.76031">
        <ele>1201.79</ele>
        <time>2021-07-21T12:47:59Z</time>
      </trkpt>
      <trkpt lat="44.49898" lon="3.7599">
        <ele>1201.3</ele>
        <time>2021-07-21T12:48:10Z</time>
      </trkpt>
      <trkpt lat="44.49902" lon="3.75958">
        <ele>1199.86</ele>
        <time>2021-07-21T12:48:20Z</time>
      </trkpt>
      <trkpt lat="44.49902" lon="3.75958">
        <ele>1199.38</ele>
        <time>2021-07-21T12:48:42Z</time>
      </trkpt>
      <trkpt lat="44.49902" lon="3.75959">
        <ele>1199.86</ele>
        <time>2021-07-21T12:49:05Z</time>
      </trkpt>
      <trkpt lat="44.49922" lon="3.75922">
        <ele>1197.94</ele>
        <time>2021-07-21T12:49:18Z</time>
      </trkpt>
      <trkpt lat="44.49942" lon="3.75894">
        <ele>1196.5</ele>
        <time>2021-07-21T12:49:24Z</time>
      </trkpt>
      <trkpt lat="44.49961" lon="3.75875">
        <ele>1195.06</ele>
        <time>2021-07-21T12:49:28Z</time>
      </trkpt>
      <trkpt lat="44.50015" lon="3.75871">
        <ele>1191.69</ele>
        <time>2021-07-21T12:49:37Z</time>
      </trkpt>
      <trkpt lat="44.50028" lon="3.75867">
        <ele>1190.73</ele>
        <time>2021-07-21T12:49:39Z</time>
      </trkpt>
      <trkpt lat="44.50055" lon="3.75835">
        <ele>1187.37</ele>
        <time>2021-07-21T12:49:45Z</time>
      </trkpt>
      <trkpt lat="44.50067" lon="3.75807">
        <ele>1184</ele>
        <time>2021-07-21T12:49:55Z</time>
      </trkpt>
      <trkpt lat="44.5007" lon="3.75788">
        <ele>1181.6</ele>
        <time>2021-07-21T12:50:00Z</time>
      </trkpt>
      <trkpt lat="44.50074" lon="3.75755">
        <ele>1180.64</ele>
        <time>2021-07-21T12:50:05Z</time>
      </trkpt>
      <trkpt lat="44.50082" lon="3.75725">
        <ele>1179.19</ele>
        <time>2021-07-21T12:50:09Z</time>
      </trkpt>
      <trkpt lat="44.50085" lon="3.75701">
        <ele>1177.75</ele>
        <time>2021-07-21T12:50:12Z</time>
      </trkpt>
      <trkpt lat="44.50083" lon="3.75659">
        <ele>1175.35</ele>
        <time>2021-07-21T12:50:19Z</time>
      </trkpt>
      <trkpt lat="44.50069" lon="3.75647">
        <ele>1172.95</ele>
        <time>2021-07-21T12:50:27Z</time>
      </trkpt>
      <trkpt lat="44.50069" lon="3.75643">
        <ele>1172.47</ele>
        <time>2021-07-21T12:50:28Z</time>
      </trkpt>
      <trkpt lat="44.50058" lon="3.75595">
        <ele>1170.54</ele>
        <time>2021-07-21T12:50:38Z</time>
      </trkpt>
      <trkpt lat="44.50057" lon="3.75594">
        <ele>1170.54</ele>
        <time>2021-07-21T12:50:49Z</time>
      </trkpt>
      <trkpt lat="44.50056" lon="3.75593">
        <ele>1172.95</ele>
        <time>2021-07-21T12:51:04Z</time>
      </trkpt>
      <trkpt lat="44.50054" lon="3.75593">
        <ele>1171.02</ele>
        <time>2021-07-21T12:51:42Z</time>
      </trkpt>
      <trkpt lat="44.50055" lon="3.75593">
        <ele>1169.1</ele>
        <time>2021-07-21T12:52:17Z</time>
      </trkpt>
      <trkpt lat="44.50055" lon="3.75592">
        <ele>1169.58</ele>
        <time>2021-07-21T12:52:55Z</time>
      </trkpt>
      <trkpt lat="44.50055" lon="3.75592">
        <ele>1171.02</ele>
        <time>2021-07-21T12:53:32Z</time>
      </trkpt>
      <trkpt lat="44.50054" lon="3.75592">
        <ele>1170.54</ele>
        <time>2021-07-21T12:54:07Z</time>
      </trkpt>
      <trkpt lat="44.50054" lon="3.75592">
        <ele>1170.06</ele>
        <time>2021-07-21T12:54:43Z</time>
      </trkpt>
      <trkpt lat="44.50053" lon="3.75594">
        <ele>1169.58</ele>
        <time>2021-07-21T12:55:03Z</time>
      </trkpt>
      <trkpt lat="44.50046" lon="3.7559">
        <ele>1170.06</ele>
        <time>2021-07-21T12:55:07Z</time>
      </trkpt>
      <trkpt lat="44.50003" lon="3.75559">
        <ele>1168.62</ele>
        <time>2021-07-21T12:55:19Z</time>
      </trkpt>
      <trkpt lat="44.4999" lon="3.75541">
        <ele>1167.66</ele>
        <time>2021-07-21T12:55:23Z</time>
      </trkpt>
      <trkpt lat="44.49979" lon="3.75482">
        <ele>1165.74</ele>
        <time>2021-07-21T12:55:35Z</time>
      </trkpt>
      <trkpt lat="44.49989" lon="3.75392">
        <ele>1163.33</ele>
        <time>2021-07-21T12:55:51Z</time>
      </trkpt>
      <trkpt lat="44.49998" lon="3.75362">
        <ele>1160.93</ele>
        <time>2021-07-21T12:55:55Z</time>
      </trkpt>
      <trkpt lat="44.49995" lon="3.75317">
        <ele>1158.53</ele>
        <time>2021-07-21T12:56:03Z</time>
      </trkpt>
      <trkpt lat="44.49967" lon="3.75285">
        <ele>1158.53</ele>
        <time>2021-07-21T12:56:16Z</time>
      </trkpt>
      <trkpt lat="44.49934" lon="3.75251">
        <ele>1158.53</ele>
        <time>2021-07-21T12:56:29Z</time>
      </trkpt>
      <trkpt lat="44.49887" lon="3.75242">
        <ele>1159.97</ele>
        <time>2021-07-21T12:56:44Z</time>
      </trkpt>
      <trkpt lat="44.49852" lon="3.75251">
        <ele>1160.93</ele>
        <time>2021-07-21T12:56:59Z</time>
      </trkpt>
      <trkpt lat="44.49846" lon="3.75253">
        <ele>1162.85</ele>
        <time>2021-07-21T12:57:03Z</time>
      </trkpt>
      <trkpt lat="44.4984" lon="3.7525">
        <ele>1164.29</ele>
        <time>2021-07-21T12:57:08Z</time>
      </trkpt>
      <trkpt lat="44.49822" lon="3.75239">
        <ele>1166.22</ele>
        <time>2021-07-21T12:57:21Z</time>
      </trkpt>
      <trkpt lat="44.49812" lon="3.75227">
        <ele>1167.66</ele>
        <time>2021-07-21T12:57:29Z</time>
      </trkpt>
      <trkpt lat="44.49784" lon="3.75186">
        <ele>1169.1</ele>
        <time>2021-07-21T12:57:48Z</time>
      </trkpt>
      <trkpt lat="44.49759" lon="3.7515">
        <ele>1169.1</ele>
        <time>2021-07-21T12:58:03Z</time>
      </trkpt>
      <trkpt lat="44.4975" lon="3.75142">
        <ele>1168.14</ele>
        <time>2021-07-21T12:58:06Z</time>
      </trkpt>
      <trkpt lat="44.49743" lon="3.75136">
        <ele>1167.66</ele>
        <time>2021-07-21T12:58:08Z</time>
      </trkpt>
      <trkpt lat="44.49731" lon="3.75109">
        <ele>1165.74</ele>
        <time>2021-07-21T12:58:13Z</time>
      </trkpt>
      <trkpt lat="44.49729" lon="3.75091">
        <ele>1165.26</ele>
        <time>2021-07-21T12:58:16Z</time>
      </trkpt>
      <trkpt lat="44.49727" lon="3.75064">
        <ele>1164.77</ele>
        <time>2021-07-21T12:58:20Z</time>
      </trkpt>
      <trkpt lat="44.49714" lon="3.75029">
        <ele>1161.89</ele>
        <time>2021-07-21T12:58:24Z</time>
      </trkpt>
      <trkpt lat="44.49629" lon="3.74933">
        <ele>1153.72</ele>
        <time>2021-07-21T12:58:37Z</time>
      </trkpt>
      <trkpt lat="44.49576" lon="3.74879">
        <ele>1148.43</ele>
        <time>2021-07-21T12:58:45Z</time>
      </trkpt>
      <trkpt lat="44.49521" lon="3.74804">
        <ele>1145.07</ele>
        <time>2021-07-21T12:58:55Z</time>
      </trkpt>
      <trkpt lat="44.49479" lon="3.74735">
        <ele>1140.26</ele>
        <time>2021-07-21T12:59:05Z</time>
      </trkpt>
      <trkpt lat="44.49474" lon="3.74728">
        <ele>1139.3</ele>
        <time>2021-07-21T12:59:06Z</time>
      </trkpt>
      <trkpt lat="44.4944" lon="3.747">
        <ele>1136.42</ele>
        <time>2021-07-21T12:59:11Z</time>
      </trkpt>
      <trkpt lat="44.49414" lon="3.74654">
        <ele>1132.09</ele>
        <time>2021-07-21T12:59:16Z</time>
      </trkpt>
      <trkpt lat="44.49374" lon="3.74536">
        <ele>1122.48</ele>
        <time>2021-07-21T12:59:26Z</time>
      </trkpt>
      <trkpt lat="44.49365" lon="3.74503">
        <ele>1119.59</ele>
        <time>2021-07-21T12:59:29Z</time>
      </trkpt>
      <trkpt lat="44.49345" lon="3.74463">
        <ele>1115.75</ele>
        <time>2021-07-21T12:59:33Z</time>
      </trkpt>
      <trkpt lat="44.49331" lon="3.74438">
        <ele>1113.82</ele>
        <time>2021-07-21T12:59:36Z</time>
      </trkpt>
      <trkpt lat="44.49308" lon="3.74385">
        <ele>1110.94</ele>
        <time>2021-07-21T12:59:43Z</time>
      </trkpt>
      <trkpt lat="44.49301" lon="3.74373">
        <ele>1110.46</ele>
        <time>2021-07-21T12:59:45Z</time>
      </trkpt>
      <trkpt lat="44.49281" lon="3.7435">
        <ele>1109.02</ele>
        <time>2021-07-21T12:59:49Z</time>
      </trkpt>
      <trkpt lat="44.49219" lon="3.74263">
        <ele>1104.69</ele>
        <time>2021-07-21T13:00:01Z</time>
      </trkpt>
      <trkpt lat="44.49211" lon="3.74253">
        <ele>1103.25</ele>
        <time>2021-07-21T13:00:03Z</time>
      </trkpt>
      <trkpt lat="44.49198" lon="3.74223">
        <ele>1099.89</ele>
        <time>2021-07-21T13:00:10Z</time>
      </trkpt>
      <trkpt lat="44.49182" lon="3.74194">
        <ele>1095.08</ele>
        <time>2021-07-21T13:00:19Z</time>
      </trkpt>
      <trkpt lat="44.49181" lon="3.74194">
        <ele>1094.6</ele>
        <time>2021-07-21T13:00:26Z</time>
      </trkpt>
      <trkpt lat="44.49176" lon="3.74193">
        <ele>1093.64</ele>
        <time>2021-07-21T13:00:38Z</time>
      </trkpt>
      <trkpt lat="44.49176" lon="3.74193">
        <ele>1093.64</ele>
        <time>2021-07-21T13:00:41Z</time>
      </trkpt>
      <trkpt lat="44.49171" lon="3.74182">
        <ele>1092.2</ele>
        <time>2021-07-21T13:00:45Z</time>
      </trkpt>
      <trkpt lat="44.49161" lon="3.74142">
        <ele>1088.35</ele>
        <time>2021-07-21T13:00:52Z</time>
      </trkpt>
      <trkpt lat="44.49146" lon="3.74144">
        <ele>1084.5</ele>
        <time>2021-07-21T13:00:59Z</time>
      </trkpt>
      <trkpt lat="44.49143" lon="3.74161">
        <ele>1082.1</ele>
        <time>2021-07-21T13:01:06Z</time>
      </trkpt>
      <trkpt lat="44.49144" lon="3.74165">
        <ele>1082.1</ele>
        <time>2021-07-21T13:01:18Z</time>
      </trkpt>
      <trkpt lat="44.49144" lon="3.74191">
        <ele>1081.14</ele>
        <time>2021-07-21T13:01:27Z</time>
      </trkpt>
      <trkpt lat="44.49144" lon="3.74194">
        <ele>1081.14</ele>
        <time>2021-07-21T13:01:28Z</time>
      </trkpt>
      <trkpt lat="44.49145" lon="3.74201">
        <ele>1079.7</ele>
        <time>2021-07-21T13:01:40Z</time>
      </trkpt>
      <trkpt lat="44.49147" lon="3.74222">
        <ele>1077.78</ele>
        <time>2021-07-21T13:01:52Z</time>
      </trkpt>
      <trkpt lat="44.49146" lon="3.74226">
        <ele>1077.29</ele>
        <time>2021-07-21T13:02:01Z</time>
      </trkpt>
      <trkpt lat="44.49143" lon="3.7423">
        <ele>1077.29</ele>
        <time>2021-07-21T13:02:10Z</time>
      </trkpt>
      <trkpt lat="44.49141" lon="3.74231">
        <ele>1077.78</ele>
        <time>2021-07-21T13:02:16Z</time>
      </trkpt>
      <trkpt lat="44.49138" lon="3.74223">
        <ele>1076.81</ele>
        <time>2021-07-21T13:02:26Z</time>
      </trkpt>
      <trkpt lat="44.49135" lon="3.74218">
        <ele>1076.33</ele>
        <time>2021-07-21T13:02:34Z</time>
      </trkpt>
      <trkpt lat="44.49133" lon="3.74207">
        <ele>1074.41</ele>
        <time>2021-07-21T13:02:47Z</time>
      </trkpt>
      <trkpt lat="44.49132" lon="3.74199">
        <ele>1072.97</ele>
        <time>2021-07-21T13:03:00Z</time>
      </trkpt>
      <trkpt lat="44.4913" lon="3.74192">
        <ele>1070.08</ele>
        <time>2021-07-21T13:03:10Z</time>
      </trkpt>
      <trkpt lat="44.49124" lon="3.74191">
        <ele>1071.05</ele>
        <time>2021-07-21T13:03:23Z</time>
      </trkpt>
      <trkpt lat="44.49123" lon="3.74192">
        <ele>1071.53</ele>
        <time>2021-07-21T13:03:25Z</time>
      </trkpt>
      <trkpt lat="44.49123" lon="3.742">
        <ele>1072.49</ele>
        <time>2021-07-21T13:03:40Z</time>
      </trkpt>
      <trkpt lat="44.49128" lon="3.74246">
        <ele>1073.93</ele>
        <time>2021-07-21T13:03:54Z</time>
      </trkpt>
      <trkpt lat="44.4913" lon="3.74314">
        <ele>1073.93</ele>
        <time>2021-07-21T13:04:12Z</time>
      </trkpt>
      <trkpt lat="44.4913" lon="3.74335">
        <ele>1075.37</ele>
        <time>2021-07-21T13:04:18Z</time>
      </trkpt>
      <trkpt lat="44.49112" lon="3.74359">
        <ele>1073.93</ele>
        <time>2021-07-21T13:04:29Z</time>
      </trkpt>
      <trkpt lat="44.49092" lon="3.7435">
        <ele>1071.53</ele>
        <time>2021-07-21T13:04:34Z</time>
      </trkpt>
      <trkpt lat="44.49091" lon="3.74331">
        <ele>1070.57</ele>
        <time>2021-07-21T13:04:39Z</time>
      </trkpt>
      <trkpt lat="44.49104" lon="3.74277">
        <ele>1070.08</ele>
        <time>2021-07-21T13:04:53Z</time>
      </trkpt>
      <trkpt lat="44.49109" lon="3.7427">
        <ele>1070.57</ele>
        <time>2021-07-21T13:05:02Z</time>
      </trkpt>
      <trkpt lat="44.49109" lon="3.74271">
        <ele>1068.64</ele>
        <time>2021-07-21T13:05:14Z</time>
      </trkpt>
      <trkpt lat="44.49094" lon="3.74257">
        <ele>1067.2</ele>
        <time>2021-07-21T15:12:52Z</time>
      </trkpt>
      <trkpt lat="44.49106" lon="3.74264">
        <ele>1070.57</ele>
        <time>2021-07-21T15:13:22Z</time>
      </trkpt>
      <trkpt lat="44.49104" lon="3.74266">
        <ele>1069.12</ele>
        <time>2021-07-21T15:13:54Z</time>
      </trkpt>
      <trkpt lat="44.49103" lon="3.74267">
        <ele>1071.05</ele>
        <time>2021-07-21T15:14:04Z</time>
      </trkpt>
    </trkseg>
  </trk>
</gpx>